FH638 / TC-FBV 7700 Squawk Report (18th of August, 2018)

Aircraft A320 Reg No. TC-FBV Age 7 years old
Model A320 Jet engines 2 First flight 24-03-11
Registered 21-04-11 Rollout N/A Delivered 21-04-11
Construction No. 4658 Line No. N/A Series 214
ADSHEX 4B9856 Airline name Freebird Airlines Owner N/A
Airfield based Istanbul-Ataturk (Yesilkoy)~Istanbul~TC First tracked 2011-04-22 16:18:04

Flight history for TC-FBV

Route Flight No Date Playback
Dionysios Solomos (ZTH) - Gardermoen (OSL) 1L324 2018-09-18 19:37:00
Landvetter (GOT) - Dionysios Solomos (ZTH) 1I347 2018-09-18 19:24:00
Dionysios Solomos (ZTH) - Landvetter (GOT) 1I348 2018-09-18 14:35:00
Gardermoen (OSL) - Dionysios Solomos (ZTH) 1L323 2018-09-18 07:57:00
???? N9344 2018-09-18 05:00:00
???? N9343 2018-09-17 20:20:00
Aktion National Airport (PVK) - Gardermoen (OSL) 1I326 2018-09-17 15:28:00
Gardermoen (OSL) - Aktion National Airport (PVK) 1I325 2018-09-17 10:30:00
???? N99325 2018-09-16 14:42:00
???? FH332 2018-09-16 03:58:00
???? FH331 2018-09-15 23:50:00
Antalya (AYT) - Dresden (DRS) N/A 2018-09-15 04:13:00
???? N/A 2018-09-15 00:51:00
???? YE5621 2018-09-14 19:42:00
???? N/A 2018-09-14 14:59:00
???? N/A 2018-09-14 11:27:00
???? N/A 2018-09-14 09:24:00
Billund (BLL) - Antalya (AYT) N/A 2018-09-14 04:05:00
Antalya (AYT) - Billund (BLL) FH809 2018-09-14 00:14:00
???? YE5621 2018-09-13 16:03:00
Time Lat Lon Altitude Heading Speed Vertical Rate
2018-08-19 01:29:42 GMT 36.714378 28.792902 0 14 96 0
2018-08-19 01:29:37 GMT 36.711731 28.791962 275 15 111 0
2018-08-19 01:29:29 GMT 36.707794 28.790646 275 15 139 -192
2018-08-19 01:29:18 GMT 36.700851 28.788328 325 14 142 -512
2018-08-19 01:29:08 GMT 36.694012 28.785933 450 15 142 -768
2018-08-19 01:28:57 GMT 36.687332 28.783722 575 14 140 -768
2018-08-19 01:28:47 GMT 36.680786 28.781490 725 15 139 -832
2018-08-19 01:28:37 GMT 36.674606 28.779316 850 15 138 -704
2018-08-19 01:28:27 GMT 36.668381 28.777199 950 14 136 -704
2018-08-19 01:28:16 GMT 36.661701 28.774946 1,075 14 134 -640
2018-08-19 01:28:06 GMT 36.655605 28.772842 1,175 15 131 -704
2018-08-19 01:27:55 GMT 36.649429 28.770676 1,300 15 129 -576
2018-08-19 01:27:42 GMT 36.641827 28.768108 1,400 15 130 -640
2018-08-19 01:27:34 GMT 36.637077 28.766474 1,500 15 130 -704
2018-08-19 01:27:24 GMT 36.631210 28.764486 1,625 15 132 -768
2018-08-19 01:27:13 GMT 36.624619 28.762264 1,750 15 138 -896
2018-08-19 01:27:01 GMT 36.617157 28.759689 1,900 15 145 -704
2018-08-19 01:26:52 GMT 36.611008 28.757589 2,025 15 150 -704
2018-08-19 01:26:42 GMT 36.603790 28.755136 2,125 15 159 -640
2018-08-19 01:26:28 GMT 36.594063 28.751923 2,275 14 166 -896
2018-08-19 01:26:17 GMT 36.585754 28.749104 2,475 15 165 -1088
2018-08-19 01:26:08 GMT 36.578476 28.746529 2,625 17 157 -832
2018-08-19 01:25:57 GMT 36.571014 28.743610 2,775 18 155 -832
2018-08-19 01:25:47 GMT 36.564011 28.740635 2,900 20 158 -704
2018-08-19 01:25:36 GMT 36.556728 28.737080 3,000 22 164 -640
2018-08-19 01:25:26 GMT 36.549278 28.732578 3,100 31 170 -256
2018-08-19 01:25:15 GMT 36.542587 28.726273 3,100 42 181 0
2018-08-19 01:25:05 GMT 36.535950 28.718662 3,075 42 192 0
2018-08-19 01:24:54 GMT 36.528797 28.710430 3,075 42 193 64
2018-08-19 01:24:43 GMT 36.521393 28.701782 3,075 44 194 -64
2018-08-19 01:24:33 GMT 36.515533 28.694115 3,075 51 194 0
2018-08-19 01:24:23 GMT 36.510864 28.684273 3,075 72 195 0
2018-08-19 01:24:13 GMT 36.509754 28.672623 3,075 97 199 -64
2018-08-19 01:24:01 GMT 36.511963 28.660126 3,100 104 205 64
2018-08-19 01:23:50 GMT 36.514690 28.647434 3,075 104 210 0
2018-08-19 01:23:41 GMT 36.517090 28.635979 3,100 104 219 -256
2018-08-19 01:23:30 GMT 36.519764 28.623301 3,125 105 219 -192
2018-08-19 01:23:20 GMT 36.522976 28.610443 3,150 112 219 -128
2018-08-19 01:23:10 GMT 36.528423 28.599632 3,200 135 221 -384
2018-08-19 01:22:59 GMT 36.537598 28.591633 3,275 157 222 -512
2018-08-19 01:22:49 GMT 36.547485 28.587742 3,325 164 222 -320
2018-08-19 01:22:38 GMT 36.557846 28.584265 3,375 164 222 -256
2018-08-19 01:22:27 GMT 36.568863 28.580532 3,425 164 222 -320
2018-08-19 01:22:16 GMT 36.580235 28.576725 3,475 165 224 -256
2018-08-19 01:22:07 GMT 36.589188 28.573723 3,500 165 226 -320
2018-08-19 01:21:54 GMT 36.602676 28.569304 3,575 165 234 -640
2018-08-19 01:21:46 GMT 36.611149 28.566557 3,650 165 238 -640
2018-08-19 01:21:35 GMT 36.622604 28.562965 3,775 165 244 -704
2018-08-19 01:21:25 GMT 36.633957 28.559418 3,875 166 250 -768
2018-08-19 01:21:15 GMT 36.645767 28.555756 4,025 166 255 -896
2018-08-19 01:21:04 GMT 36.658165 28.552006 4,200 166 259 -1088
2018-08-19 01:20:54 GMT 36.670670 28.548203 4,375 166 262 -1152
2018-08-19 01:20:38 GMT 36.688889 28.542656 4,625 166 267 -960
2018-08-19 01:20:33 GMT 36.695480 28.540592 4,750 165 273 -2240
2018-08-19 01:20:21 GMT 36.710358 28.535843 5,225 165 273 -2368
2018-08-19 01:20:12 GMT 36.721336 28.532312 5,525 165 276 -2240
2018-08-19 01:20:02 GMT 36.734390 28.528061 5,925 165 277 -2560
2018-08-19 01:19:55 GMT 36.744278 28.524742 6,250 164 277 -2688
2018-08-19 01:19:51 GMT 36.747437 28.523712 6,350 164 276 -2688
2018-08-19 01:19:44 GMT 36.756020 28.520800 6,750 164 275 -2496
2018-08-19 01:19:40 GMT 36.761372 28.518988 6,800 164 274 -2176
2018-08-19 01:19:33 GMT 36.770542 28.515890 7,050 164 271 -2240
2018-08-19 01:19:30 GMT 36.773708 28.514782 7,150 164 270 -2432
2018-08-19 01:19:23 GMT 36.783203 28.511625 7,450 164 266 -2112
2018-08-19 01:19:19 GMT 36.786758 28.510437 7,550 164 265 -1664
2018-08-19 01:19:12 GMT 36.795410 28.507519 7,700 164 266 -1216
2018-08-19 01:19:08 GMT 36.799171 28.506248 7,750 164 267 -1024
2018-08-19 01:19:02 GMT 36.808365 28.503113 7,850 164 271 -640
2018-08-19 01:18:54 GMT 36.816860 28.500172 7,925 164 272 -640
2018-08-19 01:18:51 GMT 36.819855 28.499165 7,975 164 276 -768
2018-08-19 01:18:48 GMT 36.824402 28.497601 8,000 164 278 -896
2018-08-19 01:18:40 GMT 36.835373 28.493843 8,125 164 282 -1088
2018-08-19 01:18:34 GMT 36.841999 28.491581 8,200 164 286 -832
2018-08-19 01:18:30 GMT 36.847870 28.489609 8,250 164 287 -768
2018-08-19 01:18:27 GMT 36.850525 28.488659 8,275 164 289 -768
2018-08-19 01:18:19 GMT 36.860504 28.485270 8,450 164 292 -1856
2018-08-19 01:18:16 GMT 36.864624 28.483847 8,500 164 291 -1984
2018-08-19 01:18:09 GMT 36.875519 28.480145 8,775 164 290 -2176
2018-08-19 01:18:06 GMT 36.877567 28.479427 8,850 164 289 -2176
2018-08-19 01:17:58 GMT 36.888084 28.475906 9,150 165 286 -2368
2018-08-19 01:17:55 GMT 36.891953 28.474577 9,250 165 285 -2176
2018-08-19 01:17:47 GMT 36.903450 28.470772 9,525 165 284 -1728
2018-08-19 01:17:43 GMT 36.907288 28.469549 9,600 165 284 -1728
2018-08-19 01:17:37 GMT 36.916203 28.466591 9,800 165 285 -1600
2018-08-19 01:17:34 GMT 36.918716 28.465815 9,850 165 285 -1600
2018-08-19 01:17:24 GMT 36.931984 28.461456 10,075 165 287 -1664
2018-08-19 01:17:16 GMT 36.944134 28.457516 10,325 165 288 -1472
2018-08-19 01:17:11 GMT 36.948029 28.456226 10,400 165 288 -1472
2018-08-19 01:17:04 GMT 36.958145 28.452978 10,550 165 289 -1088
2018-08-19 01:16:55 GMT 36.971558 28.448629 10,725 165 291 -1024
2018-08-19 01:16:52 GMT 36.972950 28.448200 10,750 165 291 -1024
2018-08-19 01:16:42 GMT 36.985893 28.443962 10,900 165 293 -1024
2018-08-19 01:16:34 GMT 36.999161 28.439663 11,075 165 297 -1088
2018-08-19 01:16:31 GMT 37.000488 28.439220 11,075 165 297 -1088
2018-08-19 01:16:22 GMT 37.013901 28.434837 11,250 165 302 -1088
2018-08-19 01:16:11 GMT 37.027588 28.430338 11,425 165 310 -1536
2018-08-19 01:16:01 GMT 37.042007 28.425547 11,650 165 310 -1536
2018-08-19 01:15:48 GMT 37.062103 28.418943 12,000 165 313 -1536
2018-08-19 01:15:40 GMT 37.071877 28.415720 12,175 165 314 -1472
2018-08-19 01:15:31 GMT 37.086166 28.410883 12,400 164 317 -1472
2018-08-19 01:15:19 GMT 37.101608 28.404976 12,650 161 320 -1152
2018-08-19 01:15:08 GMT 37.116611 28.398464 12,825 160 326 -1088
2018-08-19 01:14:58 GMT 37.131138 28.392075 13,000 160 331 -1216
2018-08-19 01:14:47 GMT 37.147247 28.384991 13,250 160 335 -1536
2018-08-19 01:14:37 GMT 37.162125 28.378504 13,475 160 339 -1536
2018-08-19 01:14:26 GMT 37.178528 28.371298 13,750 160 343 -1472
2018-08-19 01:14:15 GMT 37.195038 28.364012 14,000 160 346 -1536
2018-08-19 01:14:05 GMT 37.211670 28.356609 14,275 160 352 -1472
2018-08-19 01:13:54 GMT 37.229324 28.348818 14,550 160 355 -1536
2018-08-19 01:13:42 GMT 37.245655 28.341681 14,800 160 359 -1472
2018-08-19 01:13:34 GMT 37.261204 28.334875 15,025 160 364 -1536
2018-08-19 01:13:22 GMT 37.277588 28.327650 15,275 160 369 -1536
2018-08-19 01:13:12 GMT 37.295242 28.319832 15,525 160 374 -1408
2018-08-19 01:13:02 GMT 37.312820 28.312059 15,750 160 379 -1216
2018-08-19 01:12:50 GMT 37.331264 28.303946 15,975 160 385 -1472
2018-08-19 01:12:41 GMT 37.348480 28.296341 16,275 160 391 -2048
2018-08-19 01:12:29 GMT 37.367294 28.288063 16,600 160 394 -1984
2018-08-19 01:12:20 GMT 37.384567 28.280420 16,925 160 397 -2048
2018-08-19 01:12:09 GMT 37.403732 28.271971 17,275 160 400 -2112
2018-08-19 01:11:57 GMT 37.422729 28.263556 17,625 160 403 -2048
2018-08-19 01:11:47 GMT 37.441360 28.255283 17,975 160 408 -2048
2018-08-19 01:11:36 GMT 37.459843 28.247103 18,300 160 411 -2112
2018-08-19 01:11:25 GMT 37.481300 28.237551 19,075 160 414 -2176
2018-08-19 01:11:15 GMT 37.499969 28.229309 19,075 160 419 -2560
2018-08-19 01:11:08 GMT 37.510582 28.224592 19,300 160 420 -2560
2018-08-19 01:11:04 GMT 37.518078 28.221251 19,450 160 420 -2560
2018-08-19 01:10:56 GMT 37.532742 28.214743 19,775 160 423 -2560
2018-08-19 01:10:47 GMT 37.548935 28.207514 20,150 160 424 -2560
2018-08-19 01:10:42 GMT 37.558159 28.203398 20,350 160 425 -2560
2018-08-19 01:10:37 GMT 37.567520 28.199274 20,550 160 426 -2560
2018-08-19 01:10:25 GMT 37.590408 28.189049 21,050 160 428 -2560
2018-08-19 01:10:16 GMT 37.606995 28.181602 21,400 160 430 -2560
2018-08-19 01:10:00 GMT 37.637440 28.168110 22,050 160 433 -2624
2018-08-19 01:09:38 GMT 37.681641 28.148375 23,025 160 433 -2496
2018-08-19 01:09:35 GMT 37.685349 28.146681 23,100 160 433 -2496
2018-08-19 01:09:29 GMT 37.696381 28.141771 23,325 160 430 -2304
2018-08-19 01:09:19 GMT 37.715923 28.133001 23,675 160 430 -2048
2018-08-19 01:08:50 GMT 37.770531 28.108700 24,625 160 438 -2112
2018-08-19 01:08:46 GMT 37.778915 28.104897 24,750 160 441 -2048
2018-08-19 01:08:07 GMT 37.855068 28.070724 26,175 160 458 -2560
2018-08-19 01:08:04 GMT 37.861084 28.067965 26,300 160 458 -2560
2018-08-19 01:07:58 GMT 37.872620 28.062723 26,525 160 462 -2560
2018-08-19 01:07:53 GMT 37.882828 28.058147 26,750 160 461 -2560
2018-08-19 01:07:42 GMT 37.903530 28.048813 27,150 160 464 -2560
2018-08-19 01:07:11 GMT 37.967834 28.019987 28,450 160 474 -2560
2018-08-19 01:07:05 GMT 37.980057 28.014494 28,675 160 475 -2624
2018-08-19 01:07:00 GMT 37.989605 28.010181 28,875 160 476 -2624
2018-08-19 01:06:55 GMT 38.000931 28.005085 29,100 160 477 -2624
2018-08-19 01:06:50 GMT 38.012184 28.000031 29,325 160 478 -2624
2018-08-19 01:06:44 GMT 38.024101 27.994658 29,550 160 479 -2560
2018-08-19 01:06:32 GMT 38.048447 27.983669 30,025 160 479 -2496
2018-08-19 01:06:23 GMT 38.067123 27.975224 30,375 160 481 -2496
2018-08-19 01:06:17 GMT 38.080994 27.968912 30,650 160 481 -2560
2018-08-19 01:06:05 GMT 38.105347 27.957926 31,100 160 482 -2560
2018-08-19 01:06:02 GMT 38.111572 27.955130 31,250 160 481 -2496
2018-08-19 01:05:42 GMT 38.154354 27.935665 31,975 160 476 -2048
2018-08-19 01:05:34 GMT 38.169716 27.928740 32,225 160 476 -2048
2018-08-19 01:05:25 GMT 38.190247 27.919424 32,550 160 474 -2048
2018-08-19 01:05:13 GMT 38.214020 27.908663 32,925 160 473 -2048
2018-08-19 01:05:04 GMT 38.233612 27.899780 33,225 160 473 -2048
2018-08-19 01:04:54 GMT 38.254257 27.890490 33,550 160 472 -2112
2018-08-19 01:04:43 GMT 38.275589 27.880846 33,900 160 470 -2112
2018-08-19 01:04:32 GMT 38.298294 27.870583 34,275 160 468 -2048
2018-08-19 01:04:22 GMT 38.318871 27.861210 34,600 160 463 -1984
2018-08-19 01:04:11 GMT 38.340866 27.851217 34,925 160 460 -1984
2018-08-19 01:03:48 GMT 38.388794 27.829538 35,625 160 461 -1344
2018-08-19 01:03:37 GMT 38.408936 27.820362 35,850 160 461 -1088
2018-08-19 01:03:29 GMT 38.426220 27.812500 36,000 160 462 -1024
2018-08-19 01:03:16 GMT 38.451405 27.801025 36,200 160 462 -960
2018-08-19 01:03:08 GMT 38.468117 27.793335 36,325 160 463 -960
2018-08-19 01:02:57 GMT 38.490555 27.782991 36,475 160 465 -896
2018-08-19 01:02:46 GMT 38.512016 27.773132 36,625 160 469 -896
2018-08-19 01:02:35 GMT 38.535461 27.762333 36,775 160 473 -960
2018-08-19 01:02:25 GMT 38.554596 27.753555 36,925 160 478 -640
2018-08-19 01:02:07 GMT 38.593666 27.734070 37,000 157 480 0
2018-08-19 01:01:53 GMT 38.621429 27.716894 37,000 151 486 0
2018-08-19 01:01:43 GMT 38.641850 27.702148 37,025 148 489 0
2018-08-19 01:01:32 GMT 38.661865 27.686096 37,025 146 492 0
2018-08-19 01:01:21 GMT 38.684490 27.667297 37,000 146 492 64
2018-08-19 01:00:30 GMT 38.779968 27.587769 36,975 146 493 0
2018-08-19 01:00:18 GMT 38.802872 27.568542 37,000 146 492 0
2018-08-19 01:00:10 GMT 38.819321 27.554787 37,000 146 492 0
2018-08-19 00:59:59 GMT 38.840256 27.537231 37,000 146 492 0
2018-08-19 00:59:48 GMT 38.859528 27.521057 37,000 146 492 0
2018-08-19 00:59:38 GMT 38.881531 27.502602 37,000 146 492 -64
2018-08-19 00:59:33 GMT 38.888351 27.496868 37,000 146 492 -64
2018-08-19 00:59:28 GMT 38.899658 27.487375 37,000 146 492 0
2018-08-19 00:59:19 GMT 38.917950 27.471985 37,025 146 492 0
2018-08-19 00:59:16 GMT 38.920605 27.469788 37,025 146 492 0
2018-08-19 00:59:04 GMT 38.943508 27.450562 37,025 146 493 0
2018-08-19 00:58:55 GMT 38.961502 27.435429 37,025 146 493 0
2018-08-19 00:58:45 GMT 38.981277 27.418770 37,025 146 493 0
2018-08-19 00:58:38 GMT 38.997276 27.405273 37,025 146 494 0
2018-08-19 00:58:34 GMT 39.002117 27.401184 37,025 146 494 0
2018-08-19 00:58:26 GMT 39.018494 27.387363 37,025 146 494 0
2018-08-19 00:58:23 GMT 39.023438 27.383244 37,025 146 494 64
2018-08-19 00:58:16 GMT 39.037216 27.371601 37,025 146 495 64
2018-08-19 00:58:09 GMT 39.050392 27.360474 37,000 146 495 64
2018-08-19 00:58:06 GMT 39.056534 27.355301 37,000 146 495 64
2018-08-19 00:58:02 GMT 39.062679 27.350098 37,000 146 495 64
2018-08-19 00:57:57 GMT 39.075394 27.339418 37,000 146 496 64
2018-08-19 00:57:53 GMT 39.082092 27.333801 37,000 146 496 64
2018-08-19 00:57:46 GMT 39.094337 27.323425 37,000 146 496 64
2018-08-19 00:57:41 GMT 39.103271 27.315893 36,975 146 496 64
2018-08-19 00:57:35 GMT 39.114166 27.306639 36,975 146 496 0
2018-08-19 00:57:32 GMT 39.122406 27.299652 36,975 146 495 0
2018-08-19 00:57:25 GMT 39.135208 27.288818 37,000 146 495 0
2018-08-19 00:57:19 GMT 39.144608 27.280844 37,000 146 495 0
2018-08-19 00:57:15 GMT 39.153900 27.272963 37,000 146 495 -64
2018-08-19 00:57:04 GMT 39.174641 27.255371 37,000 146 495 0
2018-08-19 00:56:58 GMT 39.185345 27.246338 37,000 146 495 0
2018-08-19 00:56:54 GMT 39.193401 27.239502 37,000 146 495 0
2018-08-19 00:56:49 GMT 39.203659 27.230749 37,000 146 495 0
2018-08-19 00:56:43 GMT 39.214417 27.221613 37,000 146 495 0
2018-08-19 00:56:35 GMT 39.233734 27.205194 37,000 146 495 -64
2018-08-19 00:56:28 GMT 39.243397 27.196960 37,025 146 495 -64
2018-08-19 00:56:18 GMT 39.263763 27.179638 37,025 146 495 64
2018-08-19 00:56:13 GMT 39.272095 27.172533 37,025 146 495 128
2018-08-19 00:56:03 GMT 39.291321 27.156174 37,000 146 495 64
2018-08-19 00:55:54 GMT 39.311642 27.138916 37,000 146 496 0
2018-08-19 00:55:45 GMT 39.326305 27.126465 37,000 146 496 0
2018-08-19 00:55:41 GMT 39.332657 27.121004 37,000 146 496 0
2018-08-19 00:55:32 GMT 39.352112 27.104465 37,000 146 495 0
2018-08-19 00:55:24 GMT 39.364944 27.093506 37,000 146 495 -64
2018-08-19 00:55:21 GMT 39.373184 27.086426 37,000 146 495 0
2018-08-19 00:55:13 GMT 39.385941 27.075567 37,000 146 495 64
2018-08-19 00:55:10 GMT 39.394226 27.068521 37,000 146 495 64
2018-08-19 00:55:02 GMT 39.409744 27.055265 37,000 146 495 64
2018-08-19 00:54:51 GMT 39.428467 27.039324 37,000 146 496 0
2018-08-19 00:54:41 GMT 39.448471 27.022367 37,000 146 496 0
2018-08-19 00:54:31 GMT 39.468430 27.005310 37,000 146 496 64
2018-08-19 00:54:20 GMT 39.487656 26.988892 37,000 146 497 0
2018-08-19 00:54:11 GMT 39.505920 26.973167 37,000 146 497 0
2018-08-19 00:54:04 GMT 39.520157 26.960926 37,000 146 497 0
2018-08-19 00:54:01 GMT 39.526806 26.955261 37,000 146 497 0
2018-08-19 00:53:49 GMT 39.546890 26.937939 37,000 146 496 0
2018-08-19 00:53:37 GMT 39.570557 26.917580 37,000 146 497 64
2018-08-19 00:53:28 GMT 39.587372 26.903137 37,000 146 497 64
2018-08-19 00:53:16 GMT 39.611065 26.882751 37,000 146 497 0
2018-08-19 00:53:02 GMT 39.637508 26.860046 36,975 146 497 0
2018-08-19 00:52:56 GMT 39.649193 26.849976 37,000 146 497 0
2018-08-19 00:52:47 GMT 39.667721 26.834045 37,000 146 497 0
2018-08-19 00:52:35 GMT 39.689484 26.815239 37,000 146 497 0
2018-08-19 00:52:25 GMT 39.709618 26.797852 37,000 146 497 0
2018-08-19 00:52:13 GMT 39.731918 26.778637 37,000 146 497 -64
2018-08-19 00:52:01 GMT 39.755985 26.757874 37,025 146 497 -64
2018-08-19 00:51:55 GMT 39.768040 26.747375 37,025 146 497 -64
2018-08-19 00:51:52 GMT 39.771019 26.744873 37,025 146 497 -64
2018-08-19 00:51:44 GMT 39.789871 26.728542 37,025 146 497 0
2018-08-19 00:51:33 GMT 39.808960 26.712004 37,025 146 498 64
2018-08-19 00:51:22 GMT 39.829723 26.693970 37,025 146 498 64
2018-08-19 00:51:12 GMT 39.849518 26.676834 37,000 146 499 64
2018-08-19 00:51:01 GMT 39.870575 26.658564 37,000 146 500 0
2018-08-19 00:50:50 GMT 39.891499 26.640320 37,000 146 500 0
2018-08-19 00:50:40 GMT 39.910538 26.623779 37,025 146 500 0
2018-08-19 00:50:30 GMT 39.931183 26.605774 37,000 146 500 64
2018-08-19 00:50:05 GMT 39.977692 26.565247 37,000 146 500 64
2018-08-19 00:49:58 GMT 39.991028 26.553581 37,000 146 500 64
2018-08-19 00:49:47 GMT 40.011292 26.535889 37,000 146 500 0
2018-08-19 00:49:37 GMT 40.031616 26.518127 37,000 146 500 64
2018-08-19 00:49:26 GMT 40.052940 26.499460 36,975 146 500 64
2018-08-19 00:49:16 GMT 40.071934 26.482544 37,000 144 501 0
2018-08-19 00:49:06 GMT 40.091675 26.463623 37,000 142 503 -64
2018-08-19 00:48:55 GMT 40.111176 26.443604 37,000 140 505 0
2018-08-19 00:48:45 GMT 40.130775 26.421993 37,000 138 507 0
2018-08-19 00:48:32 GMT 40.150654 26.398399 37,025 136 509 0
2018-08-19 00:48:21 GMT 40.169312 26.374695 37,025 132 513 64
2018-08-19 00:48:12 GMT 40.184078 26.354704 37,025 132 513 64
2018-08-19 00:48:02 GMT 40.200558 26.330919 37,000 131 515 64
2018-08-19 00:47:52 GMT 40.216965 26.306580 37,000 131 515 0
2018-08-19 00:47:41 GMT 40.233673 26.281738 37,025 131 515 0
2018-08-19 00:47:29 GMT 40.252441 26.253784 37,000 131 515 0
2018-08-19 00:47:20 GMT 40.266663 26.232544 37,000 131 515 0
2018-08-19 00:47:08 GMT 40.284958 26.205326 37,025 131 515 0
2018-08-19 00:46:58 GMT 40.300831 26.181606 37,025 131 514 64
2018-08-19 00:46:49 GMT 40.317265 26.157137 37,000 131 514 64
2018-08-19 00:46:38 GMT 40.333092 26.133478 37,000 131 514 64
2018-08-19 00:46:27 GMT 40.351063 26.106699 37,000 131 514 64
2018-08-19 00:46:18 GMT 40.363304 26.088409 37,000 131 514 64
2018-08-19 00:46:15 GMT 40.367981 26.081421 37,000 131 514 64
2018-08-19 00:46:07 GMT 40.382156 26.060196 37,000 131 513 64
2018-08-19 00:45:56 GMT 40.399200 26.034607 37,000 131 513 0
2018-08-19 00:45:50 GMT 40.408272 26.021055 37,000 131 513 0
2018-08-19 00:45:46 GMT 40.415588 26.010132 37,000 131 513 0
2018-08-19 00:45:35 GMT 40.431335 25.986572 37,000 131 513 64
2018-08-19 00:45:25 GMT 40.448170 25.961317 37,000 131 513 64
2018-08-19 00:45:13 GMT 40.464981 25.936096 37,000 130 512 0
2018-08-19 00:45:04 GMT 40.481644 25.911011 37,000 131 511 0
2018-08-19 00:44:53 GMT 40.498119 25.887159 37,000 133 509 0
2018-08-19 00:44:42 GMT 40.515621 25.863440 37,000 135 506 0
2018-08-19 00:44:28 GMT 40.540329 25.831604 37,000 135 504 0
2018-08-19 00:44:24 GMT 40.545185 25.825361 37,000 135 504 0
2018-08-19 00:44:17 GMT 40.557083 25.810059 37,000 135 504 0
2018-08-19 00:44:11 GMT 40.569214 25.794434 37,000 135 504 0
2018-08-19 00:44:05 GMT 40.576172 25.785461 37,000 135 504 0
2018-08-19 00:43:59 GMT 40.587593 25.770805 37,000 135 504 0
2018-08-19 00:43:53 GMT 40.596085 25.759888 36,975 135 504 64
2018-08-19 00:43:49 GMT 40.604164 25.749456 36,975 135 504 0
2018-08-19 00:43:35 GMT 40.627304 25.719604 36,975 135 504 0
2018-08-19 00:43:28 GMT 40.639114 25.704407 36,975 135 504 0
2018-08-19 00:43:17 GMT 40.656326 25.682190 36,975 135 503 64
2018-08-19 00:43:04 GMT 40.678928 25.652950 36,975 135 502 0
2018-08-19 00:42:57 GMT 40.691730 25.636347 36,975 135 502 0
2018-08-19 00:42:47 GMT 40.707233 25.616308 37,000 135 502 0
2018-08-19 00:42:42 GMT 40.714958 25.606321 36,975 135 502 0
2018-08-19 00:42:34 GMT 40.727760 25.589781 36,975 135 502 64
2018-08-19 00:42:25 GMT 40.744240 25.568369 36,975 135 502 0
2018-08-19 00:42:13 GMT 40.762482 25.544739 36,975 135 502 64
2018-08-19 00:42:05 GMT 40.776672 25.526306 36,975 135 502 64
2018-08-19 00:42:02 GMT 40.781845 25.519531 36,975 135 502 64
2018-08-19 00:41:52 GMT 40.797310 25.499454 36,975 135 502 0
2018-08-19 00:41:44 GMT 40.810204 25.482725 36,975 135 502 0
2018-08-19 00:41:34 GMT 40.827896 25.459818 36,975 135 502 0
2018-08-19 00:41:27 GMT 40.839478 25.444763 36,975 135 502 0
2018-08-19 00:41:24 GMT 40.844467 25.438280 36,975 135 502 64
2018-08-19 00:41:20 GMT 40.850521 25.430416 36,975 135 502 64
2018-08-19 00:41:13 GMT 40.862823 25.414368 36,975 135 502 64
2018-08-19 00:41:10 GMT 40.867558 25.408194 36,975 135 502 64
2018-08-19 00:41:03 GMT 40.879440 25.392700 36,975 135 502 64
2018-08-19 00:41:00 GMT 40.885162 25.385315 36,975 135 502 64
2018-08-19 00:40:52 GMT 40.896931 25.369928 36,950 135 502 0
2018-08-19 00:40:48 GMT 40.904526 25.360046 36,950 135 502 0
2018-08-19 00:40:42 GMT 40.913364 25.348455 36,950 135 502 0
2018-08-19 00:40:38 GMT 40.920822 25.338745 36,950 135 502 0
2018-08-19 00:40:32 GMT 40.930122 25.326607 36,975 135 502 0
2018-08-19 00:40:25 GMT 40.942017 25.311035 36,975 135 502 -64
2018-08-19 00:40:21 GMT 40.948334 25.302734 36,975 135 502 -64
2018-08-19 00:40:16 GMT 40.956799 25.291651 36,975 135 502 -64
2018-08-19 00:40:11 GMT 40.964859 25.281067 36,975 135 502 -64
2018-08-19 00:40:05 GMT 40.974930 25.267822 37,000 135 502 -64
2018-08-19 00:40:01 GMT 40.981339 25.259338 37,000 135 502 -64
2018-08-19 00:39:54 GMT 40.992550 25.244646 37,000 135 503 -64
2018-08-19 00:39:50 GMT 40.999161 25.235970 37,000 135 503 0
2018-08-19 00:39:44 GMT 41.009636 25.222176 37,000 135 503 0
2018-08-19 00:39:40 GMT 41.016525 25.213186 37,000 135 504 0
2018-08-19 00:39:33 GMT 41.027939 25.198242 37,000 135 504 -64
2018-08-19 00:39:29 GMT 41.033661 25.190796 37,000 135 504 64
2018-08-19 00:39:22 GMT 41.045387 25.175421 37,000 135 505 64
2018-08-19 00:39:18 GMT 41.051811 25.166994 37,000 135 505 64
2018-08-19 00:39:11 GMT 41.063599 25.151550 37,000 135 504 64
2018-08-19 00:39:07 GMT 41.070328 25.142700 37,000 135 505 0
2018-08-19 00:38:56 GMT 41.088402 25.118866 37,000 135 505 -64
2018-08-19 00:38:49 GMT 41.100494 25.102905 37,000 135 504 0
2018-08-19 00:38:46 GMT 41.106125 25.095520 37,025 135 504 0
2018-08-19 00:38:41 GMT 41.113586 25.085693 37,025 135 504 0
2018-08-19 00:38:35 GMT 41.124340 25.071487 37,025 135 504 0
2018-08-19 00:38:30 GMT 41.131741 25.061750 37,000 135 504 0
2018-08-19 00:38:25 GMT 41.140137 25.050659 37,000 135 504 0
2018-08-19 00:38:19 GMT 41.149521 25.038269 37,025 135 504 0
2018-08-19 00:38:14 GMT 41.157532 25.027605 37,025 135 504 0
2018-08-19 00:38:09 GMT 41.166687 25.015503 37,025 134 504 0
2018-08-19 00:38:04 GMT 41.174988 25.004507 37,025 135 504 64
2018-08-19 00:37:57 GMT 41.186508 24.989319 37,025 135 504 0
2018-08-19 00:37:53 GMT 41.192322 24.981567 37,025 135 504 0
2018-08-19 00:37:41 GMT 41.213490 24.953634 37,000 135 503 64
2018-08-19 00:37:36 GMT 41.221214 24.943335 37,000 135 503 64
2018-08-19 00:37:31 GMT 41.229034 24.933044 37,025 135 503 0
2018-08-19 00:37:25 GMT 41.239426 24.919250 37,000 135 503 0
2018-08-19 00:37:20 GMT 41.247005 24.909189 37,000 135 503 0
2018-08-19 00:37:13 GMT 41.259338 24.892822 37,025 134 502 64
2018-08-19 00:37:10 GMT 41.264091 24.886530 37,000 134 502 64
2018-08-19 00:37:00 GMT 41.280567 24.864620 37,000 134 502 64
2018-08-19 00:36:49 GMT 41.297699 24.841797 37,000 134 502 0
2018-08-19 00:36:42 GMT 41.309383 24.826294 37,000 134 502 0
2018-08-19 00:36:39 GMT 41.314362 24.819702 37,000 134 501 0
2018-08-19 00:36:29 GMT 41.331207 24.797241 37,000 134 501 0
2018-08-19 00:36:18 GMT 41.348907 24.773670 37,000 134 500 0
2018-08-19 00:36:07 GMT 41.367142 24.749390 37,000 134 499 0
2018-08-19 00:35:58 GMT 41.382099 24.729351 37,000 134 499 0
2018-08-19 00:35:47 GMT 41.399048 24.706692 37,000 134 499 0
2018-08-19 00:35:37 GMT 41.415619 24.684593 37,000 134 498 0
2018-08-19 00:35:26 GMT 41.434097 24.659836 37,000 134 497 0
2018-08-19 00:35:16 GMT 41.449413 24.639332 37,000 134 497 64
2018-08-19 00:35:06 GMT 41.466454 24.616465 36,975 134 497 0
2018-08-19 00:34:55 GMT 41.483551 24.593519 37,000 134 495 0
2018-08-19 00:34:45 GMT 41.499573 24.572046 37,000 134 494 0
2018-08-19 00:34:35 GMT 41.516190 24.549700 36,975 134 494 0
2018-08-19 00:34:24 GMT 41.533768 24.526018 37,025 131 494 -64
2018-08-19 00:34:14 GMT 41.550526 24.503471 37,000 134 492 0
2018-08-19 00:34:10 GMT 41.556297 24.495743 37,000 134 492 0
2018-08-19 00:34:05 GMT 41.564346 24.484966 37,000 134 492 0
2018-08-19 00:34:01 GMT 41.570251 24.476976 37,000 134 492 0
2018-08-19 00:33:57 GMT 41.578831 24.465212 37,000 133 493 0
2018-08-19 00:33:54 GMT 41.582600 24.459846 37,000 132 493 0
2018-08-19 00:33:51 GMT 41.586868 24.453756 37,000 132 493 0
2018-08-19 00:33:43 GMT 41.599503 24.435093 37,025 131 494 -64
2018-08-19 00:33:32 GMT 41.615887 24.410599 37,025 131 494 0
2018-08-19 00:33:23 GMT 41.629898 24.389585 37,025 131 493 64
2018-08-19 00:33:12 GMT 41.645771 24.365887 37,025 131 494 0
2018-08-19 00:33:02 GMT 41.661598 24.342127 37,025 131 494 64
2018-08-19 00:32:54 GMT 41.672958 24.325199 37,025 131 494 64
2018-08-19 00:32:49 GMT 41.681305 24.312681 37,000 131 494 64
2018-08-19 00:32:42 GMT 41.691254 24.297798 37,000 131 494 64
2018-08-19 00:32:26 GMT 41.717102 24.259062 37,000 131 494 0
2018-08-19 00:32:23 GMT 41.721085 24.253069 37,000 131 493 0
2018-08-19 00:32:14 GMT 41.734921 24.232264 37,000 131 494 0
2018-08-19 00:32:01 GMT 41.754456 24.202818 37,000 131 493 64
2018-08-19 00:31:50 GMT 41.771229 24.177523 37,000 131 493 0
2018-08-19 00:31:40 GMT 41.786682 24.154190 37,000 131 493 -64
2018-08-19 00:31:07 GMT 41.835983 24.079472 37,000 131 492 0
2018-08-19 00:30:58 GMT 41.849346 24.059164 37,000 131 490 0
2018-08-19 00:30:49 GMT 41.862762 24.038836 37,000 131 491 0
2018-08-19 00:30:41 GMT 41.874847 24.020544 37,000 131 490 64
2018-08-19 00:30:32 GMT 41.887749 24.001102 37,000 131 490 0
2018-08-19 00:30:05 GMT 41.929321 23.938086 37,000 131 489 64
2018-08-19 00:29:11 GMT 42.011856 23.812492 37,000 131 486 0
2018-08-19 00:28:57 GMT 42.030624 23.783777 37,000 131 485 64
2018-08-19 00:28:00 GMT 42.114925 23.654587 37,000 131 484 0
2018-08-19 00:27:52 GMT 42.127945 23.634712 37,000 131 484 0
2018-08-19 00:27:47 GMT 42.133942 23.625475 37,000 131 482 0
2018-08-19 00:27:37 GMT 42.149094 23.602253 37,000 131 481 0
2018-08-19 00:27:26 GMT 42.164551 23.578449 37,000 131 482 0
2018-08-19 00:27:03 GMT 42.198532 23.526035 37,000 131 482 -64
2018-08-19 00:26:58 GMT 42.205284 23.515596 37,000 131 482 -64
2018-08-19 00:26:25 GMT 42.254745 23.439268 37,000 131 481 64
2018-08-19 00:26:08 GMT 42.278835 23.402094 37,000 131 481 64
2018-08-19 00:25:59 GMT 42.293312 23.379673 37,000 131 481 0
2018-08-19 00:25:44 GMT 42.315033 23.346010 37,000 130 481 -64
2018-08-19 00:25:31 GMT 42.332611 23.318605 37,025 130 481 0
2018-08-19 00:25:25 GMT 42.342224 23.303625 37,000 130 479 0
2018-08-19 00:25:16 GMT 42.355637 23.282776 37,025 130 480 0
2018-08-19 00:25:13 GMT 42.359070 23.277409 37,025 130 480 0
2018-08-19 00:25:06 GMT 42.370029 23.260357 37,025 130 480 -64
2018-08-19 00:25:02 GMT 42.375011 23.252626 37,025 130 480 0
2018-08-19 00:24:53 GMT 42.389164 23.230591 37,025 130 480 64
2018-08-19 00:24:45 GMT 42.400681 23.212675 37,025 130 480 64
2018-08-19 00:24:42 GMT 42.403736 23.207916 37,025 130 480 0
2018-08-19 00:24:36 GMT 42.414322 23.191389 37,025 130 479 -64
2018-08-19 00:24:32 GMT 42.420502 23.181776 37,025 130 480 -64
2018-08-19 00:24:22 GMT 42.434235 23.160366 37,025 130 479 0
2018-08-19 00:24:12 GMT 42.448746 23.137644 37,025 130 479 64
2018-08-19 00:24:05 GMT 42.459412 23.120983 37,025 130 479 64
2018-08-19 00:23:57 GMT 42.470444 23.103748 37,000 130 479 64
2018-08-19 00:23:54 GMT 42.474171 23.097860 37,000 130 479 64
2018-08-19 00:23:47 GMT 42.484360 23.082026 37,000 130 479 64
2018-08-19 00:23:44 GMT 42.488739 23.075123 37,000 130 479 0
2018-08-19 00:23:41 GMT 42.493240 23.068106 37,000 130 479 0
2018-08-19 00:23:37 GMT 42.500378 23.056917 37,000 130 479 0
2018-08-19 00:23:32 GMT 42.506882 23.046757 37,000 130 479 0
2018-08-19 00:23:22 GMT 42.520161 23.026003 37,000 130 478 0
2018-08-19 00:23:11 GMT 42.538223 22.997578 37,000 130 477 64
2018-08-19 00:23:03 GMT 42.548931 22.980843 37,000 130 477 64
2018-08-19 00:22:51 GMT 42.564651 22.956182 37,000 130 477 64
2018-08-19 00:22:39 GMT 42.582138 22.928654 36,975 130 476 64
2018-08-19 00:22:30 GMT 42.597107 22.905184 36,975 130 476 64
2018-08-19 00:22:19 GMT 42.611160 22.883022 36,975 130 475 0
2018-08-19 00:22:10 GMT 42.624626 22.861847 36,975 130 475 -64
2018-08-19 00:22:07 GMT 42.628418 22.855806 36,975 130 475 -64
2018-08-19 00:21:59 GMT 42.640686 22.836519 36,975 130 473 0
2018-08-19 00:21:48 GMT 42.655582 22.813046 36,975 130 473 0
2018-08-19 00:21:38 GMT 42.670059 22.790115 36,975 130 472 64
2018-08-19 00:21:28 GMT 42.684906 22.766542 36,975 130 472 0
2018-08-19 00:21:17 GMT 42.700058 22.742512 36,975 130 472 0
2018-08-19 00:21:07 GMT 42.713425 22.721413 36,975 130 471 0
2018-08-19 00:20:58 GMT 42.728577 22.697378 37,000 130 471 -64
2018-08-19 00:20:46 GMT 42.744125 22.672714 37,000 130 470 0
2018-08-19 00:20:38 GMT 42.756546 22.653061 37,000 130 470 -64
2018-08-19 00:20:35 GMT 42.759979 22.647566 37,000 130 470 -64
2018-08-19 00:20:26 GMT 42.771961 22.628513 37,000 130 470 -64
2018-08-19 00:20:20 GMT 42.781448 22.613420 37,000 130 469 0
2018-08-19 00:20:16 GMT 42.786766 22.605009 37,000 130 469 0
2018-08-19 00:20:10 GMT 42.795731 22.590700 37,000 130 470 0
2018-08-19 00:20:05 GMT 42.802277 22.580275 37,000 130 469 0
2018-08-19 00:19:55 GMT 42.817074 22.556698 37,000 130 470 0
2018-08-19 00:17:42 GMT 43.005936 22.254404 36,975 130 474 0
2018-08-19 00:17:17 GMT 43.039673 22.200048 36,975 130 473 0
2018-08-19 00:17:10 GMT 43.049507 22.184275 37,000 130 473 0
2018-08-19 00:16:58 GMT 43.066406 22.156939 37,000 130 472 0
2018-08-19 00:16:50 GMT 43.077904 22.138432 37,000 130 472 -64
2018-08-19 00:16:41 GMT 43.092152 22.115414 37,000 130 471 0
2018-08-19 00:16:29 GMT 43.107559 22.090441 37,000 130 471 0
2018-08-19 00:16:19 GMT 43.121338 22.068213 37,000 130 471 0
2018-08-19 00:16:09 GMT 43.137493 22.041975 37,000 130 471 0
2018-08-19 00:15:58 GMT 43.150574 22.020786 37,000 130 471 -64
2018-08-19 00:15:48 GMT 43.164677 21.997898 37,000 130 470 0
2018-08-19 00:15:38 GMT 43.180115 21.972784 37,000 130 470 64
2018-08-19 00:15:27 GMT 43.193939 21.950363 37,000 130 471 0
2018-08-19 00:15:16 GMT 43.209370 21.925245 37,000 130 471 0
2018-08-19 00:15:07 GMT 43.223099 21.902779 37,000 129 469 0
2018-08-19 00:14:55 GMT 43.239807 21.875504 37,000 129 470 -64
2018-08-19 00:14:45 GMT 43.252716 21.854425 37,000 129 470 -128
2018-08-19 00:14:38 GMT 43.263603 21.836571 37,025 129 470 0
2018-08-19 00:14:35 GMT 43.266678 21.831558 37,025 129 470 64
2018-08-19 00:14:25 GMT 43.281830 21.806774 37,000 130 472 64
2018-08-19 00:14:14 GMT 43.297028 21.781965 37,000 129 475 0
2018-08-19 00:14:05 GMT 43.311539 21.758230 37,000 129 475 0
2018-08-19 00:13:53 GMT 43.326370 21.733894 37,000 129 475 0
2018-08-19 00:13:43 GMT 43.340469 21.710709 37,000 129 473 0
2018-08-19 00:13:34 GMT 43.354706 21.687330 37,000 129 473 0
2018-08-19 00:13:31 GMT 43.358940 21.680342 37,000 129 473 0
2018-08-19 00:13:23 GMT 43.368759 21.664272 37,000 129 472 64
2018-08-19 00:13:12 GMT 43.385101 21.637445 37,000 129 472 0
2018-08-19 00:13:02 GMT 43.397720 21.616777 37,000 129 468 64
2018-08-19 00:12:58 GMT 43.404877 21.605061 37,000 129 468 64
2018-08-19 00:12:53 GMT 43.410370 21.595991 37,000 129 471 0
2018-08-19 00:12:50 GMT 43.414291 21.589573 37,000 129 470 0
2018-08-19 00:12:44 GMT 43.422855 21.575382 37,000 129 470 0
2018-08-19 00:12:38 GMT 43.431610 21.560995 37,000 129 470 0
2018-08-19 00:12:34 GMT 43.437008 21.552101 37,000 129 470 64
2018-08-19 00:12:31 GMT 43.441132 21.545340 37,000 129 470 64
2018-08-19 00:12:24 GMT 43.451115 21.528887 37,000 129 469 0
2018-08-19 00:12:17 GMT 43.462784 21.509697 37,000 129 468 64
2018-08-19 00:12:13 GMT 43.466217 21.504013 37,000 129 469 0
2018-08-19 00:12:05 GMT 43.476929 21.486320 37,000 129 468 64
2018-08-19 00:12:00 GMT 43.483932 21.474739 37,000 129 467 0
2018-08-19 00:11:51 GMT 43.497162 21.452850 37,000 129 467 0
2018-08-19 00:11:42 GMT 43.508793 21.433607 37,000 129 466 64
2018-08-19 00:11:35 GMT 43.519501 21.415930 37,000 129 465 -64
2018-08-19 00:11:32 GMT 43.522480 21.410915 36,975 129 465 0
2018-08-19 00:11:22 GMT 43.536259 21.388092 37,000 129 465 -64
2018-08-19 00:11:12 GMT 43.551132 21.363298 37,025 129 465 -64
2018-08-19 00:11:09 GMT 43.555206 21.356527 37,025 129 465 -64
2018-08-19 00:10:58 GMT 43.569916 21.332113 37,000 129 464 0
2018-08-19 00:10:50 GMT 43.581089 21.313541 37,025 129 464 0
2018-08-19 00:10:45 GMT 43.587936 21.302107 37,025 129 464 0
2018-08-19 00:10:39 GMT 43.596130 21.288502 37,000 129 464 64
2018-08-19 00:10:36 GMT 43.600220 21.281694 37,000 129 464 64
2018-08-19 00:10:31 GMT 43.607300 21.269852 37,000 129 465 0
2018-08-19 00:10:21 GMT 43.620804 21.247303 37,025 129 464 -64
2018-08-19 00:10:09 GMT 43.637100 21.220030 37,025 129 464 0
2018-08-19 00:09:58 GMT 43.651848 21.195309 37,025 129 463 64
2018-08-19 00:09:50 GMT 43.663021 21.176670 37,025 129 463 64
2018-08-19 00:09:40 GMT 43.676006 21.154961 37,000 129 463 0
2018-08-19 00:09:28 GMT 43.692768 21.126970 37,025 129 463 0
2018-08-19 00:09:13 GMT 43.713272 21.092665 37,000 129 462 64
2018-08-19 00:09:07 GMT 43.721329 21.079123 37,000 129 463 64
2018-08-19 00:08:58 GMT 43.733593 21.058567 36,975 129 463 64
2018-08-19 00:08:54 GMT 43.739410 21.048824 36,975 129 462 64
2018-08-19 00:08:47 GMT 43.750118 21.030907 36,975 129 461 0
2018-08-19 00:08:39 GMT 43.759186 21.015696 36,975 129 461 0
2018-08-19 00:08:32 GMT 43.768414 21.000235 36,975 129 461 0
2018-08-19 00:08:28 GMT 43.773861 20.991079 36,975 129 459 0
2018-08-19 00:08:18 GMT 43.787781 20.967733 36,975 129 459 64
2018-08-19 00:08:08 GMT 43.801327 20.944977 36,975 129 459 0
2018-08-19 00:07:51 GMT 43.823730 20.907238 36,975 129 458 0
2018-08-19 00:07:47 GMT 43.829041 20.898296 36,975 129 458 0
2018-08-19 00:07:32 GMT 43.850647 20.861824 36,975 129 457 0
2018-08-19 00:07:25 GMT 43.859711 20.846495 36,975 129 456 -64
2018-08-19 00:07:14 GMT 43.873810 20.822689 36,975 129 456 -64
2018-08-19 00:07:07 GMT 43.883835 20.805805 37,000 129 456 -64
2018-08-19 00:07:01 GMT 43.891964 20.792019 37,000 129 456 -64
2018-08-19 00:06:54 GMT 43.901039 20.776651 37,000 129 456 0
2018-08-19 00:06:45 GMT 43.912216 20.757645 37,000 129 456 0
2018-08-19 00:06:38 GMT 43.922035 20.741011 37,000 129 456 0
2018-08-19 00:06:33 GMT 43.928833 20.729477 37,000 129 456 0
2018-08-19 00:06:25 GMT 43.939270 20.711847 37,000 129 456 64
2018-08-19 00:06:15 GMT 43.953049 20.688469 37,000 129 456 0
2018-08-19 00:06:04 GMT 43.967659 20.663649 37,000 129 456 64
2018-08-19 00:05:53 GMT 43.982346 20.638712 36,975 129 457 64
2018-08-19 00:05:44 GMT 43.994240 20.618462 36,975 129 457 0
2018-08-19 00:05:33 GMT 44.009033 20.593296 36,975 129 458 64
2018-08-19 00:05:23 GMT 44.022961 20.569546 36,975 129 458 0
2018-08-19 00:05:13 GMT 44.035538 20.548075 36,975 128 457 0
2018-08-19 00:05:00 GMT 44.052753 20.518602 36,975 128 457 -64
2018-08-19 00:04:56 GMT 44.058201 20.509251 36,975 129 458 0
2018-08-19 00:04:49 GMT 44.067535 20.493334 36,975 129 458 64
2018-08-19 00:04:41 GMT 44.078156 20.475130 36,975 129 458 0
2018-08-19 00:04:38 GMT 44.082317 20.468052 36,975 129 458 0
2018-08-19 00:04:33 GMT 44.089645 20.455585 36,975 129 458 64
2018-08-19 00:04:22 GMT 44.103355 20.432085 36,975 129 458 -64
2018-08-19 00:04:12 GMT 44.116486 20.409525 36,975 128 457 0
2018-08-19 00:04:02 GMT 44.130173 20.386047 36,975 128 458 -64
2018-08-19 00:03:51 GMT 44.144852 20.360668 36,975 128 458 0
2018-08-19 00:03:41 GMT 44.158035 20.337994 37,000 128 458 0
2018-08-19 00:03:31 GMT 44.172272 20.313465 37,000 128 458 0
2018-08-19 00:03:20 GMT 44.186127 20.289591 37,000 128 459 0
2018-08-19 00:03:11 GMT 44.198593 20.268076 37,000 128 459 0
2018-08-19 00:03:03 GMT 44.209488 20.249308 37,000 128 460 -128
2018-08-19 00:03:00 GMT 44.213547 20.242310 37,025 128 461 -192
2018-08-19 00:02:53 GMT 44.222855 20.226288 37,025 128 460 0
2018-08-19 00:02:50 GMT 44.226906 20.219332 37,025 128 460 0
2018-08-19 00:02:45 GMT 44.233521 20.207848 37,025 128 460 0
2018-08-19 00:02:40 GMT 44.240173 20.196423 37,025 128 460 0
2018-08-19 00:02:31 GMT 44.253815 20.172840 37,025 128 461 0
2018-08-19 00:02:28 GMT 44.256516 20.168219 37,025 128 462 0
2018-08-19 00:02:19 GMT 44.267990 20.148336 37,025 128 462 0
2018-08-19 00:02:09 GMT 44.281128 20.125645 37,025 128 462 64
2018-08-19 00:01:59 GMT 44.294815 20.101908 37,000 128 462 0
2018-08-19 00:01:52 GMT 44.304321 20.085352 37,000 128 462 0
2018-08-19 00:01:47 GMT 44.313034 20.070190 37,000 128 462 64
2018-08-19 00:01:36 GMT 44.325600 20.048374 37,000 128 461 0
2018-08-19 00:01:26 GMT 44.338863 20.025263 37,000 128 461 0
2018-08-19 00:01:16 GMT 44.352272 20.001949 37,000 128 460 0
2018-08-19 00:01:07 GMT 44.365631 19.978840 37,000 128 459 0
2018-08-19 00:00:57 GMT 44.378666 19.956062 37,000 128 459 0
2018-08-19 00:00:45 GMT 44.393005 19.931030 37,000 128 458 0
2018-08-19 00:00:35 GMT 44.407856 19.905016 37,000 128 458 0
2018-08-19 00:00:25 GMT 44.420288 19.883291 37,000 128 458 -64
2018-08-19 00:00:15 GMT 44.434296 19.858793 37,000 128 457 64
2018-08-19 00:00:05 GMT 44.448215 19.834476 37,000 128 458 0
2018-08-18 23:59:54 GMT 44.461483 19.811296 37,000 128 458 64
2018-08-18 23:59:44 GMT 44.475494 19.786835 37,000 128 458 0
2018-08-18 23:59:36 GMT 44.484295 19.771372 37,000 128 456 64
2018-08-18 23:59:33 GMT 44.488953 19.763227 37,000 128 456 0
2018-08-18 23:59:23 GMT 44.502636 19.739283 37,000 128 454 -64
2018-08-18 23:59:12 GMT 44.515995 19.715771 37,025 128 451 -64
2018-08-18 23:59:03 GMT 44.528847 19.693127 37,000 128 449 64
2018-08-18 23:58:52 GMT 44.542625 19.668877 37,000 128 450 0
2018-08-18 23:58:42 GMT 44.555473 19.646301 37,000 128 450 0
2018-08-18 23:58:31 GMT 44.569153 19.622236 37,000 128 449 0
2018-08-18 23:58:22 GMT 44.581879 19.599806 37,000 128 449 0
2018-08-18 23:58:12 GMT 44.595062 19.576525 37,000 128 448 0
2018-08-18 23:58:01 GMT 44.608612 19.552525 37,000 128 447 0
2018-08-18 23:57:51 GMT 44.621246 19.530094 37,000 128 447 64
2018-08-18 23:57:40 GMT 44.635029 19.505623 37,000 128 445 -64
2018-08-18 23:57:31 GMT 44.647018 19.484385 37,000 128 443 0
2018-08-18 23:57:24 GMT 44.654861 19.470387 37,000 128 441 0
2018-08-18 23:57:21 GMT 44.660263 19.460806 37,000 128 441 0
2018-08-18 23:57:10 GMT 44.673485 19.437292 37,000 128 439 0
2018-08-18 23:57:03 GMT 44.683399 19.419676 37,000 128 437 64
2018-08-18 23:57:00 GMT 44.686096 19.414850 37,000 128 436 0
2018-08-18 23:56:52 GMT 44.695969 19.397301 37,000 128 434 0
2018-08-18 23:56:49 GMT 44.699158 19.391720 37,000 128 433 0
2018-08-18 23:56:39 GMT 44.711884 19.369093 37,000 128 431 0
2018-08-18 23:56:32 GMT 44.721817 19.351501 37,000 128 429 192
2018-08-18 23:56:29 GMT 44.724197 19.347252 37,000 128 428 256
2018-08-18 23:56:21 GMT 44.734177 19.329529 36,950 128 427 576
2018-08-18 23:56:18 GMT 44.737865 19.323008 36,925 128 427 704
2018-08-18 23:56:11 GMT 44.746719 19.307228 36,775 128 428 896
2018-08-18 23:56:07 GMT 44.750610 19.300297 36,775 128 428 896
2018-08-18 23:56:00 GMT 44.760117 19.283352 36,625 128 430 960
2018-08-18 23:55:57 GMT 44.763748 19.276821 36,600 128 430 960
2018-08-18 23:55:47 GMT 44.775970 19.254978 36,425 128 431 1024
2018-08-18 23:55:37 GMT 44.788376 19.232809 36,250 128 432 1152
2018-08-18 23:55:27 GMT 44.800964 19.210379 36,050 128 435 1408
2018-08-18 23:55:16 GMT 44.814789 19.185659 35,800 128 438 1408
2018-08-18 23:55:05 GMT 44.829105 19.159954 35,525 128 440 1344
2018-08-18 23:54:56 GMT 44.839581 19.141197 35,325 128 442 1024
2018-08-18 23:54:53 GMT 44.842667 19.135698 35,325 128 442 1024
2018-08-18 23:54:45 GMT 44.852646 19.117781 35,200 128 443 960
2018-08-18 23:54:40 GMT 44.859180 19.106094 35,100 128 443 896
2018-08-18 23:54:34 GMT 44.867233 19.091694 35,025 128 443 576
2018-08-18 23:54:31 GMT 44.870453 19.085869 35,025 128 443 320
2018-08-18 23:54:25 GMT 44.878693 19.071154 35,000 128 442 64
2018-08-18 23:54:20 GMT 44.885468 19.058926 35,000 128 442 64
2018-08-18 23:54:14 GMT 44.892555 19.046207 35,000 128 443 0
2018-08-18 23:54:11 GMT 44.896225 19.039568 35,000 128 443 0
2018-08-18 23:54:04 GMT 44.904987 19.023832 35,000 127 442 0
2018-08-18 23:54:01 GMT 44.910736 19.013411 35,000 127 442 0
2018-08-18 23:53:54 GMT 44.917835 19.000654 35,000 128 443 0
2018-08-18 23:53:46 GMT 44.927982 18.982365 35,000 128 443 0
2018-08-18 23:53:43 GMT 44.931152 18.976593 35,000 128 443 -64
2018-08-18 23:53:39 GMT 44.936920 18.966261 35,000 128 443 0
2018-08-18 23:53:33 GMT 44.943787 18.953901 35,000 128 443 0
2018-08-18 23:53:27 GMT 44.952072 18.938927 35,000 128 443 0
2018-08-18 23:53:22 GMT 44.958012 18.928238 35,000 127 442 0
2018-08-18 23:53:16 GMT 44.965412 18.914841 35,000 127 443 0
2018-08-18 23:53:12 GMT 44.970394 18.905863 35,000 127 443 0
2018-08-18 23:53:06 GMT 44.978584 18.890991 35,000 127 443 0
2018-08-18 23:53:02 GMT 44.982964 18.883085 35,000 127 443 0
2018-08-18 23:52:50 GMT 44.997810 18.856224 35,000 127 443 0
2018-08-18 23:52:45 GMT 45.004807 18.843515 35,000 127 444 0
2018-08-18 23:52:41 GMT 45.009476 18.835012 35,000 127 444 0
2018-08-18 23:52:33 GMT 45.019455 18.816963 35,000 127 444 0
2018-08-18 23:52:30 GMT 45.023975 18.808727 35,000 127 444 0
2018-08-18 23:52:23 GMT 45.033100 18.792181 35,000 127 443 0
2018-08-18 23:52:20 GMT 45.035564 18.787760 35,000 127 444 0
2018-08-18 23:52:15 GMT 45.043804 18.772821 35,000 127 444 -64
2018-08-18 23:52:12 GMT 45.046227 18.768400 35,000 127 444 -64
2018-08-18 23:52:09 GMT 45.050743 18.760227 35,000 127 444 -64
2018-08-18 23:52:04 GMT 45.056515 18.749710 35,025 127 444 -64
2018-08-18 23:52:00 GMT 45.060936 18.741737 35,025 127 445 0
2018-08-18 23:51:51 GMT 45.074066 18.717823 35,025 127 444 0
2018-08-18 23:51:48 GMT 45.076019 18.714272 35,025 127 444 0
2018-08-18 23:51:43 GMT 45.082626 18.702263 35,025 127 445 0
2018-08-18 23:51:39 GMT 45.087479 18.693369 35,025 127 445 0
2018-08-18 23:51:34 GMT 45.093895 18.681715 35,025 127 444 0
2018-08-18 23:51:31 GMT 45.098282 18.673683 35,025 127 445 0
2018-08-18 23:51:28 GMT 45.101902 18.667044 35,025 127 445 0
2018-08-18 23:51:22 GMT 45.108978 18.654182 35,025 127 447 -64
2018-08-18 23:51:19 GMT 45.113571 18.645826 35,000 127 445 64
2018-08-18 23:51:13 GMT 45.121876 18.630669 35,000 127 446 64
2018-08-18 23:51:09 GMT 45.126762 18.621759 35,000 127 446 0
2018-08-18 23:51:02 GMT 45.135139 18.606485 35,000 127 447 -64
2018-08-18 23:50:58 GMT 45.140076 18.597443 35,000 127 447 -64
2018-08-18 23:50:51 GMT 45.148315 18.582329 35,025 127 447 -64
2018-08-18 23:50:46 GMT 45.156281 18.567745 35,025 127 447 0
2018-08-18 23:50:41 GMT 45.161224 18.558720 35,025 127 447 0
2018-08-18 23:50:37 GMT 45.166985 18.548204 35,000 127 447 64
2018-08-18 23:50:31 GMT 45.174225 18.534983 35,000 127 447 0
2018-08-18 23:50:27 GMT 45.178345 18.527395 35,000 127 447 0
2018-08-18 23:50:24 GMT 45.183426 18.518045 35,000 127 447 0
2018-08-18 23:50:18 GMT 45.190399 18.505331 35,000 127 447 64
2018-08-18 23:50:15 GMT 45.194000 18.498753 35,000 127 447 64
2018-08-18 23:50:10 GMT 45.200912 18.486067 35,000 127 447 0
2018-08-18 23:50:05 GMT 45.206772 18.475277 35,000 127 447 0
2018-08-18 23:49:59 GMT 45.214279 18.461477 35,000 127 447 64
2018-08-18 23:49:53 GMT 45.221924 18.447353 35,000 127 447 64
2018-08-18 23:49:50 GMT 45.227501 18.437202 35,000 127 447 0
2018-08-18 23:49:44 GMT 45.232994 18.427019 35,000 127 447 0
2018-08-18 23:49:33 GMT 45.247749 18.399956 35,000 127 447 -64
2018-08-18 23:49:24 GMT 45.260056 18.377316 35,000 127 447 -64
2018-08-18 23:49:13 GMT 45.272644 18.354164 35,000 127 446 -64
2018-08-18 23:49:03 GMT 45.286156 18.329283 35,025 127 447 -64
2018-08-18 23:48:52 GMT 45.299286 18.304964 35,025 127 447 -64
2018-08-18 23:48:46 GMT 45.305943 18.292639 35,025 127 447 0
2018-08-18 23:48:41 GMT 45.313065 18.279484 35,025 127 446 0
2018-08-18 23:48:36 GMT 45.318462 18.269527 35,025 127 446 0
2018-08-18 23:48:30 GMT 45.327301 18.253262 35,025 127 447 0
2018-08-18 23:48:25 GMT 45.332382 18.243843 35,025 127 447 64
2018-08-18 23:48:20 GMT 45.340393 18.229000 35,025 127 447 64
2018-08-18 23:48:14 GMT 45.346813 18.217140 35,025 127 447 0
2018-08-18 23:48:09 GMT 45.353470 18.204748 35,025 127 447 0
2018-08-18 23:48:05 GMT 45.357330 18.197676 35,025 127 447 0
2018-08-18 23:48:00 GMT 45.364178 18.184986 35,025 127 447 64
2018-08-18 23:47:55 GMT 45.370926 18.172499 35,025 127 447 64
2018-08-18 23:47:47 GMT 45.382370 18.151245 35,000 127 447 64
2018-08-18 23:47:44 GMT 45.383778 18.148609 35,000 127 447 64
2018-08-18 23:47:40 GMT 45.389923 18.137251 35,000 127 447 64
2018-08-18 23:47:36 GMT 45.394203 18.129250 35,000 127 447 64
2018-08-18 23:47:29 GMT 45.402832 18.113186 35,000 127 447 0
2018-08-18 23:47:24 GMT 45.409428 18.100912 35,000 127 447 -64
2018-08-18 23:47:18 GMT 45.417107 18.086645 35,000 127 447 0
2018-08-18 23:47:14 GMT 45.422230 18.077065 35,000 127 446 64
2018-08-18 23:47:11 GMT 45.425812 18.070417 35,000 127 446 64
2018-08-18 23:47:04 GMT 45.435242 18.052826 35,000 127 446 64
2018-08-18 23:46:59 GMT 45.441780 18.040689 35,000 127 446 64
2018-08-18 23:46:53 GMT 45.448608 18.027975 35,000 127 446 0
2018-08-18 23:46:45 GMT 45.458771 18.009077 35,000 127 447 -64
2018-08-18 23:46:40 GMT 45.465408 17.996717 35,000 127 447 0
2018-08-18 23:46:35 GMT 45.472553 17.983347 35,000 127 446 0
2018-08-18 23:46:32 GMT 45.475571 17.977621 35,000 127 446 0
2018-08-18 23:46:27 GMT 45.480972 17.967550 35,000 127 446 0
2018-08-18 23:46:24 GMT 45.485184 17.959703 35,000 127 446 -64
2018-08-18 23:46:20 GMT 45.489544 17.951527 35,000 127 446 -64
2018-08-18 23:46:14 GMT 45.498825 17.934134 35,000 127 446 -64
2018-08-18 23:46:10 GMT 45.504021 17.924461 35,000 127 446 0
2018-08-18 23:46:06 GMT 45.507843 17.917261 35,000 127 446 0
2018-08-18 23:46:02 GMT 45.511936 17.909658 35,000 127 446 0
2018-08-18 23:45:59 GMT 45.516453 17.901217 35,000 127 447 0
2018-08-18 23:45:56 GMT 45.520081 17.894384 35,000 127 448 0
2018-08-18 23:45:51 GMT 45.525787 17.883650 35,000 127 448 0
2018-08-18 23:45:45 GMT 45.533844 17.868608 35,000 127 449 0
2018-08-18 23:45:41 GMT 45.538376 17.860107 35,000 127 449 0
2018-08-18 23:45:35 GMT 45.545929 17.845852 35,000 127 450 0
2018-08-18 23:45:31 GMT 45.550827 17.836706 35,000 127 450 64
2018-08-18 23:45:27 GMT 45.557091 17.824905 35,000 127 450 128
2018-08-18 23:45:24 GMT 45.560394 17.818752 35,000 127 450 64
2018-08-18 23:45:21 GMT 45.563782 17.812321 34,975 127 450 0
2018-08-18 23:45:14 GMT 45.572498 17.795998 35,000 127 451 0
2018-08-18 23:45:10 GMT 45.577061 17.787415 35,000 127 451 64
2018-08-18 23:45:02 GMT 45.588001 17.766884 35,000 127 449 0
2018-08-18 23:44:59 GMT 45.590698 17.761810 35,000 127 449 0
2018-08-18 23:44:53 GMT 45.598984 17.746269 35,000 127 447 0
2018-08-18 23:44:48 GMT 45.604809 17.735161 35,000 127 447 0
2018-08-18 23:44:43 GMT 45.612766 17.720192 35,000 127 446 0
2018-08-18 23:44:39 GMT 45.615829 17.714516 35,000 127 446 0
2018-08-18 23:44:31 GMT 45.625809 17.695625 35,000 127 444 0
2018-08-18 23:44:28 GMT 45.629433 17.688744 35,000 127 444 -64
2018-08-18 23:44:21 GMT 45.638763 17.671106 35,000 127 444 -64
2018-08-18 23:44:18 GMT 45.641769 17.665466 35,000 127 444 -64
2018-08-18 23:44:10 GMT 45.652245 17.645691 35,025 127 444 -128
2018-08-18 23:44:07 GMT 45.655518 17.639488 35,025 127 444 -128
2018-08-18 23:43:59 GMT 45.665955 17.619726 35,025 126 445 0
2018-08-18 23:43:56 GMT 45.669792 17.612526 35,025 127 449 128
2018-08-18 23:43:49 GMT 45.680080 17.593094 35,000 127 449 128
2018-08-18 23:43:43 GMT 45.686325 17.581274 34,975 127 451 64
2018-08-18 23:43:37 GMT 45.693146 17.568411 34,975 126 455 -128
2018-08-18 23:43:34 GMT 45.697678 17.559860 35,000 126 457 -64
2018-08-18 23:43:27 GMT 45.707268 17.541664 35,025 126 457 -64
2018-08-18 23:43:22 GMT 45.712852 17.531090 35,025 126 457 -64
2018-08-18 23:43:17 GMT 45.719330 17.518772 35,025 126 457 0
2018-08-18 23:43:10 GMT 45.727516 17.503212 35,025 126 457 64
2018-08-18 23:43:07 GMT 45.732918 17.492912 35,025 126 457 64
2018-08-18 23:43:01 GMT 45.738693 17.481995 35,025 126 459 0
2018-08-18 23:42:56 GMT 45.746979 17.466251 35,025 126 459 0
2018-08-18 23:42:50 GMT 45.752705 17.455421 35,025 126 459 0
2018-08-18 23:42:44 GMT 45.760429 17.440727 35,025 126 460 0
2018-08-18 23:42:39 GMT 45.767670 17.426863 35,025 126 460 0
2018-08-18 23:42:36 GMT 45.771370 17.419853 35,025 126 460 0
2018-08-18 23:42:31 GMT 45.777008 17.409042 35,025 126 460 -64
2018-08-18 23:42:27 GMT 45.783661 17.396439 35,025 126 460 0
2018-08-18 23:42:19 GMT 45.793625 17.377419 35,025 126 460 -64
2018-08-18 23:42:16 GMT 45.796928 17.371033 35,025 126 460 -64
2018-08-18 23:42:12 GMT 45.801304 17.362724 35,025 126 460 -64
2018-08-18 23:42:06 GMT 45.810699 17.344732 35,025 126 460 -64
2018-08-18 23:42:03 GMT 45.813858 17.338770 35,025 126 460 0
2018-08-18 23:41:58 GMT 45.820530 17.325989 35,025 126 460 0
2018-08-18 23:41:53 GMT 45.826080 17.315392 35,050 126 460 0
2018-08-18 23:41:50 GMT 45.829979 17.307930 35,025 126 460 0
2018-08-18 23:41:45 GMT 45.835968 17.296432 35,025 126 460 0
2018-08-18 23:41:42 GMT 45.840595 17.287605 35,025 126 460 0
2018-08-18 23:41:35 GMT 45.848881 17.271812 35,025 126 461 0
2018-08-18 23:41:31 GMT 45.854599 17.260794 35,025 126 461 0
2018-08-18 23:41:23 GMT 45.866196 17.238579 35,025 126 461 0
2018-08-18 23:41:20 GMT 45.867966 17.235214 35,025 126 461 0
2018-08-18 23:41:14 GMT 45.876205 17.219353 35,025 126 461 64
2018-08-18 23:41:10 GMT 45.881329 17.209534 35,025 126 461 64
2018-08-18 23:41:03 GMT 45.889847 17.193192 35,025 126 461 64
2018-08-18 23:40:59 GMT 45.894882 17.183489 35,025 126 461 64
2018-08-18 23:40:52 GMT 45.904045 17.165863 35,000 126 461 64
2018-08-18 23:40:49 GMT 45.907928 17.158434 35,025 126 461 64
2018-08-18 23:40:42 GMT 45.918663 17.137848 35,000 126 461 128
2018-08-18 23:40:39 GMT 45.921177 17.132904 35,000 126 461 128
2018-08-18 23:40:24 GMT 45.946335 17.084476 34,975 126 460 64
2018-08-18 23:40:17 GMT 45.949478 17.078384 34,975 126 460 0
2018-08-18 23:40:08 GMT 45.959629 17.058815 34,975 125 455 -64
2018-08-18 23:40:03 GMT 45.965836 17.046963 34,975 126 459 -64
2018-08-18 23:39:59 GMT 45.972523 17.034096 34,975 126 458 -128
2018-08-18 23:39:56 GMT 45.975826 17.027779 34,975 126 458 -128
2018-08-18 23:39:47 GMT 45.986389 17.007505 35,000 126 457 -192
2018-08-18 23:39:43 GMT 45.991562 16.997322 35,025 126 457 -192
2018-08-18 23:39:36 GMT 46.000687 16.978821 35,025 124 455 -64
2018-08-18 23:39:32 GMT 46.005341 16.969002 35,025 124 455 -64
2018-08-18 23:39:24 GMT 46.014652 16.949158 35,025 124 455 0
2018-08-18 23:39:17 GMT 46.023590 16.930138 35,025 123 456 0
2018-08-18 23:39:14 GMT 46.026569 16.923820 35,025 123 456 0
2018-08-18 23:39:07 GMT 46.034637 16.906551 35,025 123 456 0
2018-08-18 23:39:04 GMT 46.038116 16.899033 35,025 123 456 64
2018-08-18 23:39:00 GMT 46.042957 16.888733 35,025 123 456 64
2018-08-18 23:38:57 GMT 46.047333 16.879395 35,025 123 457 64
2018-08-18 23:38:54 GMT 46.049473 16.874794 35,025 123 456 64
2018-08-18 23:38:51 GMT 46.054176 16.864700 35,025 123 457 64
2018-08-18 23:38:41 GMT 46.064575 16.842443 35,025 123 457 0
2018-08-18 23:38:35 GMT 46.072495 16.825495 35,000 123 458 0
2018-08-18 23:38:32 GMT 46.077404 16.814919 35,000 123 457 0
2018-08-18 23:38:21 GMT 46.090019 16.787796 35,000 123 457 0
2018-08-18 23:38:18 GMT 46.092209 16.783127 35,000 123 457 0
2018-08-18 23:38:14 GMT 46.098083 16.770563 35,000 123 458 0
2018-08-18 23:38:09 GMT 46.103027 16.759979 35,000 123 458 0
2018-08-18 23:38:02 GMT 46.112877 16.738770 35,000 123 457 0
2018-08-18 23:37:59 GMT 46.114655 16.734924 35,000 123 457 0
2018-08-18 23:37:56 GMT 46.118137 16.727440 35,000 123 457 0
2018-08-18 23:37:53 GMT 46.121475 16.720255 35,000 123 457 0
2018-08-18 23:37:49 GMT 46.126694 16.709066 35,000 123 457 -64
2018-08-18 23:37:40 GMT 46.136944 16.686996 35,000 123 457 0
2018-08-18 23:37:37 GMT 46.142067 16.675941 35,000 123 457 0
2018-08-18 23:37:33 GMT 46.146164 16.667152 35,025 123 457 0
2018-08-18 23:37:30 GMT 46.149979 16.658913 35,025 123 457 64
2018-08-18 23:37:25 GMT 46.154297 16.649578 35,025 123 457 64
2018-08-18 23:37:20 GMT 46.161758 16.633501 35,000 123 457 0
2018-08-18 23:37:17 GMT 46.164276 16.628077 35,000 123 457 64
2018-08-18 23:37:12 GMT 46.171188 16.613272 35,000 123 457 64
2018-08-18 23:37:08 GMT 46.174839 16.605423 35,000 123 457 64
2018-08-18 23:37:05 GMT 46.178421 16.597662 35,000 123 457 64
2018-08-18 23:37:02 GMT 46.181961 16.590042 35,000 123 456 64
2018-08-18 23:36:56 GMT 46.188152 16.576653 35,000 123 457 0
2018-08-18 23:36:50 GMT 46.197098 16.557266 35,000 123 457 64
2018-08-18 23:36:46 GMT 46.200115 16.550697 34,975 123 457 64
2018-08-18 23:36:42 GMT 46.205330 16.539436 34,975 123 456 64
2018-08-18 23:36:39 GMT 46.209000 16.531475 35,000 123 457 64
2018-08-18 23:36:36 GMT 46.211987 16.525085 34,975 123 456 64
2018-08-18 23:36:32 GMT 46.216225 16.515816 34,975 123 456 64
2018-08-18 23:36:28 GMT 46.221157 16.505241 34,975 123 456 64
2018-08-18 23:36:23 GMT 46.227219 16.492086 34,975 123 456 64
2018-08-18 23:36:19 GMT 46.232517 16.480591 34,975 123 455 64
2018-08-18 23:36:16 GMT 46.235542 16.473999 34,975 123 455 64
2018-08-18 23:36:13 GMT 46.238571 16.467434 34,975 123 456 0
2018-08-18 23:36:07 GMT 46.246529 16.450172 34,975 123 455 0
2018-08-18 23:36:03 GMT 46.250244 16.442112 34,950 123 455 0
2018-08-18 23:35:57 GMT 46.257568 16.426168 34,950 123 455 0
2018-08-18 23:35:53 GMT 46.262218 16.415909 34,950 123 455 0
2018-08-18 23:35:50 GMT 46.265244 16.409317 34,950 123 455 0
2018-08-18 23:35:47 GMT 46.270828 16.397163 34,975 123 455 0
2018-08-18 23:35:43 GMT 46.274738 16.388649 34,975 123 455 0
2018-08-18 23:35:36 GMT 46.281860 16.373131 34,975 123 455 0
2018-08-18 23:35:33 GMT 46.285542 16.365166 34,975 123 455 0
2018-08-18 23:35:29 GMT 46.291779 16.351570 34,975 123 454 -64
2018-08-18 23:35:26 GMT 46.294151 16.346420 34,975 123 454 -64
2018-08-18 23:35:23 GMT 46.298294 16.337357 34,975 123 455 -64
2018-08-18 23:35:19 GMT 46.302155 16.328899 34,975 123 455 -64
2018-08-18 23:35:16 GMT 46.306137 16.320257 34,975 123 455 -64
2018-08-18 23:35:13 GMT 46.310074 16.311745 34,975 123 454 -64
2018-08-18 23:35:10 GMT 46.313690 16.303844 34,975 123 455 -64
2018-08-18 23:35:06 GMT 46.318825 16.292656 35,000 123 455 -64
2018-08-18 23:35:01 GMT 46.322342 16.284887 35,000 123 454 -64
2018-08-18 23:34:58 GMT 46.327057 16.274704 35,000 123 457 64
2018-08-18 23:34:54 GMT 46.332275 16.263182 35,000 123 454 -64
2018-08-18 23:34:51 GMT 46.335072 16.257156 35,000 123 454 -64
2018-08-18 23:34:47 GMT 46.340099 16.246170 35,000 123 455 -64
2018-08-18 23:34:43 GMT 46.343216 16.239334 35,000 123 455 -64
2018-08-18 23:34:40 GMT 46.347408 16.230171 35,000 123 455 -64
2018-08-18 23:34:35 GMT 46.353287 16.217361 35,000 123 455 -64
2018-08-18 23:34:32 GMT 46.357315 16.208517 35,025 123 455 -64
2018-08-18 23:34:29 GMT 46.359695 16.203293 35,025 123 456 0
2018-08-18 23:34:25 GMT 46.364410 16.192909 35,025 123 456 0
2018-08-18 23:34:22 GMT 46.368355 16.184303 35,025 123 456 0
2018-08-18 23:34:18 GMT 46.372269 16.175789 35,025 123 456 0
2018-08-18 23:34:12 GMT 46.380753 16.157137 35,025 123 457 0
2018-08-18 23:34:07 GMT 46.385422 16.146889 35,025 123 457 0
2018-08-18 23:34:02 GMT 46.391212 16.134178 35,025 123 458 0
2018-08-18 23:33:58 GMT 46.396912 16.121634 35,025 123 457 64
2018-08-18 23:33:55 GMT 46.400616 16.113510 35,000 123 458 0
2018-08-18 23:33:51 GMT 46.405643 16.102386 35,000 123 459 0
2018-08-18 23:33:47 GMT 46.409134 16.094770 35,000 123 458 0
2018-08-18 23:33:44 GMT 46.412750 16.086864 35,000 123 459 0
2018-08-18 23:33:40 GMT 46.417419 16.076614 35,000 123 459 0
2018-08-18 23:33:37 GMT 46.421288 16.068054 35,000 123 459 64
2018-08-18 23:33:31 GMT 46.427078 16.055313 35,000 123 460 0
2018-08-18 23:33:28 GMT 46.430550 16.047661 35,000 123 460 0
2018-08-18 23:33:24 GMT 46.435390 16.036880 35,000 123 460 0
2018-08-18 23:33:21 GMT 46.438614 16.029858 35,000 123 460 0
2018-08-18 23:33:16 GMT 46.446396 16.012774 35,000 123 460 0
2018-08-18 23:33:13 GMT 46.449589 16.005707 35,000 123 460 -64
2018-08-18 23:33:10 GMT 46.451546 16.001312 35,000 123 461 0
2018-08-18 23:33:07 GMT 46.454865 15.993950 35,025 123 460 -64
2018-08-18 23:33:04 GMT 46.459488 15.983835 35,025 123 460 -64
2018-08-18 23:33:01 GMT 46.461914 15.978341 35,025 123 460 -64
2018-08-18 23:32:58 GMT 46.467178 15.966819 35,025 123 461 0
2018-08-18 23:32:54 GMT 46.470074 15.960457 35,025 123 461 0
2018-08-18 23:32:51 GMT 46.474182 15.951211 35,025 123 461 0
2018-08-18 23:32:48 GMT 46.477802 15.943359 35,025 123 461 0
2018-08-18 23:32:45 GMT 46.481277 15.935535 35,025 123 461 0
2018-08-18 23:32:41 GMT 46.486366 15.924271 35,025 123 462 64
2018-08-18 23:32:38 GMT 46.489204 15.918091 35,025 123 462 64
2018-08-18 23:32:34 GMT 46.493443 15.908684 35,025 123 462 64
2018-08-18 23:32:29 GMT 46.500984 15.892067 35,025 123 462 64
2018-08-18 23:32:25 GMT 46.505966 15.881012 35,025 123 462 64
2018-08-18 23:32:20 GMT 46.511261 15.869282 35,000 123 463 64
2018-08-18 23:32:14 GMT 46.517605 15.855125 35,000 123 463 64
2018-08-18 23:32:07 GMT 46.525223 15.838266 35,000 123 463 64
2018-08-18 23:32:03 GMT 46.531849 15.823608 35,000 123 463 0
2018-08-18 23:31:58 GMT 46.536083 15.814201 35,000 123 463 0
2018-08-18 23:31:53 GMT 46.542435 15.800082 35,000 123 464 64
2018-08-18 23:31:48 GMT 46.548233 15.787148 35,000 123 464 0
2018-08-18 23:31:43 GMT 46.555309 15.771423 35,000 123 464 0
2018-08-18 23:31:37 GMT 46.560379 15.760022 35,000 123 464 0
2018-08-18 23:31:32 GMT 46.567062 15.745150 35,000 123 464 -64
2018-08-18 23:31:26 GMT 46.573650 15.730499 35,000 123 464 -64
2018-08-18 23:31:22 GMT 46.579514 15.717349 35,000 122 463 -64
2018-08-18 23:31:15 GMT 46.586288 15.702209 35,000 122 463 0
2018-08-18 23:31:10 GMT 46.591900 15.689575 35,000 122 463 0
2018-08-18 23:31:05 GMT 46.598557 15.674811 35,000 123 464 0
2018-08-18 23:31:00 GMT 46.603443 15.663895 35,000 124 463 0
2018-08-18 23:30:57 GMT 46.608658 15.652290 35,000 123 464 0
2018-08-18 23:30:54 GMT 46.612198 15.644330 35,000 123 464 0
2018-08-18 23:30:50 GMT 46.616318 15.635287 35,000 123 464 0
2018-08-18 23:30:46 GMT 46.620895 15.625037 35,000 123 464 0
2018-08-18 23:30:43 GMT 46.625748 15.614185 35,000 123 464 64
2018-08-18 23:30:39 GMT 46.628082 15.608960 35,000 123 464 0
2018-08-18 23:30:35 GMT 46.633209 15.597504 35,000 123 464 0
2018-08-18 23:30:31 GMT 46.637787 15.587255 35,000 123 464 -64
2018-08-18 23:30:28 GMT 46.641338 15.579643 35,000 124 464 -64
2018-08-18 23:30:25 GMT 46.645157 15.571445 35,000 124 464 -64
2018-08-18 23:30:21 GMT 46.651207 15.558838 35,000 125 464 -64
2018-08-18 23:30:17 GMT 46.654404 15.552152 35,000 125 464 -64
2018-08-18 23:30:14 GMT 46.658192 15.544350 35,000 124 463 0
2018-08-18 23:30:11 GMT 46.662598 15.535204 35,000 124 463 0
2018-08-18 23:30:07 GMT 46.667595 15.524849 35,000 124 463 0
2018-08-18 23:30:04 GMT 46.670620 15.518600 35,000 124 463 0
2018-08-18 23:29:59 GMT 46.678627 15.501984 35,000 124 464 0
2018-08-18 23:29:54 GMT 46.683563 15.491684 35,000 124 464 0
2018-08-18 23:29:48 GMT 46.691196 15.475891 35,000 125 465 0
2018-08-18 23:29:44 GMT 46.695946 15.466003 35,000 125 465 0
2018-08-18 23:29:37 GMT 46.705486 15.446228 35,000 125 465 0
2018-08-18 23:29:34 GMT 46.708923 15.439007 35,000 125 465 0
2018-08-18 23:29:25 GMT 46.718857 15.418441 35,000 125 465 0
2018-08-18 23:29:22 GMT 46.722527 15.410866 35,000 124 465 0
2018-08-18 23:29:19 GMT 46.725998 15.403502 35,000 124 465 0
2018-08-18 23:29:15 GMT 46.732117 15.390816 35,000 124 465 -64
2018-08-18 23:29:12 GMT 46.735794 15.383137 35,000 124 465 -64
2018-08-18 23:29:09 GMT 46.739044 15.376371 35,000 124 466 -64
2018-08-18 23:29:03 GMT 46.747570 15.358543 35,000 124 466 0
2018-08-18 23:29:00 GMT 46.750717 15.352054 35,025 124 465 0
2018-08-18 23:28:52 GMT 46.759720 15.333206 35,000 124 465 0
2018-08-18 23:28:49 GMT 46.764050 15.324142 35,000 124 466 0
2018-08-18 23:28:42 GMT 46.773239 15.304960 35,000 124 466 0
2018-08-18 23:28:38 GMT 46.776852 15.297432 35,000 124 466 0
2018-08-18 23:28:31 GMT 46.786770 15.276627 35,000 124 466 0
2018-08-18 23:28:26 GMT 46.791611 15.266464 35,000 124 466 64
2018-08-18 23:28:21 GMT 46.798233 15.252574 35,000 124 466 64
2018-08-18 23:28:18 GMT 46.802170 15.244401 35,000 124 466 64
2018-08-18 23:28:15 GMT 46.805992 15.236320 35,000 124 466 0
2018-08-18 23:28:08 GMT 46.814621 15.218342 34,975 124 466 0
2018-08-18 23:28:04 GMT 46.819077 15.209061 34,975 124 467 -64
2018-08-18 23:27:59 GMT 46.824783 15.197039 35,000 124 467 -64
2018-08-18 23:27:56 GMT 46.828945 15.188324 35,000 124 467 -64
2018-08-18 23:27:53 GMT 46.833042 15.179672 35,000 124 467 -64
2018-08-18 23:27:49 GMT 46.836960 15.171516 35,000 124 467 0
2018-08-18 23:27:46 GMT 46.841419 15.162163 35,000 124 467 0
2018-08-18 23:27:42 GMT 46.846355 15.151794 35,000 124 467 0
2018-08-18 23:27:39 GMT 46.849503 15.145122 35,000 124 466 -64
2018-08-18 23:27:35 GMT 46.854218 15.135141 35,000 124 466 0
2018-08-18 23:27:32 GMT 46.857853 15.127487 35,000 124 466 0
2018-08-18 23:27:28 GMT 46.863720 15.115128 35,000 124 466 0
2018-08-18 23:27:25 GMT 46.867172 15.107876 35,000 124 466 64
2018-08-18 23:27:22 GMT 46.871384 15.099060 35,000 124 466 64
2018-08-18 23:27:17 GMT 46.878197 15.084581 35,000 124 466 64
2018-08-18 23:27:14 GMT 46.880665 15.079440 34,975 124 467 64
2018-08-18 23:27:11 GMT 46.885132 15.069932 35,000 124 467 0
2018-08-18 23:27:06 GMT 46.890255 15.059157 35,000 124 467 0
2018-08-18 23:27:01 GMT 46.896469 15.045982 34,975 124 467 0
2018-08-18 23:26:58 GMT 46.900261 15.037959 34,975 124 467 0
2018-08-18 23:26:55 GMT 46.903656 15.030807 35,000 124 467 0
2018-08-18 23:26:52 GMT 46.908142 15.021332 34,975 124 467 0
2018-08-18 23:26:48 GMT 46.913177 15.010620 34,975 124 467 0
2018-08-18 23:26:45 GMT 46.915970 15.004715 34,975 124 467 0
2018-08-18 23:26:39 GMT 46.924889 14.985845 34,975 124 467 0
2018-08-18 23:26:35 GMT 46.928799 14.977605 34,975 124 467 0
2018-08-18 23:26:28 GMT 46.937943 14.958229 35,000 124 467 0
2018-08-18 23:26:25 GMT 46.941090 14.951547 35,000 124 467 0
2018-08-18 23:26:18 GMT 46.948910 14.934998 35,000 124 467 0
2018-08-18 23:26:15 GMT 46.953705 14.924786 35,000 124 467 0
2018-08-18 23:26:09 GMT 46.959961 14.911537 35,000 124 467 0
2018-08-18 23:26:04 GMT 46.966740 14.897179 35,000 124 467 0
2018-08-18 23:25:56 GMT 46.975491 14.878587 35,000 124 467 0
2018-08-18 23:25:53 GMT 46.979874 14.869308 35,000 124 467 0
2018-08-18 23:25:45 GMT 46.990711 14.846332 35,000 124 468 0
2018-08-18 23:25:42 GMT 46.993927 14.839577 35,000 124 468 0
2018-08-18 23:25:33 GMT 47.004547 14.816917 35,000 124 468 0
2018-08-18 23:25:30 GMT 47.007706 14.810134 35,000 124 468 0
2018-08-18 23:25:26 GMT 47.012451 14.800063 35,000 124 468 0
2018-08-18 23:25:23 GMT 47.016724 14.791031 35,000 124 468 0
2018-08-18 23:25:19 GMT 47.022415 14.778865 35,000 124 468 0
2018-08-18 23:25:14 GMT 47.029491 14.763794 35,000 124 468 0
2018-08-18 23:25:10 GMT 47.033386 14.755463 35,000 124 469 0
2018-08-18 23:25:06 GMT 47.037033 14.747737 35,000 124 468 0
2018-08-18 23:25:03 GMT 47.041687 14.737877 35,000 124 468 0
2018-08-18 23:24:58 GMT 47.048309 14.723740 35,000 124 469 0
2018-08-18 23:24:54 GMT 47.053978 14.711609 35,000 124 469 0
2018-08-18 23:24:51 GMT 47.055313 14.708771 35,000 124 469 0
2018-08-18 23:24:47 GMT 47.061172 14.696274 35,000 124 469 0
2018-08-18 23:24:42 GMT 47.067352 14.682953 35,000 124 469 0
2018-08-18 23:24:36 GMT 47.073948 14.668790 35,000 124 469 0
2018-08-18 23:24:33 GMT 47.078247 14.659676 35,000 124 469 0
2018-08-18 23:24:30 GMT 47.081257 14.653226 35,000 124 469 0
2018-08-18 23:24:26 GMT 47.086796 14.641325 35,000 124 468 0
2018-08-18 23:24:22 GMT 47.091454 14.631324 35,000 124 469 0
2018-08-18 23:24:19 GMT 47.095322 14.623009 35,000 124 469 0
2018-08-18 23:24:14 GMT 47.101460 14.609845 35,025 124 470 0
2018-08-18 23:24:09 GMT 47.106857 14.598289 35,025 124 469 0
2018-08-18 23:24:04 GMT 47.113472 14.584210 35,025 124 470 0
2018-08-18 23:23:58 GMT 47.120453 14.569139 35,025 124 469 0
2018-08-18 23:23:53 GMT 47.127857 14.553293 35,000 124 470 0
2018-08-18 23:23:49 GMT 47.132885 14.542448 35,000 124 470 0
2018-08-18 23:23:42 GMT 47.141544 14.523855 35,000 124 470 64
2018-08-18 23:23:39 GMT 47.144474 14.517517 35,000 124 470 64
2018-08-18 23:23:35 GMT 47.149410 14.506883 35,000 124 470 64
2018-08-18 23:23:32 GMT 47.153694 14.497728 35,000 124 470 0
2018-08-18 23:23:29 GMT 47.157463 14.489558 35,000 124 470 0
2018-08-18 23:23:22 GMT 47.165096 14.473149 35,000 124 470 0
2018-08-18 23:23:19 GMT 47.168564 14.465630 35,000 124 470 0
2018-08-18 23:23:16 GMT 47.172173 14.457867 35,000 124 470 0
2018-08-18 23:23:12 GMT 47.176735 14.448007 35,000 124 470 0
2018-08-18 23:23:08 GMT 47.183258 14.433975 35,000 124 470 0
2018-08-18 23:23:04 GMT 47.187378 14.425049 35,000 124 470 0
2018-08-18 23:22:57 GMT 47.196056 14.406316 35,000 124 470 0
2018-08-18 23:22:54 GMT 47.198990 14.399977 35,000 124 470 0
2018-08-18 23:22:47 GMT 47.209396 14.377533 35,000 124 470 0
2018-08-18 23:22:44 GMT 47.211277 14.373427 35,000 124 470 0
2018-08-18 23:22:37 GMT 47.221054 14.352370 35,000 124 470 64
2018-08-18 23:22:34 GMT 47.224033 14.345891 35,000 124 470 64
2018-08-18 23:22:26 GMT 47.233715 14.324975 35,000 124 470 64
2018-08-18 23:22:23 GMT 47.236771 14.318344 35,000 124 470 64
2018-08-18 23:22:15 GMT 47.248287 14.293495 35,000 124 470 64
2018-08-18 23:22:11 GMT 47.251282 14.286964 34,975 124 470 64
2018-08-18 23:22:07 GMT 47.256317 14.276115 34,975 124 470 64
2018-08-18 23:22:04 GMT 47.260578 14.266874 35,000 124 470 64
2018-08-18 23:22:01 GMT 47.263550 14.260391 35,000 124 470 64
2018-08-18 23:21:53 GMT 47.273941 14.237869 34,975 123 470 0
2018-08-18 23:21:50 GMT 47.277058 14.230957 35,000 123 469 -64
2018-08-18 23:21:44 GMT 47.284458 14.214900 35,000 123 470 -64
2018-08-18 23:21:41 GMT 47.288681 14.205666 35,000 123 470 0
2018-08-18 23:21:35 GMT 47.296188 14.189406 35,000 123 470 0
2018-08-18 23:21:31 GMT 47.300949 14.178955 35,000 124 469 0
2018-08-18 23:21:28 GMT 47.304337 14.171518 35,000 124 469 0
2018-08-18 23:21:22 GMT 47.311844 14.155266 35,000 124 469 -64
2018-08-18 23:21:19 GMT 47.315510 14.147292 35,000 123 469 -64
2018-08-18 23:21:11 GMT 47.324158 14.128349 35,000 123 469 -64
2018-08-18 23:21:07 GMT 47.330128 14.115389 35,025 123 469 -64
2018-08-18 23:21:03 GMT 47.334595 14.105553 35,025 123 469 -64
2018-08-18 23:21:00 GMT 47.339203 14.095459 35,025 123 469 -64
2018-08-18 23:20:56 GMT 47.343430 14.086258 35,025 123 469 -64
2018-08-18 23:20:53 GMT 47.347908 14.076444 35,025 123 469 0
2018-08-18 23:20:49 GMT 47.351440 14.068748 35,025 123 469 -64
2018-08-18 23:20:46 GMT 47.355469 14.059891 35,025 123 469 -64
2018-08-18 23:20:42 GMT 47.360825 14.048218 35,025 123 469 -64
2018-08-18 23:20:39 GMT 47.365086 14.038908 35,025 123 468 0
2018-08-18 23:20:30 GMT 47.374722 14.017780 35,025 123 469 0
2018-08-18 23:20:27 GMT 47.378540 14.009540 35,025 123 468 0
2018-08-18 23:20:21 GMT 47.386173 13.992779 35,025 123 468 0
2018-08-18 23:20:18 GMT 47.388596 13.987427 35,025 123 468 0
2018-08-18 23:20:15 GMT 47.392868 13.978111 35,025 123 469 0
2018-08-18 23:20:10 GMT 47.398838 13.964891 35,025 123 469 64
2018-08-18 23:20:07 GMT 47.403538 13.954609 35,025 123 468 64
2018-08-18 23:20:01 GMT 47.410336 13.939749 35,025 123 469 64
2018-08-18 23:19:58 GMT 47.414017 13.931625 35,025 123 468 64
2018-08-18 23:19:54 GMT 47.418201 13.922354 35,025 123 468 64
2018-08-18 23:19:48 GMT 47.426331 13.904572 35,025 123 468 64
2018-08-18 23:19:45 GMT 47.430164 13.896085 35,025 123 468 64
2018-08-18 23:19:39 GMT 47.435852 13.883698 35,000 123 468 64
2018-08-18 23:19:33 GMT 47.443085 13.867767 35,000 123 468 0
2018-08-18 23:19:30 GMT 47.446739 13.859816 35,000 123 468 0
2018-08-18 23:19:26 GMT 47.452927 13.846138 35,000 123 468 64
2018-08-18 23:19:22 GMT 47.456375 13.838548 35,000 123 467 128
2018-08-18 23:19:19 GMT 47.460388 13.829659 35,000 123 467 128
2018-08-18 23:19:16 GMT 47.463543 13.822773 35,000 123 467 128
2018-08-18 23:19:13 GMT 47.467163 13.814827 35,000 123 467 128
2018-08-18 23:19:09 GMT 47.473412 13.801082 34,975 123 467 128
2018-08-18 23:19:05 GMT 47.477741 13.791504 34,975 123 466 128
2018-08-18 23:19:02 GMT 47.480537 13.785306 34,975 123 466 64
2018-08-18 23:18:59 GMT 47.485237 13.774954 34,950 123 466 128
2018-08-18 23:18:55 GMT 47.489658 13.765094 34,950 123 465 64
2018-08-18 23:18:52 GMT 47.493713 13.756187 34,950 123 465 64
2018-08-18 23:18:48 GMT 47.497807 13.747136 34,950 123 465 0
2018-08-18 23:18:44 GMT 47.502182 13.737417 34,950 123 465 -64
2018-08-18 23:18:41 GMT 47.505707 13.729546 34,950 123 465 -64
2018-08-18 23:18:37 GMT 47.510696 13.718422 34,975 123 465 -64
2018-08-18 23:18:34 GMT 47.514240 13.710585 34,975 123 463 -64
2018-08-18 23:18:30 GMT 47.519081 13.699881 34,975 123 463 -64
2018-08-18 23:18:27 GMT 47.522827 13.691643 34,975 123 463 0
2018-08-18 23:18:24 GMT 47.527267 13.681824 34,975 123 463 -64
2018-08-18 23:18:20 GMT 47.531044 13.673401 34,975 123 462 -64
2018-08-18 23:18:17 GMT 47.535187 13.664246 35,000 123 462 -64
2018-08-18 23:18:13 GMT 47.539032 13.655663 35,000 123 460 0
2018-08-18 23:18:10 GMT 47.542728 13.647414 35,000 123 461 -64
2018-08-18 23:18:06 GMT 47.547386 13.637132 35,000 123 460 -64
2018-08-18 23:18:00 GMT 47.555019 13.620159 35,000 123 460 -64
2018-08-18 23:17:57 GMT 47.558464 13.612483 35,000 123 460 -64
2018-08-18 23:17:53 GMT 47.563957 13.600229 35,000 123 460 -64
2018-08-18 23:17:49 GMT 47.568054 13.591074 35,000 123 460 -64
2018-08-18 23:17:44 GMT 47.574463 13.576836 35,000 123 460 0
2018-08-18 23:17:39 GMT 47.579552 13.565510 35,000 123 458 0
2018-08-18 23:17:34 GMT 47.585140 13.553044 35,025 123 459 -64
2018-08-18 23:17:31 GMT 47.588333 13.545937 35,025 123 459 0
2018-08-18 23:17:28 GMT 47.591888 13.538044 35,025 123 458 -64
2018-08-18 23:17:24 GMT 47.596962 13.526705 35,025 123 459 -64
2018-08-18 23:17:18 GMT 47.604179 13.510648 35,025 123 458 -64
2018-08-18 23:17:11 GMT 47.612091 13.492996 35,025 123 459 0
2018-08-18 23:17:08 GMT 47.616982 13.482056 35,025 123 458 0
2018-08-18 23:17:04 GMT 47.620651 13.473839 35,025 123 458 0
2018-08-18 23:17:01 GMT 47.624130 13.466080 35,025 123 459 0
2018-08-18 23:16:56 GMT 47.628990 13.455224 35,025 123 459 0
2018-08-18 23:16:53 GMT 47.633507 13.445153 35,025 123 459 0
2018-08-18 23:16:50 GMT 47.636345 13.438815 35,025 123 459 0
2018-08-18 23:16:46 GMT 47.642399 13.425223 35,025 123 457 0
2018-08-18 23:16:41 GMT 47.648075 13.412476 35,025 123 459 -64
2018-08-18 23:16:38 GMT 47.650871 13.406278 35,050 123 458 -64
2018-08-18 23:16:33 GMT 47.656921 13.392686 35,050 123 457 0
2018-08-18 23:16:30 GMT 47.660179 13.385432 35,050 123 457 64
2018-08-18 23:16:27 GMT 47.663498 13.377983 35,050 123 457 64
2018-08-18 23:16:23 GMT 47.669353 13.364798 35,025 123 457 64
2018-08-18 23:16:19 GMT 47.672516 13.357727 35,025 123 457 64
2018-08-18 23:16:14 GMT 47.678707 13.343881 35,025 123 457 0
2018-08-18 23:16:09 GMT 47.685181 13.329303 35,025 123 457 0
2018-08-18 23:16:06 GMT 47.687695 13.323669 35,025 123 457 0
2018-08-18 23:16:02 GMT 47.693253 13.311241 35,025 123 456 0
2018-08-18 23:15:59 GMT 47.696136 13.304718 35,025 123 456 64
2018-08-18 23:15:56 GMT 47.700073 13.295929 35,025 123 456 64
2018-08-18 23:15:53 GMT 47.703148 13.289091 35,025 123 456 64
2018-08-18 23:15:50 GMT 47.706638 13.281133 35,000 123 456 64
2018-08-18 23:15:46 GMT 47.711155 13.271062 35,000 123 455 64
2018-08-18 23:15:42 GMT 47.717056 13.257751 35,000 123 455 64
2018-08-18 23:15:39 GMT 47.719955 13.251272 35,000 122 441 0
2018-08-18 23:15:36 GMT 47.724518 13.240990 35,000 122 441 0
2018-08-18 23:15:33 GMT 47.727310 13.234652 35,000 123 454 0
2018-08-18 23:15:29 GMT 47.731964 13.224088 35,000 123 454 0
2018-08-18 23:15:24 GMT 47.736759 13.213243 35,000 123 454 0
2018-08-18 23:15:21 GMT 47.741135 13.203383 35,000 123 454 0
2018-08-18 23:15:18 GMT 47.743649 13.197820 35,000 123 453 0
2018-08-18 23:15:14 GMT 47.748352 13.187185 35,000 123 452 -64
2018-08-18 23:15:11 GMT 47.752495 13.177889 35,000 123 452 -64
2018-08-18 23:15:07 GMT 47.755966 13.169930 35,000 123 452 -64
2018-08-18 23:15:04 GMT 47.761433 13.157607 35,000 123 451 0
2018-08-18 23:15:01 GMT 47.763805 13.152184 35,000 123 450 0
2018-08-18 23:14:57 GMT 47.767365 13.144249 35,000 123 452 0
2018-08-18 23:14:53 GMT 47.773254 13.130916 35,000 123 449 64
2018-08-18 23:14:50 GMT 47.776199 13.124199 35,000 123 450 0
2018-08-18 23:14:47 GMT 47.779633 13.116549 35,000 123 451 0
2018-08-18 23:14:41 GMT 47.785767 13.102707 35,000 123 449 64
2018-08-18 23:14:37 GMT 47.791084 13.090562 35,000 123 450 0
2018-08-18 23:14:34 GMT 47.793835 13.084435 35,000 123 450 0
2018-08-18 23:14:30 GMT 47.799408 13.071877 35,000 123 450 -64
2018-08-18 23:14:27 GMT 47.803051 13.063660 35,000 123 450 0
2018-08-18 23:14:24 GMT 47.805332 13.058378 35,000 123 450 0
2018-08-18 23:14:20 GMT 47.810173 13.047532 35,000 123 450 0
2018-08-18 23:14:17 GMT 47.813553 13.039810 35,000 123 450 64
2018-08-18 23:14:14 GMT 47.816502 13.033095 35,000 123 450 64
2018-08-18 23:14:10 GMT 47.821766 13.021264 35,000 123 450 0
2018-08-18 23:14:06 GMT 47.826000 13.011615 35,000 123 450 0
2018-08-18 23:14:03 GMT 47.829666 13.003349 35,000 123 450 0
2018-08-18 23:13:57 GMT 47.837906 12.984604 35,000 123 450 64
2018-08-18 23:13:54 GMT 47.840240 12.979248 35,000 123 448 64
2018-08-18 23:13:47 GMT 47.847519 12.962700 35,000 122 448 0
2018-08-18 23:13:44 GMT 47.852676 12.950979 35,000 123 448 0
2018-08-18 23:13:41 GMT 47.855980 12.943444 35,000 122 448 -64
2018-08-18 23:13:37 GMT 47.859516 12.935345 35,000 122 446 -64
2018-08-18 23:13:33 GMT 47.863541 12.926239 35,000 123 447 -64
2018-08-18 23:13:29 GMT 47.868641 12.914570 35,000 122 444 64
2018-08-18 23:13:25 GMT 47.872971 12.904640 35,000 123 442 -64
2018-08-18 23:13:22 GMT 47.875671 12.898442 35,000 123 443 128
2018-08-18 23:13:16 GMT 47.883179 12.881264 34,975 123 442 -64
2018-08-18 23:13:13 GMT 47.886379 12.874005 35,000 123 442 -64
2018-08-18 23:13:08 GMT 47.892700 12.859566 35,000 123 441 0
2018-08-18 23:13:05 GMT 47.895596 12.852948 35,000 123 441 -64
2018-08-18 23:13:02 GMT 47.898388 12.846539 35,000 123 441 -64
2018-08-18 23:12:57 GMT 47.903961 12.833885 35,000 123 441 0
2018-08-18 23:12:53 GMT 47.909374 12.821467 35,000 123 441 0
2018-08-18 23:12:50 GMT 47.912819 12.813650 35,000 122 441 0
2018-08-18 23:12:47 GMT 47.915222 12.808136 35,000 122 441 0
2018-08-18 23:12:43 GMT 47.919159 12.799210 35,000 122 441 0
2018-08-18 23:12:40 GMT 47.923157 12.789987 35,000 122 441 0
2018-08-18 23:12:37 GMT 47.927437 12.780128 35,000 122 441 0
2018-08-18 23:12:32 GMT 47.932480 12.768654 35,000 122 441 0
2018-08-18 23:12:29 GMT 47.935444 12.761888 35,000 122 441 0
2018-08-18 23:12:26 GMT 47.938564 12.754704 35,000 122 441 0
2018-08-18 23:12:23 GMT 47.941772 12.747368 35,000 122 441 0
2018-08-18 23:12:20 GMT 47.945175 12.739563 35,000 122 439 0
2018-08-18 23:12:16 GMT 47.949738 12.729140 35,000 122 440 0
2018-08-18 23:12:12 GMT 47.954819 12.717430 35,000 122 439 -64
2018-08-18 23:12:09 GMT 47.957092 12.712238 35,000 122 439 0
2018-08-18 23:12:05 GMT 47.962677 12.699280 35,000 122 439 0
2018-08-18 23:12:02 GMT 47.966167 12.691251 35,000 122 438 0
2018-08-18 23:11:59 GMT 47.968403 12.686110 35,000 122 438 -64
2018-08-18 23:11:55 GMT 47.973804 12.673786 35,000 122 438 -64
2018-08-18 23:11:52 GMT 47.977066 12.666275 35,000 122 438 -64
2018-08-18 23:11:48 GMT 47.980042 12.659419 35,000 123 437 -64
2018-08-18 23:11:45 GMT 47.984093 12.650123 35,000 122 438 0
2018-08-18 23:11:41 GMT 47.989563 12.637505 35,000 123 437 0
2018-08-18 23:11:38 GMT 47.991074 12.634066 35,000 122 438 0
2018-08-18 23:11:35 GMT 47.995079 12.624840 35,000 122 438 0
2018-08-18 23:11:31 GMT 47.999405 12.614914 35,000 122 439 -64
2018-08-18 23:11:28 GMT 48.002201 12.608431 35,000 122 439 -64
2018-08-18 23:11:21 GMT 48.010025 12.590401 35,025 122 442 64
2018-08-18 23:11:17 GMT 48.014210 12.580754 35,025 122 445 0
2018-08-18 23:11:12 GMT 48.019657 12.568148 35,025 122 445 0
2018-08-18 23:11:09 GMT 48.023163 12.559982 35,025 122 441 0
2018-08-18 23:11:06 GMT 48.026779 12.551669 34,975 122 444 128
2018-08-18 23:11:01 GMT 48.032551 12.538288 35,000 122 442 64
2018-08-18 23:10:57 GMT 48.036575 12.529015 34,975 123 443 128
2018-08-18 23:10:54 GMT 48.041153 12.518372 34,975 122 444 64
2018-08-18 23:10:49 GMT 48.046146 12.506878 34,975 122 445 0
2018-08-18 23:10:46 GMT 48.049255 12.499695 35,000 122 446 -128
2018-08-18 23:10:43 GMT 48.052185 12.492897 35,000 122 446 0
2018-08-18 23:10:39 GMT 48.057457 12.480610 35,025 122 447 0
2018-08-18 23:10:36 GMT 48.061386 12.471474 35,000 122 447 64
2018-08-18 23:10:33 GMT 48.063675 12.466187 35,000 122 447 64
2018-08-18 23:10:29 GMT 48.068630 12.454764 35,000 122 445 0
2018-08-18 23:10:26 GMT 48.070820 12.449693 35,000 122 446 0
2018-08-18 23:10:22 GMT 48.077133 12.435013 35,000 122 445 0
2018-08-18 23:10:18 GMT 48.079895 12.428636 35,000 122 444 0
2018-08-18 23:10:15 GMT 48.084087 12.418776 35,000 122 445 64
2018-08-18 23:10:11 GMT 48.087524 12.410843 35,000 122 444 64
2018-08-18 23:10:08 GMT 48.090881 12.403001 35,000 122 444 64
2018-08-18 23:10:05 GMT 48.094208 12.395325 35,000 122 444 0
2018-08-18 23:10:02 GMT 48.098328 12.385712 35,000 122 444 0
2018-08-18 23:09:59 GMT 48.101212 12.379051 35,000 122 444 0
2018-08-18 23:09:56 GMT 48.105103 12.369987 35,000 122 443 0
2018-08-18 23:09:53 GMT 48.107437 12.364563 35,000 122 443 0
2018-08-18 23:09:50 GMT 48.110851 12.356591 35,000 122 443 0
2018-08-18 23:09:47 GMT 48.114487 12.348152 35,000 122 443 0
2018-08-18 23:09:44 GMT 48.117928 12.340041 35,000 122 443 0
2018-08-18 23:09:40 GMT 48.122490 12.329407 35,000 122 443 0
2018-08-18 23:09:37 GMT 48.125984 12.321308 35,000 122 441 0
2018-08-18 23:09:34 GMT 48.129318 12.313477 35,000 122 441 0
2018-08-18 23:09:30 GMT 48.133526 12.303631 35,000 122 441 0
2018-08-18 23:09:27 GMT 48.137016 12.295532 35,000 122 440 -64
2018-08-18 23:09:24 GMT 48.141220 12.285736 35,000 122 440 -64
2018-08-18 23:09:20 GMT 48.144653 12.277702 35,000 122 439 -64
2018-08-18 23:09:17 GMT 48.149094 12.267334 35,000 122 439 -64
2018-08-18 23:09:12 GMT 48.153488 12.257034 35,000 122 438 0
2018-08-18 23:09:09 GMT 48.157219 12.248347 35,000 122 438 0
2018-08-18 23:09:06 GMT 48.159874 12.242220 35,000 122 438 0
2018-08-18 23:09:03 GMT 48.163193 12.234403 35,000 122 438 0
2018-08-18 23:08:59 GMT 48.168346 12.222290 35,000 122 438 0
2018-08-18 23:08:56 GMT 48.170860 12.216508 35,000 122 438 0
2018-08-18 23:08:51 GMT 48.176537 12.203209 35,000 122 438 0
2018-08-18 23:08:48 GMT 48.180496 12.193885 35,000 123 437 0
2018-08-18 23:08:45 GMT 48.182053 12.190247 35,000 122 438 0
2018-08-18 23:08:40 GMT 48.189480 12.172852 35,000 122 438 64
2018-08-18 23:08:35 GMT 48.193405 12.163696 35,000 122 440 64
2018-08-18 23:08:31 GMT 48.197296 12.154541 35,000 122 440 64
2018-08-18 23:08:28 GMT 48.201164 12.145530 35,000 122 440 64
2018-08-18 23:08:25 GMT 48.204758 12.137146 35,000 122 440 0
2018-08-18 23:08:22 GMT 48.209015 12.127146 35,000 122 437 0
2018-08-18 23:08:18 GMT 48.212242 12.119582 35,000 122 440 -64
2018-08-18 23:08:14 GMT 48.217896 12.106370 35,000 122 440 -64
2018-08-18 23:08:10 GMT 48.221184 12.098694 35,000 122 439 -64
2018-08-18 23:08:06 GMT 48.226410 12.086369 35,000 122 437 0
2018-08-18 23:08:03 GMT 48.228630 12.081130 35,000 121 436 0
2018-08-18 23:08:00 GMT 48.231937 12.073396 35,000 122 436 0
2018-08-18 23:07:56 GMT 48.236031 12.063639 35,000 122 434 -64
2018-08-18 23:07:53 GMT 48.239712 12.055110 35,000 122 433 -64
2018-08-18 23:07:50 GMT 48.242504 12.048388 35,000 122 434 -64
2018-08-18 23:07:46 GMT 48.246273 12.039425 35,000 122 434 0
2018-08-18 23:07:43 GMT 48.250790 12.028873 35,000 122 434 -64
2018-08-18 23:07:40 GMT 48.253628 12.022151 35,000 122 434 0
2018-08-18 23:07:37 GMT 48.256981 12.014128 35,000 122 434 0
2018-08-18 23:07:33 GMT 48.260891 12.004876 35,000 122 433 0
2018-08-18 23:07:30 GMT 48.265045 11.995169 35,000 122 434 0
2018-08-18 23:07:27 GMT 48.268108 11.987891 35,000 122 433 -64
2018-08-18 23:07:24 GMT 48.270340 11.982615 35,000 121 432 0
2018-08-18 23:07:21 GMT 48.273972 11.974013 35,025 121 432 0
2018-08-18 23:07:18 GMT 48.278320 11.963759 35,000 122 433 0
2018-08-18 23:07:15 GMT 48.279831 11.960097 35,000 122 433 0
2018-08-18 23:07:12 GMT 48.283096 11.952474 35,000 121 432 0
2018-08-18 23:07:08 GMT 48.288025 11.940801 35,025 122 431 0
2018-08-18 23:07:04 GMT 48.292374 11.930519 35,025 122 431 0
2018-08-18 23:07:01 GMT 48.294922 11.924430 35,000 121 431 0
2018-08-18 23:06:58 GMT 48.298038 11.917130 35,000 122 431 0
2018-08-18 23:06:54 GMT 48.303497 11.904250 35,000 122 432 0
2018-08-18 23:06:51 GMT 48.305740 11.898968 35,000 122 431 64
2018-08-18 23:06:48 GMT 48.309399 11.890243 35,000 122 431 64
2018-08-18 23:06:43 GMT 48.314938 11.877233 35,000 122 431 0
2018-08-18 23:06:40 GMT 48.317547 11.871017 35,000 122 431 0
2018-08-18 23:06:37 GMT 48.320847 11.863192 35,000 122 431 0
2018-08-18 23:06:33 GMT 48.325554 11.852080 35,000 122 431 0
2018-08-18 23:06:30 GMT 48.328625 11.844852 35,000 122 431 0
2018-08-18 23:06:27 GMT 48.331467 11.838050 35,000 122 431 0
2018-08-18 23:06:23 GMT 48.336910 11.825192 35,000 122 431 0
2018-08-18 23:06:20 GMT 48.339478 11.819035 35,000 122 431 0
2018-08-18 23:06:17 GMT 48.342361 11.812275 35,000 122 431 0
2018-08-18 23:06:12 GMT 48.347527 11.799967 35,000 121 431 0
2018-08-18 23:06:09 GMT 48.350235 11.793542 35,000 122 431 0
2018-08-18 23:06:06 GMT 48.353390 11.786017 35,000 121 430 0
2018-08-18 23:06:02 GMT 48.358372 11.774163 35,000 121 430 0
2018-08-18 23:05:59 GMT 48.361862 11.765779 35,000 122 430 0
2018-08-18 23:05:56 GMT 48.364422 11.759708 35,000 121 430 0
2018-08-18 23:05:52 GMT 48.369370 11.747976 35,000 122 430 0
2018-08-18 23:05:49 GMT 48.372524 11.740482 35,000 122 431 0
2018-08-18 23:05:46 GMT 48.376015 11.732097 35,000 121 431 0
2018-08-18 23:05:40 GMT 48.381832 11.718292 35,000 121 431 0
2018-08-18 23:05:37 GMT 48.385185 11.710342 35,000 122 430 -64
2018-08-18 23:05:34 GMT 48.387375 11.705065 35,000 121 430 -64
2018-08-18 23:05:30 GMT 48.391937 11.694151 35,000 122 430 -64
2018-08-18 23:05:27 GMT 48.395279 11.686214 35,000 122 430 -64
2018-08-18 23:05:24 GMT 48.398544 11.678395 35,000 121 430 -64
2018-08-18 23:05:19 GMT 48.404160 11.665016 35,000 122 430 0
2018-08-18 23:05:15 GMT 48.409252 11.652808 35,000 122 431 0
2018-08-18 23:05:11 GMT 48.413162 11.643484 35,000 122 430 0
2018-08-18 23:05:08 GMT 48.415771 11.637196 35,000 122 430 0
2018-08-18 23:05:04 GMT 48.419868 11.627438 35,000 121 430 0
2018-08-18 23:04:59 GMT 48.425262 11.614450 35,000 122 430 -64
2018-08-18 23:04:56 GMT 48.428528 11.606767 35,000 122 430 -64
2018-08-18 23:04:53 GMT 48.430984 11.600858 35,000 122 431 0
2018-08-18 23:04:49 GMT 48.435699 11.589520 35,000 122 431 -64
2018-08-18 23:04:46 GMT 48.440094 11.579097 35,000 122 430 64
2018-08-18 23:04:43 GMT 48.441742 11.575153 35,000 122 430 64
2018-08-18 23:04:40 GMT 48.445953 11.565082 35,000 122 431 128
2018-08-18 23:04:37 GMT 48.448288 11.559519 34,975 122 431 128
2018-08-18 23:04:34 GMT 48.452408 11.549589 34,975 122 432 128
2018-08-18 23:04:29 GMT 48.456711 11.539307 34,975 122 433 -64
2018-08-18 23:04:26 GMT 48.461060 11.528884 34,975 122 433 -64
2018-08-18 23:04:23 GMT 48.463165 11.523884 34,975 122 433 -128
2018-08-18 23:04:18 GMT 48.469482 11.508601 35,000 121 432 0
2018-08-18 23:04:14 GMT 48.472656 11.500951 35,000 121 432 -64
2018-08-18 23:04:11 GMT 48.475845 11.493319 35,000 121 432 -64
2018-08-18 23:04:07 GMT 48.480377 11.482474 35,000 121 432 0
2018-08-18 23:04:04 GMT 48.483856 11.474022 35,000 122 431 0
2018-08-18 23:04:01 GMT 48.486557 11.467543 35,000 121 432 0
2018-08-18 23:03:57 GMT 48.490952 11.456980 35,000 121 432 0
2018-08-18 23:03:54 GMT 48.495209 11.446838 35,000 121 432 0
2018-08-18 23:03:51 GMT 48.498215 11.439586 35,000 121 432 -64
2018-08-18 23:03:45 GMT 48.503101 11.427805 35,000 122 431 -64
2018-08-18 23:03:42 GMT 48.507294 11.417612 35,000 121 433 -64
2018-08-18 23:03:39 GMT 48.510830 11.409085 35,000 121 433 -64
2018-08-18 23:03:36 GMT 48.513298 11.403086 35,000 121 433 -64
2018-08-18 23:03:33 GMT 48.517162 11.393834 35,025 122 431 -64
2018-08-18 23:03:30 GMT 48.519814 11.387401 35,025 121 432 -64
2018-08-18 23:03:27 GMT 48.523632 11.378150 35,025 121 432 -64
2018-08-18 23:03:23 GMT 48.527023 11.370005 35,025 121 432 -64
2018-08-18 23:03:20 GMT 48.529869 11.363116 35,025 121 432 -64
2018-08-18 23:03:13 GMT 48.537643 11.344299 35,025 121 433 0
2018-08-18 23:03:10 GMT 48.540855 11.336590 35,025 121 433 0
2018-08-18 23:03:02 GMT 48.549820 11.314862 35,025 121 432 0
2018-08-18 23:02:59 GMT 48.552017 11.309650 35,025 121 433 0
2018-08-18 23:02:53 GMT 48.559383 11.291705 35,025 121 433 0
2018-08-18 23:02:49 GMT 48.563049 11.282889 35,025 121 434 0
2018-08-18 23:02:41 GMT 48.571472 11.262395 35,025 121 434 0
2018-08-18 23:02:38 GMT 48.574608 11.254843 35,025 121 434 0
2018-08-18 23:02:32 GMT 48.581264 11.238725 35,025 122 433 0
2018-08-18 23:02:28 GMT 48.587036 11.224775 35,025 121 434 0
2018-08-18 23:02:25 GMT 48.588638 11.220914 35,025 121 434 0
2018-08-18 23:02:21 GMT 48.592949 11.210464 35,025 122 433 0
2018-08-18 23:02:18 GMT 48.596786 11.201195 35,025 121 434 64
2018-08-18 23:02:15 GMT 48.598801 11.196336 35,025 121 434 64
2018-08-18 23:02:11 GMT 48.603561 11.184786 35,025 121 435 64
2018-08-18 23:02:07 GMT 48.607819 11.174434 35,000 121 435 0
2018-08-18 23:02:03 GMT 48.611481 11.165419 35,000 121 435 0
2018-08-18 23:02:00 GMT 48.615509 11.155701 35,000 121 435 0
2018-08-18 23:01:57 GMT 48.618690 11.147943 35,000 121 435 0
2018-08-18 23:01:54 GMT 48.621735 11.140489 35,000 121 435 0
2018-08-18 23:01:50 GMT 48.627163 11.127416 35,000 121 435 0
2018-08-18 23:01:45 GMT 48.631401 11.117080 35,000 121 435 0
2018-08-18 23:01:42 GMT 48.636475 11.104642 35,000 121 434 0
2018-08-18 23:01:39 GMT 48.638058 11.100745 35,000 121 434 64
2018-08-18 23:01:36 GMT 48.642387 11.090120 35,000 121 434 64
2018-08-18 23:01:33 GMT 48.643925 11.086362 35,000 121 434 64
2018-08-18 23:01:30 GMT 48.647827 11.076895 35,000 121 434 64
2018-08-18 23:01:26 GMT 48.651093 11.068870 35,000 121 434 0
2018-08-18 23:01:23 GMT 48.655327 11.058534 35,000 121 434 0
2018-08-18 23:01:19 GMT 48.658680 11.050295 35,000 121 434 0
2018-08-18 23:01:16 GMT 48.660774 11.045091 34,975 121 435 0
2018-08-18 23:01:13 GMT 48.664261 11.036682 34,975 121 435 0
2018-08-18 23:01:10 GMT 48.668083 11.027310 34,975 121 435 0
2018-08-18 23:01:07 GMT 48.671902 11.017914 34,975 122 435 0
2018-08-18 23:01:04 GMT 48.674320 11.012059 34,975 121 434 0
2018-08-18 23:01:01 GMT 48.676414 11.007000 34,975 122 433 0
2018-08-18 23:00:58 GMT 48.680511 10.996953 34,975 121 434 0
2018-08-18 23:00:53 GMT 48.685822 10.983943 34,975 121 434 0
2018-08-18 23:00:50 GMT 48.689896 10.974074 34,975 121 434 0
2018-08-18 23:00:46 GMT 48.693222 10.965946 34,975 121 434 0
2018-08-18 23:00:43 GMT 48.697456 10.955537 34,975 121 434 0
2018-08-18 23:00:40 GMT 48.699459 10.950550 34,975 121 434 0
2018-08-18 23:00:37 GMT 48.702667 10.942805 34,975 121 434 0
2018-08-18 23:00:34 GMT 48.705791 10.935083 34,975 121 434 0
2018-08-18 23:00:30 GMT 48.709888 10.925036 34,975 121 434 0
2018-08-18 23:00:26 GMT 48.713799 10.915495 34,975 121 434 -64
2018-08-18 23:00:23 GMT 48.718407 10.904075 34,975 121 434 -64
2018-08-18 23:00:20 GMT 48.720734 10.898438 34,975 121 434 -64
2018-08-18 23:00:17 GMT 48.723404 10.891888 34,975 121 434 -64
2018-08-18 23:00:14 GMT 48.726555 10.884126 34,975 121 434 0
2018-08-18 23:00:11 GMT 48.729721 10.876254 35,000 121 434 0
2018-08-18 23:00:08 GMT 48.732883 10.868442 35,000 121 434 0
2018-08-18 23:00:05 GMT 48.735901 10.861042 35,000 121 434 0
2018-08-18 23:00:02 GMT 48.739120 10.853191 35,000 121 434 -64
2018-08-18 22:59:59 GMT 48.742859 10.843858 35,000 121 434 -64
2018-08-18 22:59:56 GMT 48.746014 10.836133 35,000 121 434 0
2018-08-18 22:59:53 GMT 48.748718 10.829491 35,000 122 433 0
2018-08-18 22:59:50 GMT 48.751972 10.821461 35,000 121 434 0
2018-08-18 22:59:47 GMT 48.756065 10.811414 35,000 121 434 0
2018-08-18 22:59:43 GMT 48.759155 10.803786 35,000 121 434 0
2018-08-18 22:59:40 GMT 48.762493 10.795585 35,000 121 434 0
2018-08-18 22:59:37 GMT 48.766171 10.786478 35,000 121 434 0
2018-08-18 22:59:34 GMT 48.769638 10.777870 35,000 121 434 0
2018-08-18 22:59:31 GMT 48.772202 10.771602 35,000 121 434 0
2018-08-18 22:59:28 GMT 48.776047 10.762024 35,000 121 434 0
2018-08-18 22:59:25 GMT 48.778152 10.756812 35,000 121 434 -64
2018-08-18 22:59:22 GMT 48.781067 10.749616 35,000 121 434 -64
2018-08-18 22:59:17 GMT 48.786255 10.736812 35,000 121 434 -64
2018-08-18 22:59:14 GMT 48.790466 10.726389 35,000 121 434 -64
2018-08-18 22:59:11 GMT 48.793819 10.718103 35,000 121 434 -64
2018-08-18 22:59:08 GMT 48.797150 10.709839 35,000 121 434 -64
2018-08-18 22:59:03 GMT 48.802620 10.696275 35,000 121 434 0
2018-08-18 22:58:59 GMT 48.805878 10.688252 35,000 121 434 0
2018-08-18 22:58:56 GMT 48.808113 10.682759 35,000 121 434 0
2018-08-18 22:58:52 GMT 48.812954 10.670760 35,000 121 435 0
2018-08-18 22:58:49 GMT 48.816055 10.663077 35,000 121 435 0
2018-08-18 22:58:46 GMT 48.818680 10.656521 35,000 121 435 0
2018-08-18 22:58:42 GMT 48.823837 10.643780 35,000 121 435 0
2018-08-18 22:58:39 GMT 48.826447 10.637231 35,000 120 435 0
2018-08-18 22:58:35 GMT 48.830795 10.626455 35,025 121 435 0
2018-08-18 22:58:32 GMT 48.834366 10.617652 35,025 121 435 0
2018-08-18 22:58:29 GMT 48.837486 10.609830 35,025 121 435 0
2018-08-18 22:58:25 GMT 48.840637 10.602018 35,025 121 435 0
2018-08-18 22:58:22 GMT 48.844711 10.591947 35,025 121 435 0
2018-08-18 22:58:18 GMT 48.848614 10.582219 35,025 121 436 0
2018-08-18 22:58:15 GMT 48.851898 10.574059 35,025 121 436 0
2018-08-18 22:58:11 GMT 48.855972 10.563918 35,025 121 436 0
2018-08-18 22:58:08 GMT 48.859180 10.555982 35,025 121 436 0
2018-08-18 22:58:04 GMT 48.862999 10.546586 35,025 121 436 0
2018-08-18 22:58:01 GMT 48.866814 10.537045 35,025 121 436 0
2018-08-18 22:57:58 GMT 48.869793 10.529528 35,025 121 436 0
2018-08-18 22:57:55 GMT 48.872726 10.522226 35,025 121 436 0
2018-08-18 22:57:51 GMT 48.877167 10.511310 35,025 121 437 0
2018-08-18 22:57:48 GMT 48.880463 10.503071 35,025 120 437 0
2018-08-18 22:57:45 GMT 48.883575 10.495324 35,025 121 437 0
2018-08-18 22:57:42 GMT 48.886826 10.487154 35,025 121 437 0
2018-08-18 22:57:39 GMT 48.889904 10.479511 35,025 121 437 0
2018-08-18 22:57:36 GMT 48.892979 10.471778 35,000 121 437 0
2018-08-18 22:57:33 GMT 48.896118 10.463985 35,000 121 437 0
2018-08-18 22:57:30 GMT 48.898376 10.458334 35,000 121 437 0
2018-08-18 22:57:27 GMT 48.902023 10.449195 35,000 121 437 0
2018-08-18 22:57:24 GMT 48.905499 10.440481 35,000 121 438 0
2018-08-18 22:57:20 GMT 48.909897 10.429476 35,000 121 438 0
2018-08-18 22:57:17 GMT 48.912994 10.421689 35,000 121 437 0
2018-08-18 22:57:13 GMT 48.916992 10.411729 35,000 121 437 0
2018-08-18 22:57:10 GMT 48.920025 10.404197 35,000 121 437 0
2018-08-18 22:57:07 GMT 48.922668 10.397503 35,000 121 438 0
2018-08-18 22:57:04 GMT 48.927521 10.385390 35,000 121 437 0
2018-08-18 22:57:01 GMT 48.929718 10.379897 35,000 121 437 0
2018-08-18 22:56:58 GMT 48.933701 10.369967 35,000 121 438 0
2018-08-18 22:56:55 GMT 48.936363 10.363215 35,000 121 438 0
2018-08-18 22:56:52 GMT 48.939018 10.356566 35,000 121 438 0
2018-08-18 22:56:49 GMT 48.942463 10.347965 35,000 121 437 0
2018-08-18 22:56:45 GMT 48.946289 10.338346 35,000 121 438 0
2018-08-18 22:56:42 GMT 48.949398 10.330473 35,000 121 437 0
2018-08-18 22:56:39 GMT 48.953541 10.320137 35,000 121 438 0
2018-08-18 22:56:34 GMT 48.957825 10.309440 35,000 121 437 0
2018-08-18 22:56:30 GMT 48.962448 10.297781 35,000 121 437 0
2018-08-18 22:56:27 GMT 48.965103 10.291091 35,000 121 437 0
2018-08-18 22:56:24 GMT 48.968719 10.282006 35,000 121 438 0
2018-08-18 22:56:20 GMT 48.972347 10.272867 35,000 121 437 0
2018-08-18 22:56:17 GMT 48.975449 10.264963 35,000 121 438 -64
2018-08-18 22:56:13 GMT 48.979523 10.254751 35,000 121 438 0
2018-08-18 22:56:09 GMT 48.983917 10.243554 35,000 121 438 0
2018-08-18 22:56:06 GMT 48.987991 10.233342 35,000 121 438 0
2018-08-18 22:56:03 GMT 48.989868 10.228694 35,000 121 438 0
2018-08-18 22:55:59 GMT 48.994492 10.217003 35,000 121 438 0
2018-08-18 22:55:56 GMT 48.997253 10.210057 35,000 121 438 0
2018-08-18 22:55:53 GMT 49.000946 10.200665 34,975 121 438 0
2018-08-18 22:55:49 GMT 49.005447 10.189386 35,000 121 438 -64
2018-08-18 22:55:46 GMT 49.008007 10.182881 35,000 121 438 0
2018-08-18 22:55:42 GMT 49.011826 10.173268 35,000 121 438 0
2018-08-18 22:55:39 GMT 49.015091 10.164959 35,000 121 438 -64
2018-08-18 22:55:36 GMT 49.019302 10.154395 35,000 121 438 0
2018-08-18 22:55:33 GMT 49.021454 10.148902 35,000 121 438 0
2018-08-18 22:55:30 GMT 49.024906 10.140164 35,000 121 438 0
2018-08-18 22:55:27 GMT 49.027588 10.133409 35,000 121 438 0
2018-08-18 22:55:23 GMT 49.032959 10.119854 35,000 121 438 -64
2018-08-18 22:55:20 GMT 49.036102 10.111929 35,000 121 438 -64
2018-08-18 22:55:17 GMT 49.038483 10.105873 35,000 121 438 -64
2018-08-18 22:55:14 GMT 49.042099 10.096717 35,000 121 438 -64
2018-08-18 22:55:11 GMT 49.044971 10.089425 35,000 121 438 -64
2018-08-18 22:55:08 GMT 49.047531 10.082919 35,000 121 438 0
2018-08-18 22:55:05 GMT 49.052353 10.070801 35,000 120 438 64
2018-08-18 22:55:02 GMT 49.054504 10.065308 35,000 120 438 64
2018-08-18 22:54:58 GMT 49.057728 10.057116 35,000 120 438 64
2018-08-18 22:54:54 GMT 49.062523 10.044973 35,000 120 438 64
2018-08-18 22:54:51 GMT 49.065170 10.038194 35,000 120 438 0
2018-08-18 22:54:47 GMT 49.070248 10.025314 35,000 120 439 0
2018-08-18 22:54:44 GMT 49.072392 10.019893 35,000 120 439 0
2018-08-18 22:54:41 GMT 49.076157 10.010306 35,000 120 439 0
2018-08-18 22:54:38 GMT 49.078999 10.003124 35,000 120 439 0
2018-08-18 22:54:34 GMT 49.083096 9.992716 35,000 120 439 0
2018-08-18 22:54:31 GMT 49.086594 9.983755 35,000 120 439 0
2018-08-18 22:54:26 GMT 49.092041 9.969952 35,000 120 439 0
2018-08-18 22:54:22 GMT 49.096069 9.959670 35,000 120 439 0
2018-08-18 22:54:19 GMT 49.099297 9.951445 35,000 120 439 -64
2018-08-18 22:54:16 GMT 49.102432 9.943472 35,000 120 439 0
2018-08-18 22:54:12 GMT 49.106049 9.934170 35,000 120 439 -64
2018-08-18 22:54:09 GMT 49.109631 9.925063 35,000 120 439 -64
2018-08-18 22:54:06 GMT 49.113190 9.915936 35,000 120 439 0
2018-08-18 22:54:02 GMT 49.116989 9.906288 35,000 120 439 -64
2018-08-18 22:53:59 GMT 49.119186 9.900724 35,000 120 439 -64
2018-08-18 22:53:56 GMT 49.122620 9.891887 35,000 120 439 -64
2018-08-18 22:53:53 GMT 49.125870 9.883681 35,000 120 439 -64
2018-08-18 22:53:50 GMT 49.129135 9.875263 35,000 120 439 0
2018-08-18 22:53:46 GMT 49.133373 9.864494 35,000 120 439 0
2018-08-18 22:53:43 GMT 49.137424 9.854086 35,000 120 439 0
2018-08-18 22:53:40 GMT 49.140427 9.846497 35,000 120 439 0
2018-08-18 22:53:37 GMT 49.143661 9.838185 35,000 120 439 0
2018-08-18 22:53:32 GMT 49.147896 9.827343 35,000 120 440 0
2018-08-18 22:53:29 GMT 49.152225 9.816284 35,025 120 440 0
2018-08-18 22:53:25 GMT 49.155952 9.806671 35,000 120 441 0
2018-08-18 22:53:21 GMT 49.159515 9.797622 35,000 120 441 0
2018-08-18 22:53:18 GMT 49.162560 9.789758 35,000 120 441 0
2018-08-18 22:53:14 GMT 49.166473 9.779784 35,000 120 441 0
2018-08-18 22:53:11 GMT 49.170567 9.769375 35,000 120 441 0
2018-08-18 22:53:07 GMT 49.174026 9.760437 35,000 120 442 0
2018-08-18 22:53:04 GMT 49.177223 9.752318 35,000 120 441 0
2018-08-18 22:52:59 GMT 49.182495 9.738746 35,000 120 441 0
2018-08-18 22:52:56 GMT 49.184952 9.732441 35,000 120 441 0
2018-08-18 22:52:53 GMT 49.188446 9.723464 35,000 120 441 0
2018-08-18 22:52:49 GMT 49.192612 9.712759 35,000 120 441 64
2018-08-18 22:52:46 GMT 49.195427 9.705481 35,000 120 441 64
2018-08-18 22:52:43 GMT 49.199158 9.695928 35,000 120 441 0
2018-08-18 22:52:39 GMT 49.204227 9.682930 35,000 120 441 0
2018-08-18 22:52:36 GMT 49.205807 9.678738 35,000 120 442 0
2018-08-18 22:52:33 GMT 49.209595 9.669025 35,000 120 442 0
2018-08-18 22:52:29 GMT 49.213394 9.659236 35,000 120 442 0
2018-08-18 22:52:26 GMT 49.217010 9.649869 35,000 120 442 0
2018-08-18 22:52:23 GMT 49.219574 9.643390 35,000 120 442 0
2018-08-18 22:52:19 GMT 49.224384 9.630962 35,000 120 442 0
2018-08-18 22:52:16 GMT 49.227859 9.622052 35,000 120 442 0
2018-08-18 22:52:12 GMT 49.231133 9.613543 35,000 120 442 -64
2018-08-18 22:52:07 GMT 49.236858 9.598798 35,000 120 443 0
2018-08-18 22:52:03 GMT 49.241562 9.586655 35,000 120 442 -64
2018-08-18 22:51:58 GMT 49.246075 9.574946 35,000 120 442 0
2018-08-18 22:51:55 GMT 49.249847 9.565189 35,000 120 442 0
2018-08-18 22:51:52 GMT 49.251987 9.559551 35,000 120 442 0
2018-08-18 22:51:48 GMT 49.257431 9.545499 35,000 120 442 0
2018-08-18 22:51:45 GMT 49.260323 9.538012 35,000 120 442 0
2018-08-18 22:51:41 GMT 49.263016 9.531062 35,000 120 442 0
2018-08-18 22:51:38 GMT 49.267227 9.520146 35,000 120 442 0
2018-08-18 22:51:35 GMT 49.270374 9.511992 35,000 120 442 0
2018-08-18 22:51:31 GMT 49.274288 9.501945 35,000 120 442 0
2018-08-18 22:51:27 GMT 49.279221 9.489152 35,000 120 443 -64
2018-08-18 22:51:23 GMT 49.281738 9.482539 35,000 120 443 0
2018-08-18 22:51:20 GMT 49.284901 9.474479 35,000 120 443 0
2018-08-18 22:51:17 GMT 49.288742 9.464370 35,000 120 443 0
2018-08-18 22:51:14 GMT 49.292313 9.455214 35,000 120 442 0
2018-08-18 22:51:10 GMT 49.296387 9.444580 35,000 120 443 -64
2018-08-18 22:51:06 GMT 49.300278 9.434509 35,000 120 443 0
2018-08-18 22:51:03 GMT 49.303802 9.425185 35,000 120 443 -64
2018-08-18 22:51:00 GMT 49.305801 9.420126 35,000 120 443 -64
2018-08-18 22:50:55 GMT 49.311539 9.405142 35,025 120 443 0
2018-08-18 22:50:52 GMT 49.314693 9.396997 35,000 120 443 0
2018-08-18 22:50:49 GMT 49.317215 9.390494 35,025 120 443 0
2018-08-18 22:50:46 GMT 49.321060 9.380423 35,000 120 443 0
2018-08-18 22:50:43 GMT 49.324329 9.371988 35,000 120 443 -64
2018-08-18 22:50:39 GMT 49.328018 9.362464 35,000 120 443 0
2018-08-18 22:50:36 GMT 49.331772 9.352675 35,000 120 443 -64
2018-08-18 22:50:30 GMT 49.338364 9.335562 35,025 120 443 -64
2018-08-18 22:50:27 GMT 49.340996 9.328694 35,025 120 443 -64
2018-08-18 22:50:23 GMT 49.346146 9.315279 35,025 120 443 -64
2018-08-18 22:50:20 GMT 49.348206 9.309927 35,025 120 443 0
2018-08-18 22:50:17 GMT 49.351704 9.300722 35,025 120 444 0
2018-08-18 22:50:14 GMT 49.354752 9.292743 35,025 120 444 0
2018-08-18 22:50:11 GMT 49.358406 9.283230 35,025 120 443 0
2018-08-18 22:50:06 GMT 49.362595 9.272316 35,025 120 443 0
2018-08-18 22:50:03 GMT 49.365692 9.264151 35,025 120 444 0
2018-08-18 22:50:00 GMT 49.368851 9.255841 35,025 120 445 0
2018-08-18 22:49:56 GMT 49.373062 9.244925 35,025 120 444 0
2018-08-18 22:49:53 GMT 49.377075 9.234370 35,025 120 444 0
2018-08-18 22:49:50 GMT 49.380020 9.226685 35,025 120 444 0
2018-08-18 22:49:47 GMT 49.382263 9.220839 35,025 120 444 0
2018-08-18 22:49:44 GMT 49.385513 9.212318 35,025 120 445 0
2018-08-18 22:49:40 GMT 49.389084 9.202929 35,025 120 445 0
2018-08-18 22:49:37 GMT 49.392715 9.193388 35,025 120 445 0
2018-08-18 22:49:34 GMT 49.395950 9.184993 35,000 120 444 0
2018-08-18 22:49:30 GMT 49.399605 9.175391 35,000 120 444 0
2018-08-18 22:49:26 GMT 49.404785 9.161893 35,000 120 444 0
2018-08-18 22:49:23 GMT 49.406799 9.156541 35,000 120 444 0
2018-08-18 22:49:20 GMT 49.410965 9.145696 35,000 120 444 0
2018-08-18 22:49:16 GMT 49.414131 9.137300 35,000 120 444 0
2018-08-18 22:49:13 GMT 49.417763 9.127832 35,000 120 444 0
2018-08-18 22:49:09 GMT 49.421677 9.117455 35,000 120 445 0
2018-08-18 22:49:04 GMT 49.426701 9.104197 35,000 120 445 0
2018-08-18 22:49:01 GMT 49.429733 9.096246 35,025 120 445 -64
2018-08-18 22:48:58 GMT 49.433029 9.087549 35,025 120 445 0
2018-08-18 22:48:55 GMT 49.437172 9.076711 35,025 120 445 0
2018-08-18 22:48:52 GMT 49.439129 9.071515 35,025 120 445 0
2018-08-18 22:48:49 GMT 49.443130 9.060974 35,025 120 444 0
2018-08-18 22:48:45 GMT 49.446396 9.052301 35,000 120 444 0
2018-08-18 22:48:42 GMT 49.450470 9.041603 35,025 120 444 0
2018-08-18 22:48:38 GMT 49.453903 9.032641 35,000 120 444 0
2018-08-18 22:48:35 GMT 49.457005 9.024452 35,025 120 444 0
2018-08-18 22:48:31 GMT 49.461193 9.013391 35,000 120 445 0
2018-08-18 22:48:28 GMT 49.464981 9.003440 35,000 120 444 0
2018-08-18 22:48:24 GMT 49.468269 8.994759 35,000 120 444 0
2018-08-18 22:48:20 GMT 49.472088 8.984589 35,000 120 444 0
2018-08-18 22:48:17 GMT 49.475235 8.976264 35,025 120 444 0
2018-08-18 22:48:14 GMT 49.478001 8.969001 35,000 120 444 0
2018-08-18 22:48:11 GMT 49.481277 8.960362 35,000 120 444 0
2018-08-18 22:48:08 GMT 49.485809 8.948292 35,000 120 444 0
2018-08-18 22:48:05 GMT 49.487228 8.944606 35,000 120 444 0
2018-08-18 22:48:02 GMT 49.490986 8.934557 35,000 120 444 0
2018-08-18 22:47:59 GMT 49.493500 8.927982 35,000 120 444 0
2018-08-18 22:47:56 GMT 49.496620 8.919785 35,000 120 444 0
2018-08-18 22:47:53 GMT 49.500809 8.908576 35,000 119 444 64
2018-08-18 22:47:50 GMT 49.502857 8.903157 35,000 120 444 0
2018-08-18 22:47:46 GMT 49.507420 8.891131 35,000 120 444 0
2018-08-18 22:47:42 GMT 49.511562 8.880145 35,000 119 444 64
2018-08-18 22:47:39 GMT 49.514053 8.873628 35,000 119 444 64
2018-08-18 22:47:36 GMT 49.518356 8.862064 35,000 119 444 64
2018-08-18 22:47:32 GMT 49.521481 8.853793 35,000 119 444 64
2018-08-18 22:47:29 GMT 49.526039 8.841767 35,000 119 444 64
2018-08-18 22:47:25 GMT 49.529251 8.833156 35,000 119 444 0
2018-08-18 22:47:22 GMT 49.532913 8.823395 35,000 119 443 0
2018-08-18 22:47:18 GMT 49.536049 8.815118 35,000 119 444 0
2018-08-18 22:47:15 GMT 49.539448 8.805987 35,000 119 444 0
2018-08-18 22:47:12 GMT 49.542572 8.797664 35,000 119 444 0
2018-08-18 22:47:09 GMT 49.545685 8.789285 35,000 119 443 0
2018-08-18 22:47:05 GMT 49.550812 8.775691 35,000 119 444 0
2018-08-18 22:47:01 GMT 49.553009 8.769764 34,975 119 443 0
2018-08-18 22:46:58 GMT 49.557220 8.758561 35,000 119 444 0
2018-08-18 22:46:55 GMT 49.560165 8.750759 35,000 119 444 0
2018-08-18 22:46:52 GMT 49.563171 8.742804 35,000 120 443 0
2018-08-18 22:46:48 GMT 49.566959 8.732646 34,975 120 443 0
2018-08-18 22:46:44 GMT 49.571869 8.719603 34,975 120 443 0
2018-08-18 22:46:40 GMT 49.574455 8.712752 35,000 119 444 0
2018-08-18 22:46:36 GMT 49.578693 8.701469 34,975 120 443 0
2018-08-18 22:46:33 GMT 49.581711 8.693366 34,975 119 443 0
2018-08-18 22:46:30 GMT 49.585442 8.683356 34,975 119 443 0
2018-08-18 22:46:27 GMT 49.588669 8.674790 34,975 119 443 0
2018-08-18 22:46:23 GMT 49.592743 8.663876 34,975 119 443 0
2018-08-18 22:46:20 GMT 49.596542 8.653757 35,000 119 443 0
2018-08-18 22:46:17 GMT 49.599270 8.646463 35,000 119 443 0
2018-08-18 22:46:14 GMT 49.602036 8.639085 35,000 119 443 0
2018-08-18 22:46:11 GMT 49.605133 8.630800 35,000 119 443 0
2018-08-18 22:46:08 GMT 49.607738 8.623748 35,000 119 443 0
2018-08-18 22:46:05 GMT 49.611145 8.614655 35,000 119 443 0
2018-08-18 22:46:02 GMT 49.613605 8.608011 35,000 119 443 0
2018-08-18 22:45:59 GMT 49.617142 8.598536 35,000 119 443 0
2018-08-18 22:45:56 GMT 49.620216 8.590269 35,000 119 443 0
2018-08-18 22:45:53 GMT 49.623184 8.582274 35,000 119 443 0
2018-08-18 22:45:50 GMT 49.626175 8.574309 35,000 119 442 64
2018-08-18 22:45:47 GMT 49.629948 8.564214 35,000 119 442 64
2018-08-18 22:45:44 GMT 49.632507 8.557385 35,000 119 443 64
2018-08-18 22:45:40 GMT 49.637604 8.543533 34,975 119 443 0
2018-08-18 22:45:37 GMT 49.639526 8.538256 34,975 117 442 0
2018-08-18 22:45:34 GMT 49.641911 8.531552 35,000 118 443 0
2018-08-18 22:45:31 GMT 49.646240 8.519007 35,000 117 442 -64
2018-08-18 22:45:27 GMT 49.649185 8.510284 35,000 117 442 -64
2018-08-18 22:45:24 GMT 49.652012 8.501785 35,000 117 442 0
2018-08-18 22:45:20 GMT 49.655224 8.492060 35,000 117 442 0
2018-08-18 22:45:16 GMT 49.660034 8.477687 35,000 117 442 0
2018-08-18 22:45:13 GMT 49.661865 8.472194 35,000 117 442 0
2018-08-18 22:45:10 GMT 49.665207 8.462075 35,000 117 442 -64
2018-08-18 22:45:07 GMT 49.667885 8.453979 35,000 117 442 0
2018-08-18 22:45:03 GMT 49.671158 8.444150 35,000 117 442 -64
2018-08-18 22:44:58 GMT 49.675846 8.430003 35,000 117 442 0
2018-08-18 22:44:55 GMT 49.678665 8.421526 35,000 117 442 0
2018-08-18 22:44:52 GMT 49.681152 8.413968 35,000 117 442 0
2018-08-18 22:44:48 GMT 49.685669 8.400349 35,000 117 442 0
2018-08-18 22:44:45 GMT 49.689423 8.389146 35,000 117 442 0
2018-08-18 22:44:42 GMT 49.690838 8.384795 35,000 116 443 0
2018-08-18 22:44:39 GMT 49.694748 8.373067 35,000 116 443 0
2018-08-18 22:44:35 GMT 49.697388 8.365005 35,000 116 443 0
2018-08-18 22:44:32 GMT 49.700100 8.356810 35,000 116 444 0
2018-08-18 22:44:27 GMT 49.704391 8.343755 35,000 116 443 0
2018-08-18 22:44:24 GMT 49.707596 8.334095 35,000 116 443 0
2018-08-18 22:44:21 GMT 49.710068 8.326553 35,000 116 443 0
2018-08-18 22:44:18 GMT 49.713959 8.314843 35,000 116 444 0
2018-08-18 22:44:14 GMT 49.717209 8.304941 35,000 116 444 0
2018-08-18 22:44:11 GMT 49.719177 8.299014 35,000 116 444 0
2018-08-18 22:44:08 GMT 49.722630 8.288516 35,000 116 444 0
2018-08-18 22:44:05 GMT 49.725174 8.280873 35,000 116 444 0
2018-08-18 22:44:02 GMT 49.728836 8.269669 35,000 116 444 0
2018-08-18 22:43:57 GMT 49.732910 8.257310 35,000 116 444 0
2018-08-18 22:43:54 GMT 49.736664 8.245890 35,000 116 444 0
2018-08-18 22:43:50 GMT 49.739391 8.237519 35,000 116 444 0
2018-08-18 22:43:47 GMT 49.742649 8.227572 35,000 116 444 0
2018-08-18 22:43:43 GMT 49.745865 8.217773 35,000 116 444 0
2018-08-18 22:43:40 GMT 49.748608 8.209459 35,000 116 444 0
2018-08-18 22:43:36 GMT 49.752426 8.197731 35,000 116 446 0
2018-08-18 22:43:33 GMT 49.754700 8.190814 35,000 116 445 -64
2018-08-18 22:43:30 GMT 49.757965 8.180880 35,000 116 445 -64
2018-08-18 22:43:25 GMT 49.763367 8.164252 35,000 116 445 -64
2018-08-18 22:43:22 GMT 49.765320 8.158388 35,025 116 446 -64
2018-08-18 22:43:19 GMT 49.767746 8.151060 35,025 116 449 0
2018-08-18 22:43:16 GMT 49.771133 8.140652 35,025 116 447 0
2018-08-18 22:43:13 GMT 49.773979 8.131961 35,025 116 446 0
2018-08-18 22:43:09 GMT 49.777176 8.122149 35,000 116 448 64
2018-08-18 22:43:06 GMT 49.780563 8.111813 35,000 116 448 64
2018-08-18 22:43:03 GMT 49.783337 8.103308 35,000 116 449 64
2018-08-18 22:42:59 GMT 49.787014 8.092099 35,000 116 445 960
2018-08-18 22:42:54 GMT 49.791203 8.079331 35,000 116 449 64
2018-08-18 22:42:51 GMT 49.794067 8.070470 35,000 116 449 64
2018-08-18 22:42:48 GMT 49.797729 8.059267 35,000 116 445 960
2018-08-18 22:42:43 GMT 49.801254 8.048425 35,000 116 449 -64
2018-08-18 22:42:40 GMT 49.804050 8.039765 35,000 116 449 0
2018-08-18 22:42:37 GMT 49.808006 8.027665 35,000 116 447 128
2018-08-18 22:42:32 GMT 49.812424 8.014165 35,000 116 446 320
2018-08-18 22:42:27 GMT 49.816498 8.001733 34,975 116 445 960
2018-08-18 22:42:23 GMT 49.820572 7.989229 34,750 116 446 1024
2018-08-18 22:42:20 GMT 49.822674 7.982829 34,725 116 445 960
2018-08-18 22:42:17 GMT 49.825836 7.973111 34,850 116 446 960
2018-08-18 22:42:14 GMT 49.829315 7.962486 34,750 116 446 960
2018-08-18 22:42:11 GMT 49.831650 7.955403 34,725 116 446 960
2018-08-18 22:42:08 GMT 49.834496 7.946604 34,700 116 447 960
2018-08-18 22:42:05 GMT 49.837849 7.936286 34,625 115 446 960
2018-08-18 22:42:01 GMT 49.841061 7.926116 34,550 114 446 960
2018-08-18 22:41:58 GMT 49.843479 7.918099 34,550 114 446 960
2018-08-18 22:41:55 GMT 49.846207 7.909000 34,425 114 447 960
2018-08-18 22:41:51 GMT 49.849812 7.897017 34,400 114 447 960
2018-08-18 22:41:48 GMT 49.851673 7.890633 34,375 114 448 1024
2018-08-18 22:41:45 GMT 49.854675 7.880594 34,350 114 448 1024
2018-08-18 22:41:42 GMT 49.858063 7.869102 34,125 114 449 1024
2018-08-18 22:41:39 GMT 49.860752 7.859975 34,225 114 448 1024
2018-08-18 22:41:36 GMT 49.862427 7.854482 34,175 114 449 1024
2018-08-18 22:41:33 GMT 49.865917 7.842679 34,125 114 449 960
2018-08-18 22:41:30 GMT 49.868546 7.833830 34,075 114 449 960
2018-08-18 22:41:26 GMT 49.872025 7.821977 34,025 114 450 960
2018-08-18 22:41:22 GMT 49.875458 7.810484 33,950 114 450 960
2018-08-18 22:41:19 GMT 49.877106 7.804774 33,900 114 451 1024
2018-08-18 22:41:16 GMT 49.881001 7.791608 33,850 114 451 960
2018-08-18 22:41:13 GMT 49.882816 7.785447 33,775 114 451 960
2018-08-18 22:41:10 GMT 49.885052 7.777801 33,525 114 452 1088
2018-08-18 22:41:07 GMT 49.887680 7.768924 33,700 114 451 1024
2018-08-18 22:41:04 GMT 49.890358 7.759911 33,325 114 452 1088
2018-08-18 22:40:59 GMT 49.895153 7.743580 33,575 114 452 1216
2018-08-18 22:40:55 GMT 49.898228 7.733113 33,450 114 455 1600
2018-08-18 22:40:52 GMT 49.900818 7.724328 33,450 114 453 1344
2018-08-18 22:40:49 GMT 49.902924 7.717245 33,375 114 454 1536
2018-08-18 22:40:46 GMT 49.905582 7.708245 33,225 114 456 1536
2018-08-18 22:40:43 GMT 49.908703 7.697630 33,225 114 456 1536
2018-08-18 22:40:38 GMT 49.912609 7.684417 33,025 114 458 1536
2018-08-18 22:40:35 GMT 49.914963 7.676408 33,050 114 458 1472
2018-08-18 22:40:32 GMT 49.918102 7.665710 32,950 114 459 1472
2018-08-18 22:40:29 GMT 49.921036 7.655615 32,875 114 460 1344
2018-08-18 22:40:25 GMT 49.924072 7.645256 32,750 114 461 1280
2018-08-18 22:40:22 GMT 49.926949 7.635498 32,725 114 461 1152
2018-08-18 22:40:19 GMT 49.930302 7.624066 32,675 114 461 1024
2018-08-18 22:40:13 GMT 49.935188 7.607438 32,575 114 462 1024
2018-08-18 22:40:10 GMT 49.937424 7.600015 32,500 114 465 768
2018-08-18 22:40:07 GMT 49.940777 7.588435 32,475 114 462 1024
2018-08-18 22:40:04 GMT 49.942963 7.581086 32,375 114 462 1024
2018-08-18 22:40:01 GMT 49.945633 7.571965 32,375 114 462 1024
2018-08-18 22:39:58 GMT 49.948269 7.562899 32,325 114 463 1024
2018-08-18 22:39:55 GMT 49.951061 7.553472 32,250 114 463 1024
2018-08-18 22:39:52 GMT 49.953827 7.543921 32,225 114 464 1024
2018-08-18 22:39:49 GMT 49.957161 7.532464 32,025 114 464 1024
2018-08-18 22:39:46 GMT 49.958977 7.526303 31,600 114 464 1024
2018-08-18 22:39:42 GMT 49.962616 7.513781 32,050 114 464 1024
2018-08-18 22:39:39 GMT 49.964996 7.505614 31,800 114 465 768
2018-08-18 22:39:36 GMT 49.968475 7.493688 31,925 114 464 1088
2018-08-18 22:39:33 GMT 49.969803 7.489134 31,750 114 465 1024
2018-08-18 22:39:30 GMT 49.972477 7.479908 31,825 114 464 1024
2018-08-18 22:39:27 GMT 49.976063 7.467660 31,800 114 465 1024
2018-08-18 22:39:22 GMT 49.980881 7.451043 31,675 114 465 960
2018-08-18 22:39:19 GMT 49.982712 7.444827 31,675 114 465 960
2018-08-18 22:39:15 GMT 49.987141 7.429579 31,600 114 465 960
2018-08-18 22:39:12 GMT 49.990074 7.419557 31,500 114 465 1024
2018-08-18 22:39:09 GMT 49.991795 7.413470 31,500 114 465 960
2018-08-18 22:39:05 GMT 49.994934 7.402761 31,350 114 465 1024
2018-08-18 22:39:02 GMT 49.997242 7.394838 31,400 114 461 768
2018-08-18 22:38:59 GMT 50.001247 7.381105 31,350 114 465 1024
2018-08-18 22:38:56 GMT 50.002831 7.375686 31,225 114 466 1024
2018-08-18 22:38:53 GMT 50.005829 7.365393 31,225 114 466 1024
2018-08-18 22:38:49 GMT 50.009441 7.352897 31,150 114 466 1024
2018-08-18 22:38:46 GMT 50.011627 7.345400 31,075 114 466 1024
2018-08-18 22:38:43 GMT 50.014664 7.335036 31,050 114 466 1024
2018-08-18 22:38:40 GMT 50.018097 7.323255 31,025 114 466 960
2018-08-18 22:38:37 GMT 50.019562 7.318196 30,975 114 466 960
2018-08-18 22:38:34 GMT 50.022659 7.307541 30,925 114 466 960
2018-08-18 22:38:30 GMT 50.025734 7.296926 30,600 113 462 1600
2018-08-18 22:38:27 GMT 50.028580 7.287116 30,825 114 465 896
2018-08-18 22:38:24 GMT 50.030899 7.279185 30,775 114 465 832
2018-08-18 22:38:21 GMT 50.034718 7.265897 30,725 114 465 768
2018-08-18 22:38:18 GMT 50.037369 7.256831 30,700 114 465 640
2018-08-18 22:38:13 GMT 50.041470 7.242663 30,675 114 464 320
2018-08-18 22:38:10 GMT 50.043961 7.233991 30,625 114 463 384
2018-08-18 22:38:07 GMT 50.046112 7.226619 30,650 114 463 384
2018-08-18 22:38:04 GMT 50.049316 7.215416 30,600 114 462 640
2018-08-18 22:38:01 GMT 50.051468 7.208043 30,575 114 461 768
2018-08-18 22:37:58 GMT 50.053944 7.199460 30,525 114 461 960
2018-08-18 22:37:55 GMT 50.056412 7.190769 30,500 114 461 1088
2018-08-18 22:37:52 GMT 50.059063 7.181644 30,450 114 461 1152
2018-08-18 22:37:49 GMT 50.063068 7.167688 30,375 114 461 1280
2018-08-18 22:37:46 GMT 50.064880 7.161351 30,300 113 465 1792
2018-08-18 22:37:43 GMT 50.067169 7.153473 30,275 113 462 1536
2018-08-18 22:37:39 GMT 50.070877 7.140535 30,000 113 463 1664
2018-08-18 22:37:35 GMT 50.074448 7.128103 29,950 113 465 1792
2018-08-18 22:37:31 GMT 50.078522 7.113722 29,925 114 466 1728
2018-08-18 22:37:28 GMT 50.079922 7.108971 29,825 113 466 1792
2018-08-18 22:37:25 GMT 50.082916 7.098469 29,775 113 467 1600
2018-08-18 22:37:22 GMT 50.086487 7.086109 29,450 113 468 960
2018-08-18 22:37:19 GMT 50.087814 7.081484 29,650 113 468 1088
2018-08-18 22:37:16 GMT 50.091248 7.069485 29,550 114 468 1088
2018-08-18 22:37:13 GMT 50.093491 7.061607 29,475 113 468 1024
2018-08-18 22:37:10 GMT 50.096169 7.052332 29,450 113 468 1024
2018-08-18 22:37:07 GMT 50.098755 7.043321 29,350 113 468 960
2018-08-18 22:37:04 GMT 50.101379 7.034071 29,350 113 467 1024
2018-08-18 22:37:01 GMT 50.104454 7.023456 29,325 113 467 1024
2018-08-18 22:36:58 GMT 50.106548 7.016107 29,275 113 467 1024
2018-08-18 22:36:55 GMT 50.109329 7.006314 29,175 113 468 1024
2018-08-18 22:36:52 GMT 50.111576 6.998588 29,200 113 467 1088
2018-08-18 22:36:49 GMT 50.115021 6.986562 29,125 113 467 1088
2018-08-18 22:36:46 GMT 50.116882 6.980030 28,850 113 468 1024
2018-08-18 22:36:42 GMT 50.120888 6.966000 28,975 113 466 832
2018-08-18 22:36:38 GMT 50.124050 6.954940 28,825 113 466 832
2018-08-18 22:36:34 GMT 50.128418 6.939601 28,875 113 466 896
2018-08-18 22:36:31 GMT 50.131313 6.929330 28,800 113 466 832
2018-08-18 22:36:28 GMT 50.133129 6.923020 28,800 113 463 832
2018-08-18 22:36:25 GMT 50.135376 6.915171 28,725 113 465 832
2018-08-18 22:36:22 GMT 50.138855 6.902883 28,725 113 465 832
2018-08-18 22:36:17 GMT 50.142998 6.888428 28,650 113 464 896
2018-08-18 22:36:14 GMT 50.145466 6.879817 28,550 113 464 896
2018-08-18 22:36:11 GMT 50.148010 6.870792 28,475 113 457 1216
2018-08-18 22:36:07 GMT 50.152122 6.856360 28,475 113 462 832
2018-08-18 22:36:04 GMT 50.153893 6.850198 28,475 113 463 832
2018-08-18 22:36:01 GMT 50.156708 6.840218 28,375 113 462 1024
2018-08-18 22:35:58 GMT 50.159245 6.831195 28,350 113 462 960
2018-08-18 22:35:55 GMT 50.162086 6.821322 28,350 113 462 1024
2018-08-18 22:35:52 GMT 50.164993 6.811017 28,300 113 461 1152
2018-08-18 22:35:49 GMT 50.167053 6.803790 28,200 113 457 1152
2018-08-18 22:35:45 GMT 50.169937 6.793598 26,925 113 457 1152
2018-08-18 22:35:42 GMT 50.172932 6.782944 28,125 113 461 1152
2018-08-18 22:35:39 GMT 50.175247 6.774951 28,075 113 461 1152
2018-08-18 22:35:36 GMT 50.177914 6.765574 27,975 113 461 960
2018-08-18 22:35:31 GMT 50.182526 6.749219 27,925 113 460 704
2018-08-18 22:35:28 GMT 50.185081 6.740187 27,900 113 458 768
2018-08-18 22:35:24 GMT 50.188751 6.727174 27,850 113 458 640
2018-08-18 22:35:21 GMT 50.190994 6.719296 27,800 113 458 896
2018-08-18 22:35:18 GMT 50.193508 6.710420 27,675 113 457 960
2018-08-18 22:35:15 GMT 50.196030 6.701588 27,750 113 457 1216
2018-08-18 22:35:11 GMT 50.199097 6.690674 27,675 113 457 1216
2018-08-18 22:35:08 GMT 50.202026 6.680356 27,125 113 457 1216
2018-08-18 22:35:05 GMT 50.204590 6.671159 27,475 113 457 1088
2018-08-18 22:35:02 GMT 50.207241 6.661872 27,500 113 457 1152
2018-08-18 22:34:59 GMT 50.210545 6.649995 27,400 113 457 1088
2018-08-18 22:34:56 GMT 50.212646 6.642609 27,375 113 456 1088
2018-08-18 22:34:52 GMT 50.215942 6.630827 27,325 113 456 1152
2018-08-18 22:34:49 GMT 50.219376 6.618612 27,250 113 456 1152
2018-08-18 22:34:46 GMT 50.221115 6.612324 27,100 113 456 1216
2018-08-18 22:34:43 GMT 50.223358 6.604301 26,950 113 454 1088
2018-08-18 22:34:40 GMT 50.226105 6.594688 27,100 113 455 1152
2018-08-18 22:34:37 GMT 50.228302 6.586810 27,000 113 454 1088
2018-08-18 22:34:34 GMT 50.230984 6.577322 26,975 113 453 1088
2018-08-18 22:34:31 GMT 50.233959 6.566632 26,925 113 454 1024
2018-08-18 22:34:27 GMT 50.236954 6.556019 26,875 113 454 1088
2018-08-18 22:34:24 GMT 50.239361 6.547480 26,750 113 453 1088
2018-08-18 22:34:19 GMT 50.243134 6.533974 26,725 113 453 1088
2018-08-18 22:34:16 GMT 50.246113 6.523281 26,600 113 448 1344
2018-08-18 22:34:13 GMT 50.249603 6.510884 26,600 113 451 896
2018-08-18 22:34:10 GMT 50.251373 6.504557 26,525 113 451 896
2018-08-18 22:34:05 GMT 50.256306 6.486981 26,475 113 450 960
2018-08-18 22:34:02 GMT 50.257889 6.481266 26,450 113 450 960
2018-08-18 22:33:59 GMT 50.260025 6.473477 26,375 113 450 960
2018-08-18 22:33:55 GMT 50.263458 6.461334 26,275 113 449 1088
2018-08-18 22:33:52 GMT 50.265755 6.453132 26,100 113 449 1088
2018-08-18 22:33:48 GMT 50.269527 6.439547 26,225 113 448 1216
2018-08-18 22:33:45 GMT 50.271652 6.431845 26,150 113 448 1344
2018-08-18 22:33:42 GMT 50.274509 6.421731 26,100 113 448 1536
2018-08-18 22:33:39 GMT 50.277206 6.412007 25,900 113 448 1664
2018-08-18 22:33:36 GMT 50.279305 6.404510 25,900 113 448 1664
2018-08-18 22:33:33 GMT 50.281723 6.395778 25,750 113 448 1728
2018-08-18 22:33:30 GMT 50.285248 6.383201 25,725 113 448 1280
2018-08-18 22:33:27 GMT 50.287403 6.375411 25,700 113 448 1280
2018-08-18 22:33:24 GMT 50.289219 6.369027 25,575 113 449 1472
2018-08-18 22:33:20 GMT 50.292244 6.358189 25,550 113 449 1408
2018-08-18 22:33:16 GMT 50.296143 6.344243 25,400 113 448 1280
2018-08-18 22:33:13 GMT 50.298248 6.336582 25,275 113 448 1280
2018-08-18 22:33:10 GMT 50.300812 6.327531 25,325 113 448 1280
2018-08-18 22:33:07 GMT 50.303604 6.317510 25,175 113 447 1152
2018-08-18 22:33:02 GMT 50.307816 6.302394 25,125 113 446 1216
2018-08-18 22:32:59 GMT 50.310215 6.293756 25,000 113 446 1280
2018-08-18 22:32:56 GMT 50.312355 6.286110 25,050 113 446 1216
2018-08-18 22:32:52 GMT 50.316467 6.271242 24,950 113 446 1216
2018-08-18 22:32:49 GMT 50.318592 6.263692 24,875 113 445 1216
2018-08-18 22:32:46 GMT 50.320953 6.255196 24,825 113 445 1216
2018-08-18 22:32:43 GMT 50.323715 6.245059 24,725 113 444 1024
2018-08-18 22:32:40 GMT 50.325806 6.237632 24,750 113 444 1088
2018-08-18 22:32:35 GMT 50.329147 6.225562 24,675 113 444 960
2018-08-18 22:32:32 GMT 50.331955 6.215441 24,600 113 442 960
2018-08-18 22:32:28 GMT 50.335304 6.203267 24,550 113 442 960
2018-08-18 22:32:25 GMT 50.337387 6.195711 24,525 113 442 1024
2018-08-18 22:32:21 GMT 50.341496 6.180775 24,350 113 439 1216
2018-08-18 22:32:18 GMT 50.343796 6.172437 24,375 113 439 1216
2018-08-18 22:32:15 GMT 50.345764 6.165426 24,175 113 438 1280
2018-08-18 22:32:12 GMT 50.349014 6.153572 24,250 113 438 1280
2018-08-18 22:32:08 GMT 50.352356 6.141502 24,175 113 438 1216
2018-08-18 22:32:05 GMT 50.353867 6.135937 24,075 113 437 1088
2018-08-18 22:32:02 GMT 50.356441 6.126659 24,075 113 437 1088
2018-08-18 22:31:59 GMT 50.359280 6.116193 24,025 113 436 1152
2018-08-18 22:31:56 GMT 50.360767 6.110848 23,975 113 436 1280
2018-08-18 22:31:53 GMT 50.363113 6.102399 23,925 113 435 1408
2018-08-18 22:31:50 GMT 50.366409 6.090329 23,825 113 435 1472
2018-08-18 22:31:46 GMT 50.369194 6.080265 23,525 113 435 1664
2018-08-18 22:31:42 GMT 50.373001 6.066477 23,600 113 435 1728
2018-08-18 22:31:39 GMT 50.374741 6.060116 23,400 113 435 1536
2018-08-18 22:31:36 GMT 50.377110 6.051463 23,425 113 435 1664
2018-08-18 22:31:33 GMT 50.379364 6.043276 23,400 113 435 1600
2018-08-18 22:31:29 GMT 50.382835 6.030678 23,250 113 435 1408
2018-08-18 22:31:25 GMT 50.386002 6.019097 23,200 113 435 1344
2018-08-18 22:31:22 GMT 50.387722 6.012936 23,050 113 434 1408
2018-08-18 22:31:18 GMT 50.390984 6.001059 23,050 113 434 1344
2018-08-18 22:31:15 GMT 50.393555 5.991596 22,950 113 432 1216
2018-08-18 22:31:12 GMT 50.395638 5.983986 22,925 113 432 1280
2018-08-18 22:31:09 GMT 50.398895 5.972109 22,775 113 431 1216
2018-08-18 22:31:04 GMT 50.402618 5.958493 22,750 113 430 1280
2018-08-18 22:31:01 GMT 50.404495 5.951626 22,575 113 430 1344
2018-08-18 22:30:58 GMT 50.406761 5.943232 22,550 113 430 1408
2018-08-18 22:30:55 GMT 50.409256 5.934135 22,550 113 429 1472
2018-08-18 22:30:52 GMT 50.411186 5.926976 22,450 113 429 1472
2018-08-18 22:30:49 GMT 50.414677 5.914282 22,400 113 428 1472
2018-08-18 22:30:46 GMT 50.416626 5.907031 22,325 113 428 1472
2018-08-18 22:30:43 GMT 50.418961 5.898545 22,275 113 428 1472
2018-08-18 22:30:40 GMT 50.421661 5.888600 22,100 113 427 1472
2018-08-18 22:30:37 GMT 50.423538 5.881805 22,150 113 427 1536
2018-08-18 22:30:33 GMT 50.426559 5.870675 22,000 113 427 1536
2018-08-18 22:30:30 GMT 50.428986 5.861712 21,825 113 426 1536
2018-08-18 22:30:27 GMT 50.430954 5.854484 21,900 113 426 1536
2018-08-18 22:30:22 GMT 50.434647 5.840941 21,775 113 425 1472
2018-08-18 22:30:19 GMT 50.438000 5.828692 21,675 113 425 1472
2018-08-18 22:30:16 GMT 50.439163 5.824461 21,575 113 423 1472
2018-08-18 22:30:13 GMT 50.441940 5.814297 21,500 113 423 1472
2018-08-18 22:30:10 GMT 50.444641 5.804467 21,500 113 422 1472
2018-08-18 22:30:05 GMT 50.448334 5.790834 21,375 113 422 1408
2018-08-18 22:30:01 GMT 50.451141 5.780543 21,300 113 421 1344
2018-08-18 22:29:58 GMT 50.453842 5.770641 21,175 112 420 1152
2018-08-18 22:29:54 GMT 50.457413 5.757486 21,125 113 419 960
2018-08-18 22:29:51 GMT 50.458557 5.753294 21,100 113 419 960
2018-08-18 22:29:48 GMT 50.461090 5.743845 21,050 112 416 896
2018-08-18 22:29:44 GMT 50.463696 5.734344 20,975 112 414 1088
2018-08-18 22:29:41 GMT 50.466431 5.724166 20,925 112 413 1152
2018-08-18 22:29:38 GMT 50.469360 5.713324 20,875 112 412 1344
2018-08-18 22:29:35 GMT 50.470779 5.708048 20,850 113 411 1600
2018-08-18 22:29:30 GMT 50.474636 5.693813 20,675 112 411 1856
2018-08-18 22:29:27 GMT 50.476822 5.685714 20,525 112 411 1920
2018-08-18 22:29:24 GMT 50.478874 5.678076 20,275 112 411 1856
2018-08-18 22:29:20 GMT 50.481758 5.667386 20,350 112 411 1856
2018-08-18 22:29:17 GMT 50.484367 5.657736 20,200 112 411 1856
2018-08-18 22:29:14 GMT 50.485947 5.651946 20,150 112 411 1792
2018-08-18 22:29:11 GMT 50.489021 5.640514 20,125 112 411 1792
2018-08-18 22:29:07 GMT 50.491814 5.630196 20,000 112 411 1856
2018-08-18 22:29:04 GMT 50.493725 5.622996 19,675 112 408 1792
2018-08-18 22:29:01 GMT 50.496002 5.614664 19,375 112 409 1792
2018-08-18 22:28:58 GMT 50.498428 5.605702 19,775 112 410 1728
2018-08-18 22:28:54 GMT 50.500938 5.596272 19,675 112 410 1728
2018-08-18 22:28:51 GMT 50.503189 5.587993 19,575 112 409 1728
2018-08-18 22:28:48 GMT 50.505753 5.578453 19,500 112 409 1792
2018-08-18 22:28:44 GMT 50.508389 5.568584 19,375 112 409 1792
2018-08-18 22:28:40 GMT 50.511658 5.556480 19,250 112 407 1792
2018-08-18 22:28:37 GMT 50.514587 5.545494 17,875 112 402 1856
2018-08-18 22:28:34 GMT 50.515694 5.541489 19,000 112 406 1856
2018-08-18 22:28:30 GMT 50.519348 5.527858 18,925 112 406 1856
2018-08-18 22:28:27 GMT 50.521133 5.521280 18,875 112 406 1920
2018-08-18 22:28:24 GMT 50.523281 5.513207 18,725 112 406 1856
2018-08-18 22:28:21 GMT 50.525208 5.506174 18,725 112 406 1792
2018-08-18 22:28:18 GMT 50.527863 5.496127 18,600 112 405 1664
2018-08-18 22:28:15 GMT 50.529877 5.488683 18,500 112 405 1664
2018-08-18 22:28:12 GMT 50.532120 5.480226 18,425 112 404 1664
2018-08-18 22:28:09 GMT 50.533997 5.473143 18,375 112 404 1664
2018-08-18 22:28:06 GMT 50.536560 5.463674 18,250 112 403 1728
2018-08-18 22:28:03 GMT 50.539158 5.453895 18,200 112 403 1728
2018-08-18 22:28:00 GMT 50.540554 5.448773 18,100 112 402 1792
2018-08-18 22:27:57 GMT 50.543346 5.438307 18,025 112 402 1856
2018-08-18 22:27:54 GMT 50.545624 5.429776 17,900 112 401 1920
2018-08-18 22:27:51 GMT 50.547043 5.424572 17,825 112 401 1984
2018-08-18 22:27:47 GMT 50.549561 5.415103 17,775 112 401 1920
2018-08-18 22:27:44 GMT 50.552238 5.405051 17,625 112 399 1536
2018-08-18 22:27:41 GMT 50.554985 5.394807 17,550 112 399 1536
2018-08-18 22:27:38 GMT 50.557114 5.386915 17,475 112 398 1472
2018-08-18 22:27:35 GMT 50.558624 5.381277 17,425 112 398 1472
2018-08-18 22:27:31 GMT 50.561234 5.371375 17,300 112 396 1536
2018-08-18 22:27:28 GMT 50.564209 5.360172 17,250 112 396 1664
2018-08-18 22:27:25 GMT 50.565674 5.354823 17,150 112 395 1920
2018-08-18 22:27:22 GMT 50.567833 5.346556 17,000 112 395 2304
2018-08-18 22:27:19 GMT 50.569611 5.340006 16,975 112 395 1600
2018-08-18 22:27:16 GMT 50.572311 5.329887 16,850 112 395 2560
2018-08-18 22:27:12 GMT 50.575058 5.319551 16,650 112 396 2240
2018-08-18 22:27:09 GMT 50.577236 5.311296 16,600 112 396 2048
2018-08-18 22:27:06 GMT 50.579407 5.303216 16,500 112 396 1856
2018-08-18 22:27:03 GMT 50.581238 5.296350 16,375 112 394 1664
2018-08-18 22:27:00 GMT 50.583103 5.289249 16,350 112 394 1664
2018-08-18 22:26:57 GMT 50.586037 5.278263 16,200 112 393 1600
2018-08-18 22:26:54 GMT 50.587433 5.272992 16,150 112 392 1600
2018-08-18 22:26:50 GMT 50.590458 5.261635 16,100 112 390 1600
2018-08-18 22:26:47 GMT 50.592224 5.254790 15,975 112 387 1728
2018-08-18 22:26:44 GMT 50.594696 5.245610 15,875 112 388 1728
2018-08-18 22:26:41 GMT 50.597443 5.235282 15,700 112 385 1664
2018-08-18 22:26:37 GMT 50.599182 5.228769 15,700 112 386 1600
2018-08-18 22:26:34 GMT 50.602249 5.217205 15,625 112 384 1664
2018-08-18 22:26:31 GMT 50.603302 5.213302 15,600 112 384 1664
2018-08-18 22:26:27 GMT 50.607079 5.199057 15,450 112 383 1792
2018-08-18 22:26:24 GMT 50.608101 5.195197 15,400 112 383 1856
2018-08-18 22:26:21 GMT 50.610443 5.186270 15,300 112 382 2176
2018-08-18 22:26:16 GMT 50.614105 5.172464 15,050 112 381 2496
2018-08-18 22:26:13 GMT 50.616249 5.164465 14,975 112 381 2496
2018-08-18 22:26:10 GMT 50.618362 5.156346 14,850 112 381 2432
2018-08-18 22:26:04 GMT 50.622719 5.139894 14,600 112 381 1984
2018-08-18 22:26:00 GMT 50.624439 5.133362 14,525 112 379 2048
2018-08-18 22:25:56 GMT 50.627884 5.120352 14,350 112 378 2112
2018-08-18 22:25:53 GMT 50.629517 5.114136 14,275 112 378 2112
2018-08-18 22:25:50 GMT 50.631424 5.106935 14,175 112 377 2176
2018-08-18 22:25:43 GMT 50.635849 5.090067 13,525 112 375 2176
2018-08-18 22:25:40 GMT 50.638504 5.079876 13,800 112 376 2240
2018-08-18 22:25:35 GMT 50.641991 5.066553 13,625 112 375 2112
2018-08-18 22:25:32 GMT 50.643906 5.059421 13,500 112 373 1792
2018-08-18 22:25:29 GMT 50.645187 5.054434 13,475 112 373 1792
2018-08-18 22:25:24 GMT 50.649307 5.038822 13,275 112 370 1600
2018-08-18 22:25:21 GMT 50.650543 5.034051 13,250 112 369 1664
2018-08-18 22:25:18 GMT 50.652046 5.028398 13,200 112 368 1728
2018-08-18 22:25:13 GMT 50.655807 5.014247 13,025 112 358 1664
2018-08-18 22:25:09 GMT 50.658611 5.003604 12,925 112 363 1664
2018-08-18 22:25:05 GMT 50.661682 4.991950 12,775 112 361 1664
2018-08-18 22:25:02 GMT 50.662708 4.988090 12,675 112 360 1664
2018-08-18 22:24:58 GMT 50.665222 4.978440 12,650 112 358 1664
2018-08-18 22:24:52 GMT 50.669632 4.961773 12,425 112 355 1664
2018-08-18 22:24:48 GMT 50.671875 4.953275 12,350 112 352 1664
2018-08-18 22:24:43 GMT 50.674805 4.942066 12,200 112 349 1664
2018-08-18 22:24:40 GMT 50.676765 4.934540 11,875 112 331 1728
2018-08-18 22:24:37 GMT 50.678905 4.926376 12,050 112 345 1664
2018-08-18 22:24:30 GMT 50.682861 4.911260 11,850 112 340 1664
2018-08-18 22:24:27 GMT 50.684601 4.904505 11,800 112 340 1664
2018-08-18 22:24:22 GMT 50.687614 4.893036 11,650 112 337 1728
2018-08-18 22:24:19 GMT 50.689659 4.885101 11,525 112 331 1728
2018-08-18 22:24:16 GMT 50.690826 4.880753 11,525 112 332 1728
2018-08-18 22:24:12 GMT 50.693432 4.870682 11,400 112 330 1728
2018-08-18 22:24:08 GMT 50.695953 4.861079 11,125 112 326 1728
2018-08-18 22:24:05 GMT 50.697189 4.856328 11,200 112 327 1728
2018-08-18 22:24:01 GMT 50.699902 4.845886 11,075 112 323 1728
2018-08-18 22:23:58 GMT 50.701485 4.839935 10,575 112 322 1728
2018-08-18 22:23:55 GMT 50.702957 4.834207 10,925 112 320 1728
2018-08-18 22:23:51 GMT 50.705582 4.824219 10,775 112 316 1664
2018-08-18 22:23:48 GMT 50.706978 4.818802 10,575 112 299 2176
2018-08-18 22:23:45 GMT 50.708679 4.812383 10,650 112 313 1664
2018-08-18 22:23:41 GMT 50.710968 4.803475 10,500 112 309 1664
2018-08-18 22:23:38 GMT 50.712662 4.797017 10,475 112 308 1600
2018-08-18 22:23:35 GMT 50.714615 4.789581 10,375 112 306 1536
2018-08-18 22:23:31 GMT 50.716476 4.782333 10,225 112 302 1920
2018-08-18 22:23:28 GMT 50.717918 4.776840 10,175 112 300 2240
2018-08-18 22:23:25 GMT 50.719299 4.771630 10,075 112 300 2240
2018-08-18 22:23:22 GMT 50.721588 4.762796 9,975 112 298 2176
2018-08-18 22:23:18 GMT 50.723133 4.756775 9,800 112 297 2240
2018-08-18 22:23:15 GMT 50.724792 4.750473 9,750 112 296 2368
2018-08-18 22:23:12 GMT 50.726112 4.745560 9,600 112 295 2688
2018-08-18 22:23:09 GMT 50.727859 4.738819 9,500 112 295 2880
2018-08-18 22:23:06 GMT 50.729645 4.731915 9,150 112 295 2944
2018-08-18 22:23:02 GMT 50.731510 4.724731 9,200 112 295 2880
2018-08-18 22:22:58 GMT 50.733719 4.716178 8,925 112 295 2688
2018-08-18 22:22:55 GMT 50.735229 4.710462 8,875 112 295 2688
2018-08-18 22:22:52 GMT 50.736538 4.705429 8,500 112 293 2496
2018-08-18 22:22:49 GMT 50.738400 4.698257 8,550 112 292 2496
2018-08-18 22:22:46 GMT 50.739750 4.693069 8,525 112 292 2432
2018-08-18 22:22:42 GMT 50.741940 4.684601 8,300 111 291 2752
2018-08-18 22:22:39 GMT 50.743523 4.678421 8,225 111 291 2688
2018-08-18 22:22:36 GMT 50.745071 4.672456 8,100 112 290 2880
2018-08-18 22:22:32 GMT 50.747040 4.664884 7,900 112 290 3072
2018-08-18 22:22:28 GMT 50.749016 4.657135 7,725 114 289 2688
2018-08-18 22:22:25 GMT 50.750244 4.652339 7,600 112 290 2944
2018-08-18 22:22:21 GMT 50.752350 4.644322 7,350 113 290 2688
2018-08-18 22:22:18 GMT 50.754135 4.637833 7,250 114 289 2688
2018-08-18 22:22:14 GMT 50.756512 4.630051 6,975 120 287 2432
2018-08-18 22:22:11 GMT 50.758484 4.624502 6,975 120 287 2432
2018-08-18 22:22:07 GMT 50.761368 4.617301 6,825 124 285 2304
2018-08-18 22:22:04 GMT 50.763977 4.611585 6,650 126 282 2496
2018-08-18 22:22:01 GMT 50.765854 4.607577 6,600 126 282 2496
2018-08-18 22:21:56 GMT 50.769871 4.599152 6,325 126 280 2496
2018-08-18 22:21:53 GMT 50.772263 4.594067 6,250 126 280 2496
2018-08-18 22:21:49 GMT 50.775551 4.587173 6,100 126 278 2240
2018-08-18 22:21:44 GMT 50.779274 4.579391 5,900 126 275 2240
2018-08-18 22:21:41 GMT 50.781601 4.574432 5,225 126 269 3072
2018-08-18 22:21:37 GMT 50.785046 4.567184 5,600 126 270 2752
2018-08-18 22:21:34 GMT 50.787186 4.562592 5,500 126 270 2880
2018-08-18 22:21:31 GMT 50.789471 4.557800 5,350 126 270 3008
2018-08-18 22:21:26 GMT 50.792866 4.550705 5,150 126 270 3072
2018-08-18 22:21:23 GMT 50.795105 4.545890 4,975 126 269 3200
2018-08-18 22:21:20 GMT 50.797104 4.541626 4,850 126 269 3200
2018-08-18 22:21:16 GMT 50.800507 4.534533 4,600 126 270 2752
2018-08-18 22:21:13 GMT 50.803017 4.529190 4,475 126 269 2560
2018-08-18 22:21:09 GMT 50.806133 4.522629 4,325 126 267 2048
2018-08-18 22:21:04 GMT 50.809753 4.515010 4,175 126 263 1536
2018-08-18 22:21:00 GMT 50.812271 4.509739 4,100 126 259 1280
2018-08-18 22:20:55 GMT 50.815910 4.502029 3,975 126 251 1344
2018-08-18 22:20:52 GMT 50.818268 4.496971 3,925 126 248 1024
2018-08-18 22:20:48 GMT 50.820518 4.492264 3,875 126 242 512
2018-08-18 22:20:44 GMT 50.823219 4.486542 3,850 126 234 320
2018-08-18 22:20:40 GMT 50.826141 4.480195 3,800 125 228 1024
2018-08-18 22:20:34 GMT 50.829712 4.472326 3,700 125 220 960
2018-08-18 22:20:29 GMT 50.832184 4.466907 3,625 125 215 960
2018-08-18 22:20:26 GMT 50.834564 4.461563 3,575 125 209 896
2018-08-18 22:20:23 GMT 50.835571 4.459410 3,475 126 204 960
2018-08-18 22:20:19 GMT 50.837769 4.454659 3,450 127 201 896
2018-08-18 22:20:13 GMT 50.841747 4.446640 3,375 130 195 960
2018-08-18 22:20:10 GMT 50.843491 4.443599 3,350 136 188 576
2018-08-18 22:20:07 GMT 50.845139 4.441223 3,325 150 177 640
2018-08-18 22:20:04 GMT 50.847977 4.438031 3,275 150 177 640
2018-08-18 22:20:01 GMT 50.849030 4.437066 3,225 156 171 768
2018-08-18 22:19:58 GMT 50.851246 4.435349 3,225 160 168 768
2018-08-18 22:19:52 GMT 50.855946 4.433136 3,150 169 160 704
2018-08-18 22:19:48 GMT 50.858833 4.432526 3,075 187 149 1728
2018-08-18 22:19:42 GMT 50.863403 4.432612 2,925 188 149 1792
2018-08-18 22:19:37 GMT 50.866196 4.433429 2,800 195 147 1792
2018-08-18 22:19:31 GMT 50.870468 4.435654 2,475 221 141 1984
2018-08-18 22:19:27 GMT 50.873123 4.437866 2,525 211 143 1472
2018-08-18 22:19:22 GMT 50.875900 4.440852 2,375 219 141 1792
2018-08-18 22:19:19 GMT 50.876953 4.442188 2,325 221 141 1984
2018-08-18 22:19:16 GMT 50.878429 4.444275 2,225 225 142 2304
2018-08-18 22:19:12 GMT 50.880291 4.447403 2,050 231 143 2752
2018-08-18 22:19:09 GMT 50.881393 4.449463 1,925 236 146 2944
2018-08-18 22:19:06 GMT 50.882572 4.452515 1,775 246 149 3328
2018-08-18 22:18:59 GMT 50.884716 4.460907 1,300 251 151 3520
We lost coverage of the aircraft here for a total of 107 minutes
2018-08-18 20:32:17 GMT 50.915039 4.511150 50 245 135 -704
2018-08-18 20:32:09 GMT 50.917145 4.518499 150 247 135 -704
2018-08-18 20:32:00 GMT 50.919525 4.526887 250 246 134 -704
2018-08-18 20:31:48 GMT 50.922562 4.537430 400 246 134 -640
2018-08-18 20:31:40 GMT 50.924835 4.545371 500 246 135 -768
2018-08-18 20:31:37 GMT 50.925632 4.548111 550 246 135 -768
2018-08-18 20:31:31 GMT 50.926895 4.552497 600 246 133 -704
2018-08-18 20:31:27 GMT 50.927948 4.556134 650 246 133 -704
2018-08-18 20:31:20 GMT 50.929729 4.562225 750 246 133 -704
2018-08-18 20:31:16 GMT 50.930756 4.565811 775 246 132 -640
2018-08-18 20:31:08 GMT 50.932758 4.572830 900 246 132 -704
2018-08-18 20:31:04 GMT 50.933735 4.576263 925 246 132 -640
2018-08-18 20:31:01 GMT 50.934757 4.579849 950 246 132 -576
2018-08-18 20:30:56 GMT 50.935829 4.583511 1,000 246 132 -640
2018-08-18 20:30:52 GMT 50.936947 4.587326 1,050 246 135 -832
2018-08-18 20:30:48 GMT 50.938202 4.591840 1,100 246 134 -768
2018-08-18 20:30:44 GMT 50.939072 4.594735 1,150 246 136 -896
2018-08-18 20:30:40 GMT 50.940018 4.598083 1,200 246 136 -960
2018-08-18 20:30:34 GMT 50.941727 4.603940 1,375 246 138 -832
2018-08-18 20:30:29 GMT 50.942825 4.607651 1,350 246 139 -640
2018-08-18 20:30:24 GMT 50.944160 4.612350 1,400 246 141 -768
2018-08-18 20:30:20 GMT 50.945572 4.617153 1,450 246 141 -704
2018-08-18 20:30:15 GMT 50.946861 4.621811 1,500 246 144 -896
2018-08-18 20:30:12 GMT 50.947422 4.623795 1,600 246 147 -896
2018-08-18 20:30:09 GMT 50.948364 4.627026 1,700 247 147 -512
2018-08-18 20:30:05 GMT 50.949703 4.631729 1,650 246 148 -896
2018-08-18 20:30:02 GMT 50.950745 4.635191 1,700 247 147 -512
2018-08-18 20:29:59 GMT 50.951340 4.637418 1,725 247 147 -320
2018-08-18 20:29:55 GMT 50.952541 4.641647 1,750 247 147 -64
2018-08-18 20:29:52 GMT 50.953285 4.644241 1,750 247 148 0
2018-08-18 20:29:48 GMT 50.954590 4.648924 1,750 247 150 -64
2018-08-18 20:29:44 GMT 50.955521 4.652252 1,750 247 151 64
2018-08-18 20:29:41 GMT 50.956375 4.655234 1,725 247 154 64
2018-08-18 20:29:38 GMT 50.957291 4.658508 1,725 247 157 0
2018-08-18 20:29:34 GMT 50.958500 4.662781 1,725 244 161 0
2018-08-18 20:29:31 GMT 50.959259 4.665552 1,725 246 161 64
2018-08-18 20:29:27 GMT 50.960735 4.670563 1,725 244 161 -64
2018-08-18 20:29:24 GMT 50.961666 4.673538 1,725 244 161 -64
2018-08-18 20:29:21 GMT 50.962646 4.676687 1,725 244 162 0
2018-08-18 20:29:18 GMT 50.963573 4.679489 1,725 243 161 0
2018-08-18 20:29:15 GMT 50.964787 4.683228 1,725 242 161 0
2018-08-18 20:29:11 GMT 50.966320 4.687653 1,725 240 161 0
2018-08-18 20:29:08 GMT 50.967251 4.690323 1,750 240 161 0
2018-08-18 20:29:05 GMT 50.968601 4.693985 1,750 239 161 0
2018-08-18 20:29:01 GMT 50.969925 4.697323 1,750 235 160 64
2018-08-18 20:28:58 GMT 50.971298 4.700590 1,750 234 161 64
2018-08-18 20:28:55 GMT 50.972488 4.703039 1,750 232 160 64
2018-08-18 20:28:52 GMT 50.973629 4.705276 1,725 228 160 0
2018-08-18 20:28:48 GMT 50.976379 4.709720 1,750 221 162 0
2018-08-18 20:28:44 GMT 50.978897 4.712986 1,725 219 163 0
2018-08-18 20:28:40 GMT 50.980751 4.715347 1,725 219 164 0
2018-08-18 20:28:37 GMT 50.982559 4.717663 1,725 219 164 0
2018-08-18 20:28:33 GMT 50.984802 4.720558 1,725 219 164 0
2018-08-18 20:28:30 GMT 50.986572 4.722824 1,725 220 164 0
2018-08-18 20:28:27 GMT 50.988571 4.725342 1,750 220 164 0
2018-08-18 20:28:23 GMT 50.990993 4.728546 1,750 220 163 0
2018-08-18 20:28:19 GMT 50.992996 4.731099 1,725 220 162 64
2018-08-18 20:28:16 GMT 50.994762 4.733429 1,725 219 162 0
2018-08-18 20:28:09 GMT 50.998856 4.738745 1,725 220 162 0
2018-08-18 20:28:06 GMT 51.000584 4.740906 1,725 220 162 64
2018-08-18 20:28:03 GMT 51.002335 4.743199 1,725 220 162 -128
2018-08-18 20:28:00 GMT 51.004028 4.745483 1,725 220 161 192
2018-08-18 20:27:55 GMT 51.006775 4.748989 1,725 220 161 -128
2018-08-18 20:27:50 GMT 51.009800 4.752960 1,725 219 162 64
2018-08-18 20:27:47 GMT 51.011444 4.755076 1,725 220 162 0
2018-08-18 20:27:43 GMT 51.014145 4.758639 1,725 220 163 0
2018-08-18 20:27:39 GMT 51.016525 4.761682 1,725 220 163 0
2018-08-18 20:27:36 GMT 51.017902 4.763489 1,725 220 163 0
2018-08-18 20:27:30 GMT 51.021767 4.768372 1,750 219 162 -128
2018-08-18 20:27:27 GMT 51.023209 4.770219 1,750 218 161 -64
2018-08-18 20:27:18 GMT 51.029251 4.777345 1,750 214 160 0
2018-08-18 20:27:10 GMT 51.034241 4.781874 1,750 197 173 -64
2018-08-18 20:27:07 GMT 51.036118 4.782913 1,750 195 175 -64
2018-08-18 20:27:00 GMT 51.043076 4.784101 1,775 177 192 128
2018-08-18 20:26:57 GMT 51.045319 4.784012 1,775 178 196 -448
2018-08-18 20:26:51 GMT 51.049667 4.783729 1,775 177 195 -256
2018-08-18 20:26:48 GMT 51.053146 4.783581 1,800 178 196 -512
2018-08-18 20:26:45 GMT 51.054977 4.783432 1,825 178 196 -768
2018-08-18 20:26:42 GMT 51.058777 4.783284 1,875 178 196 -1152
2018-08-18 20:26:38 GMT 51.061565 4.783173 1,975 178 197 -896
2018-08-18 20:26:35 GMT 51.064545 4.782987 2,000 178 197 -896
2018-08-18 20:26:32 GMT 51.068344 4.782839 2,050 178 200 -640
2018-08-18 20:26:28 GMT 51.070740 4.782715 2,075 178 201 -640
2018-08-18 20:26:25 GMT 51.074230 4.782562 2,100 178 203 -704
2018-08-18 20:26:19 GMT 51.080189 4.782257 2,200 177 205 -1024
2018-08-18 20:26:13 GMT 51.086472 4.781799 2,275 176 206 -1024
2018-08-18 20:26:08 GMT 51.090271 4.781280 2,375 173 208 -1024
2018-08-18 20:26:03 GMT 51.095993 4.780018 2,475 165 211 -960
2018-08-18 20:25:58 GMT 51.099739 4.778519 2,550 160 213 -832
2018-08-18 20:25:53 GMT 51.104370 4.775935 2,725 149 241 -384
2018-08-18 20:25:48 GMT 51.109177 4.772891 2,675 158 217 -768
2018-08-18 20:25:43 GMT 51.113754 4.769922 2,725 158 225 -128
2018-08-18 20:25:38 GMT 51.119247 4.766433 2,725 157 226 -128
2018-08-18 20:25:35 GMT 51.122223 4.764481 2,750 157 230 -128
2018-08-18 20:25:31 GMT 51.125336 4.762499 2,750 157 230 -128
2018-08-18 20:25:28 GMT 51.128632 4.760272 2,750 157 230 -128
2018-08-18 20:25:24 GMT 51.133072 4.757154 2,750 144 245 -704
2018-08-18 20:25:17 GMT 51.139023 4.752032 2,775 146 243 -576
2018-08-18 20:25:13 GMT 51.142776 4.747578 2,825 120 260 -1600
2018-08-18 20:25:10 GMT 51.144943 4.744339 2,975 134 250 -1152
2018-08-18 20:25:06 GMT 51.147968 4.738998 2,950 128 253 -1152
2018-08-18 20:25:02 GMT 51.151272 4.732361 3,175 126 257 -1280
2018-08-18 20:24:59 GMT 51.153488 4.727758 3,075 127 255 -1088
2018-08-18 20:24:56 GMT 51.155556 4.723511 3,125 126 257 -1280
2018-08-18 20:24:53 GMT 51.157333 4.719890 3,175 127 257 -1216
2018-08-18 20:24:50 GMT 51.159931 4.714355 3,250 126 259 -1280
2018-08-18 20:24:46 GMT 51.162769 4.708252 3,425 121 261 -1664
2018-08-18 20:24:42 GMT 51.165333 4.702301 3,575 121 261 -1664
2018-08-18 20:24:39 GMT 51.167175 4.697398 3,500 119 261 -1600
2018-08-18 20:24:36 GMT 51.169235 4.691533 3,675 115 261 -1728
2018-08-18 20:24:33 GMT 51.170872 4.685974 3,675 115 261 -1728
2018-08-18 20:24:29 GMT 51.172348 4.680547 3,875 112 261 -1856
2018-08-18 20:24:26 GMT 51.174408 4.672753 3,900 112 262 -1920
2018-08-18 20:24:23 GMT 51.175369 4.669115 3,950 112 260 -1920
2018-08-18 20:24:19 GMT 51.177063 4.662657 4,100 112 261 -2624
2018-08-18 20:24:14 GMT 51.179436 4.653397 4,375 112 259 -2496
2018-08-18 20:24:11 GMT 51.181438 4.645691 4,500 112 258 -2176
2018-08-18 20:24:08 GMT 51.182182 4.643021 4,575 112 258 -2240
2018-08-18 20:24:05 GMT 51.184048 4.635849 4,700 112 260 -1856
2018-08-18 20:24:01 GMT 51.185860 4.628906 4,875 112 261 -1728
2018-08-18 20:23:57 GMT 51.187317 4.623388 5,100 113 265 -1664
2018-08-18 20:23:53 GMT 51.189423 4.615520 5,025 112 264 -1664
2018-08-18 20:23:48 GMT 51.192032 4.605573 6,125 113 282 -1088
2018-08-18 20:23:41 GMT 51.195499 4.592819 5,375 113 269 -1984
2018-08-18 20:23:38 GMT 51.196793 4.588128 5,525 113 269 -1984
2018-08-18 20:23:33 GMT 51.198853 4.580482 5,600 113 270 -1792
2018-08-18 20:23:30 GMT 51.200821 4.573430 5,700 113 272 -1536
2018-08-18 20:23:27 GMT 51.201782 4.569793 5,800 113 272 -1408
2018-08-18 20:23:23 GMT 51.204117 4.561256 5,925 113 274 -1216
2018-08-18 20:23:19 GMT 51.206577 4.552231 5,975 113 276 -1152
2018-08-18 20:23:16 GMT 51.207825 4.547672 6,000 113 275 -1152
2018-08-18 20:23:13 GMT 51.209152 4.542772 6,050 113 276 -1216
2018-08-18 20:23:10 GMT 51.210396 4.538193 6,100 113 276 -1216
2018-08-18 20:23:07 GMT 51.211945 4.532528 6,150 113 277 -1152
2018-08-18 20:23:03 GMT 51.214371 4.523546 6,250 113 279 -1024
2018-08-18 20:22:59 GMT 51.216385 4.516197 6,350 113 282 -1088
2018-08-18 20:22:56 GMT 51.217888 4.510651 6,550 113 282 -1088
2018-08-18 20:22:52 GMT 51.220367 4.501648 7,275 114 282 -1600
2018-08-18 20:22:49 GMT 51.221695 4.496897 6,525 113 283 -1472
2018-08-18 20:22:46 GMT 51.223480 4.490439 6,800 113 283 -1600
2018-08-18 20:22:41 GMT 51.225952 4.481605 6,725 114 283 -1728
2018-08-18 20:22:38 GMT 51.227829 4.475073 6,825 114 282 -1600
2018-08-18 20:22:34 GMT 51.229622 4.468765 6,875 114 283 -1344
2018-08-18 20:22:31 GMT 51.231216 4.463344 7,000 114 283 -1408
2018-08-18 20:22:28 GMT 51.233414 4.455773 7,050 115 283 -1280
2018-08-18 20:22:25 GMT 51.235161 4.449768 7,100 115 283 -1280
2018-08-18 20:22:22 GMT 51.236324 4.445801 7,175 114 284 -1280
2018-08-18 20:22:19 GMT 51.238724 4.437660 7,250 114 285 -1280
2018-08-18 20:22:16 GMT 51.240189 4.432686 7,275 114 285 -1280
2018-08-18 20:22:12 GMT 51.242203 4.425783 7,350 114 286 -1344
2018-08-18 20:22:08 GMT 51.244308 4.418582 7,500 114 286 -1472
2018-08-18 20:22:05 GMT 51.245960 4.412842 7,600 114 286 -1664
2018-08-18 20:22:02 GMT 51.247833 4.406408 7,650 114 286 -1600
2018-08-18 20:21:59 GMT 51.249298 4.401509 7,675 114 286 -1536
2018-08-18 20:21:56 GMT 51.250988 4.395676 7,825 114 286 -1344
2018-08-18 20:21:52 GMT 51.253464 4.387182 7,850 114 286 -1344
2018-08-18 20:21:49 GMT 51.255478 4.380204 7,925 114 287 -1280
2018-08-18 20:21:46 GMT 51.256851 4.375528 8,050 114 288 -1088
2018-08-18 20:21:42 GMT 51.259094 4.367882 8,050 114 290 -832
2018-08-18 20:21:38 GMT 51.260765 4.362106 8,075 114 290 -768
2018-08-18 20:21:35 GMT 51.262951 4.354477 8,100 114 294 -832
2018-08-18 20:21:32 GMT 51.264488 4.349213 8,150 114 294 -832
2018-08-18 20:21:28 GMT 51.266628 4.341736 8,350 114 296 -1216
2018-08-18 20:21:24 GMT 51.268864 4.334106 8,350 115 297 -1920
2018-08-18 20:21:21 GMT 51.271191 4.326172 8,400 115 297 -1920
2018-08-18 20:21:18 GMT 51.272404 4.321976 8,600 115 295 -1792
2018-08-18 20:21:15 GMT 51.273880 4.317107 8,625 115 296 -1856
2018-08-18 20:21:12 GMT 51.276215 4.309387 8,650 115 296 -1792
2018-08-18 20:21:08 GMT 51.278454 4.301682 8,750 115 295 -1792
2018-08-18 20:21:05 GMT 51.280315 4.295425 8,875 115 294 -2048
2018-08-18 20:21:02 GMT 51.282074 4.289567 8,925 115 295 -1792
2018-08-18 20:20:57 GMT 51.285110 4.279327 9,075 115 294 -1984
2018-08-18 20:20:53 GMT 51.287766 4.270477 9,250 115 293 -2048
2018-08-18 20:20:50 GMT 51.289215 4.265665 9,450 115 293 -2112
2018-08-18 20:20:47 GMT 51.290588 4.260914 9,400 115 291 -2048
2018-08-18 20:20:44 GMT 51.292465 4.254608 9,575 115 291 -1664
2018-08-18 20:20:41 GMT 51.294159 4.248814 9,575 115 291 -1664
2018-08-18 20:20:38 GMT 51.296356 4.241317 9,675 115 292 -960
2018-08-18 20:20:33 GMT 51.298691 4.233374 9,725 115 294 -704
2018-08-18 20:20:30 GMT 51.300148 4.228516 9,750 115 296 -1088
2018-08-18 20:20:27 GMT 51.302124 4.221794 9,850 115 297 -1664
2018-08-18 20:20:24 GMT 51.304367 4.214222 9,925 115 297 -1664
2018-08-18 20:20:21 GMT 51.306473 4.207021 10,000 115 297 -1600
2018-08-18 20:20:18 GMT 51.307316 4.204102 10,050 114 296 -1536
2018-08-18 20:20:14 GMT 51.309460 4.196777 10,200 114 297 -1472
2018-08-18 20:20:11 GMT 51.311646 4.189280 10,225 114 297 -1472
2018-08-18 20:20:08 GMT 51.313183 4.184036 10,275 114 298 -1472
2018-08-18 20:20:03 GMT 51.316132 4.173840 10,425 114 298 -1472
2018-08-18 20:20:00 GMT 51.318329 4.166342 10,600 114 298 -1536
2018-08-18 20:19:56 GMT 51.320351 4.159317 10,600 114 298 -1536
2018-08-18 20:19:53 GMT 51.322308 4.152603 10,675 114 299 -1536
2018-08-18 20:19:50 GMT 51.323841 4.147263 10,925 114 299 -1344
2018-08-18 20:19:47 GMT 51.325607 4.141252 10,800 114 299 -1344
2018-08-18 20:19:42 GMT 51.328812 4.130266 10,925 114 298 -768
2018-08-18 20:19:38 GMT 51.330826 4.123230 11,000 114 297 0
2018-08-18 20:19:34 GMT 51.332920 4.116135 11,000 114 297 0
2018-08-18 20:19:31 GMT 51.334579 4.110371 11,000 114 296 -64
2018-08-18 20:19:28 GMT 51.337051 4.101760 11,000 114 296 -64
2018-08-18 20:19:25 GMT 51.338287 4.097529 11,000 114 296 -64
2018-08-18 20:19:22 GMT 51.340668 4.089289 11,000 114 294 -192
2018-08-18 20:19:19 GMT 51.341583 4.086172 11,000 114 294 -64
2018-08-18 20:19:15 GMT 51.343781 4.078452 11,000 114 294 -128
2018-08-18 20:19:12 GMT 51.346115 4.070360 11,025 114 295 -192
2018-08-18 20:19:09 GMT 51.347862 4.064407 11,025 114 296 -448
2018-08-18 20:19:03 GMT 51.350739 4.054549 11,100 114 298 -896
2018-08-18 20:19:00 GMT 51.352982 4.046829 11,075 114 298 -832
2018-08-18 20:18:54 GMT 51.356232 4.035471 11,175 114 299 -960
2018-08-18 20:18:51 GMT 51.358013 4.029465 11,225 114 300 -960
2018-08-18 20:18:48 GMT 51.359894 4.022926 11,275 114 301 -960
2018-08-18 20:18:43 GMT 51.362228 4.014835 11,350 114 302 -1024
2018-08-18 20:18:40 GMT 51.364792 4.005927 11,425 114 305 -1088
2018-08-18 20:18:37 GMT 51.365982 4.001770 11,500 114 306 -1088
2018-08-18 20:18:33 GMT 51.368500 3.993159 11,600 114 307 -1088
2018-08-18 20:18:30 GMT 51.370163 3.987274 11,600 114 308 -1088
2018-08-18 20:18:27 GMT 51.372211 3.980331 11,600 114 310 -1152
2018-08-18 20:18:23 GMT 51.374725 3.971634 11,700 114 310 -1152
2018-08-18 20:18:19 GMT 51.377331 3.962708 11,800 114 312 -1088
2018-08-18 20:18:15 GMT 51.379028 3.956711 11,925 114 313 -960
2018-08-18 20:18:12 GMT 51.380962 3.950119 11,925 114 323 -1152
2018-08-18 20:18:08 GMT 51.383743 3.940380 11,950 114 314 -960
2018-08-18 20:18:02 GMT 51.387909 3.925905 12,050 114 315 -1024
2018-08-18 20:17:58 GMT 51.390381 3.917368 12,125 114 316 -1024
2018-08-18 20:17:55 GMT 51.391388 3.913879 12,150 114 316 -1024
2018-08-18 20:17:50 GMT 51.394650 3.902588 12,250 114 319 -1088
2018-08-18 20:17:47 GMT 51.396469 3.896286 12,275 114 335 0
2018-08-18 20:17:43 GMT 51.398529 3.889012 12,325 114 322 -1088
2018-08-18 20:17:38 GMT 51.402050 3.876801 12,475 114 323 -1152
2018-08-18 20:17:35 GMT 51.403564 3.871493 12,525 114 324 -1152
2018-08-18 20:17:32 GMT 51.405823 3.863678 12,600 114 325 -1216
2018-08-18 20:17:28 GMT 51.408287 3.854980 12,675 114 326 -1280
2018-08-18 20:17:24 GMT 51.410755 3.846359 12,700 114 327 -1344
2018-08-18 20:17:21 GMT 51.412674 3.839722 13,975 114 328 -1536
2018-08-18 20:17:18 GMT 51.415192 3.830888 12,875 114 328 -1472
2018-08-18 20:17:14 GMT 51.417179 3.824005 12,925 114 329 -1472
2018-08-18 20:17:09 GMT 51.420856 3.811264 13,100 114 330 -1472
2018-08-18 20:17:05 GMT 51.422653 3.805055 13,150 114 331 -1472
2018-08-18 20:17:01 GMT 51.425262 3.795851 13,250 114 331 -1472
2018-08-18 20:16:57 GMT 51.428493 3.784561 13,375 114 332 -1472
2018-08-18 20:16:54 GMT 51.430298 3.778109 13,425 114 332 -1472
2018-08-18 20:16:49 GMT 51.433182 3.768162 13,625 114 334 -1536
2018-08-18 20:16:46 GMT 51.434868 3.762131 13,675 114 334 -1536
2018-08-18 20:16:43 GMT 51.437149 3.754272 13,900 114 334 -1600
2018-08-18 20:16:36 GMT 51.441479 3.739166 13,850 114 335 -1664
2018-08-18 20:16:33 GMT 51.444214 3.729413 13,950 114 335 -1792
2018-08-18 20:16:30 GMT 51.445496 3.724959 14,025 114 335 -1792
2018-08-18 20:16:24 GMT 51.448883 3.713226 14,450 114 335 -1920
2018-08-18 20:16:19 GMT 51.452271 3.701279 14,475 114 334 -1856
2018-08-18 20:16:14 GMT 51.455585 3.689728 14,500 114 334 -1856
2018-08-18 20:16:11 GMT 51.457771 3.682022 14,725 114 333 -1344
2018-08-18 20:16:08 GMT 51.459263 3.676910 15,000 114 333 -1344
2018-08-18 20:16:04 GMT 51.462196 3.666611 14,850 114 333 -1344
2018-08-18 20:15:59 GMT 51.465134 3.656220 14,875 114 334 -960
2018-08-18 20:15:56 GMT 51.467789 3.646867 14,925 114 335 -640
2018-08-18 20:15:53 GMT 51.468796 3.643304 14,950 114 335 -512
2018-08-18 20:15:50 GMT 51.471878 3.632584 14,975 114 335 -256
2018-08-18 20:15:47 GMT 51.472824 3.629274 15,000 114 335 -192
2018-08-18 20:15:44 GMT 51.475250 3.620663 15,000 114 334 64
2018-08-18 20:15:40 GMT 51.477467 3.612900 15,000 114 335 -64
2018-08-18 20:15:37 GMT 51.479416 3.606040 15,000 114 335 -64
2018-08-18 20:15:32 GMT 51.482399 3.595657 15,000 114 335 0
2018-08-18 20:15:29 GMT 51.484543 3.588075 15,000 114 335 64
2018-08-18 20:15:26 GMT 51.486122 3.582458 15,000 114 335 64
2018-08-18 20:15:23 GMT 51.488480 3.574268 15,000 114 335 0
2018-08-18 20:15:20 GMT 51.490677 3.566474 15,000 114 334 0
2018-08-18 20:15:17 GMT 51.492325 3.560610 15,000 114 334 0
2018-08-18 20:15:12 GMT 51.495110 3.550797 15,000 114 334 0
2018-08-18 20:15:07 GMT 51.498367 3.539453 15,000 114 334 0
2018-08-18 20:15:03 GMT 51.501717 3.527679 15,000 114 333 0
2018-08-18 20:14:59 GMT 51.503952 3.519856 15,000 114 333 0
2018-08-18 20:14:56 GMT 51.505859 3.513031 15,000 114 333 0
2018-08-18 20:14:52 GMT 51.508713 3.502931 15,000 114 333 0
2018-08-18 20:14:48 GMT 51.511002 3.494840 15,000 114 333 0
2018-08-18 20:14:45 GMT 51.513123 3.487320 15,000 114 332 0
2018-08-18 20:14:41 GMT 51.515396 3.479251 15,000 114 332 0
2018-08-18 20:14:38 GMT 51.517365 3.472422 15,000 114 332 -64
2018-08-18 20:14:35 GMT 51.519222 3.465652 15,000 114 332 -64
2018-08-18 20:14:32 GMT 51.521210 3.458689 15,000 114 332 -64
2018-08-18 20:14:29 GMT 51.522858 3.452899 15,025 114 333 -64
2018-08-18 20:14:26 GMT 51.524918 3.445476 15,000 114 333 -64
2018-08-18 20:14:21 GMT 51.527802 3.435306 15,000 114 334 -64
2018-08-18 20:14:17 GMT 51.531094 3.423538 15,000 114 334 -64
2018-08-18 20:14:14 GMT 51.532562 3.418307 15,000 114 335 0
2018-08-18 20:14:10 GMT 51.535049 3.409424 15,000 114 336 64
2018-08-18 20:14:03 GMT 51.540169 3.391190 15,000 114 339 64
2018-08-18 20:13:59 GMT 51.542637 3.382416 14,975 114 341 0
2018-08-18 20:13:54 GMT 51.545975 3.370650 15,000 114 347 0
2018-08-18 20:13:50 GMT 51.547665 3.364563 15,000 114 346 -128
2018-08-18 20:13:45 GMT 51.551529 3.350830 15,000 114 347 0
2018-08-18 20:13:42 GMT 51.553940 3.342219 15,000 114 347 0
2018-08-18 20:13:38 GMT 51.555626 3.336258 15,000 114 347 0
2018-08-18 20:13:35 GMT 51.557785 3.328560 15,000 114 347 0
2018-08-18 20:13:29 GMT 51.561676 3.314605 15,000 114 347 0
2018-08-18 20:13:25 GMT 51.564331 3.305177 15,000 114 347 0
2018-08-18 20:13:20 GMT 51.567902 3.292558 15,000 114 346 0
2018-08-18 20:13:14 GMT 51.571640 3.279114 15,000 114 347 0
2018-08-18 20:13:09 GMT 51.574631 3.268507 15,000 114 347 -64
2018-08-18 20:13:06 GMT 51.576572 3.261642 15,000 114 347 -64
2018-08-18 20:13:02 GMT 51.579414 3.251419 15,000 114 347 0
2018-08-18 20:12:59 GMT 51.581837 3.242874 15,000 114 347 0
2018-08-18 20:12:54 GMT 51.584908 3.231812 15,000 114 343 -64
2018-08-18 20:12:51 GMT 51.586945 3.224562 15,000 114 347 0
2018-08-18 20:12:48 GMT 51.588493 3.218994 15,000 114 347 0
2018-08-18 20:12:44 GMT 51.591568 3.208008 15,000 114 347 0
2018-08-18 20:12:41 GMT 51.593891 3.199615 15,000 114 346 0
2018-08-18 20:12:37 GMT 51.596146 3.191677 15,000 114 346 0
2018-08-18 20:12:33 GMT 51.598343 3.183808 15,000 113 339 0
2018-08-18 20:12:29 GMT 51.601364 3.173045 15,000 113 339 0
2018-08-18 20:12:26 GMT 51.603062 3.166962 15,000 114 346 0
2018-08-18 20:12:23 GMT 51.606125 3.155971 15,000 114 345 0
2018-08-18 20:12:16 GMT 51.610565 3.140011 15,000 114 343 -64
2018-08-18 20:12:12 GMT 51.612232 3.134155 15,000 114 343 -64
2018-08-18 20:12:08 GMT 51.614887 3.124466 15,025 114 340 -64
2018-08-18 20:12:05 GMT 51.617077 3.116684 15,025 114 339 -64
2018-08-18 20:12:01 GMT 51.619583 3.107795 15,025 114 337 128
2018-08-18 20:11:58 GMT 51.622196 3.098297 15,000 114 335 0
2018-08-18 20:11:55 GMT 51.623451 3.093719 15,000 113 334 0
2018-08-18 20:11:51 GMT 51.625534 3.086342 15,000 114 333 64
2018-08-18 20:11:46 GMT 51.629288 3.072831 15,000 114 333 -64
2018-08-18 20:11:42 GMT 51.632298 3.062057 15,000 114 333 -64
2018-08-18 20:11:35 GMT 51.635971 3.048706 15,000 113 333 0
2018-08-18 20:11:32 GMT 51.637558 3.042984 15,000 113 333 0
2018-08-18 20:11:28 GMT 51.640503 3.032375 15,000 113 333 0
2018-08-18 20:11:24 GMT 51.642445 3.025284 15,000 113 333 0
2018-08-18 20:11:21 GMT 51.644669 3.017306 15,000 113 333 0
2018-08-18 20:11:16 GMT 51.647427 3.007278 15,000 113 333 -64
2018-08-18 20:11:13 GMT 51.650219 2.997208 15,000 113 333 -64
2018-08-18 20:11:04 GMT 51.655342 2.978745 15,000 113 333 0
2018-08-18 20:10:58 GMT 51.659065 2.965240 15,000 113 333 0
2018-08-18 20:10:55 GMT 51.661488 2.956467 15,000 114 333 0
2018-08-18 20:10:48 GMT 51.666000 2.940105 15,000 113 333 64
2018-08-18 20:10:44 GMT 51.668106 2.932533 15,000 114 333 0
2018-08-18 20:10:41 GMT 51.669434 2.927708 15,000 114 333 0
2018-08-18 20:10:37 GMT 51.672657 2.916031 15,000 113 334 -64
2018-08-18 20:10:32 GMT 51.675217 2.906799 15,000 114 333 0
2018-08-18 20:10:23 GMT 51.681107 2.885544 15,000 113 332 64
2018-08-18 20:10:18 GMT 51.684063 2.874832 15,000 113 332 64
2018-08-18 20:10:12 GMT 51.687836 2.861023 15,000 113 332 0
2018-08-18 20:10:05 GMT 51.692093 2.845607 15,025 113 332 -128
2018-08-18 20:10:01 GMT 51.695004 2.835007 15,025 113 322 0
2018-08-18 20:09:57 GMT 51.697704 2.825165 15,025 113 328 64
2018-08-18 20:09:54 GMT 51.699783 2.817622 15,025 113 321 -64
2018-08-18 20:09:51 GMT 51.700745 2.814133 15,000 113 321 -64
2018-08-18 20:09:48 GMT 51.703217 2.805077 15,000 113 321 -64
2018-08-18 20:09:44 GMT 51.705246 2.797775 15,000 113 321 -64
2018-08-18 20:09:40 GMT 51.707573 2.789307 15,000 113 321 0
2018-08-18 20:09:36 GMT 51.709667 2.781677 15,000 113 320 0
2018-08-18 20:09:29 GMT 51.714111 2.765437 15,000 113 319 64
2018-08-18 20:09:25 GMT 51.716583 2.756381 15,000 113 319 64
2018-08-18 20:09:20 GMT 51.720375 2.742691 15,000 113 320 0
2018-08-18 20:09:17 GMT 51.721115 2.740124 15,000 113 319 64
2018-08-18 20:09:09 GMT 51.726059 2.722011 15,000 113 320 0
2018-08-18 20:09:06 GMT 51.727917 2.715225 15,000 113 321 -64
2018-08-18 20:09:01 GMT 51.731499 2.702103 15,000 113 321 -128
2018-08-18 20:08:56 GMT 51.733597 2.694473 15,000 113 318 -64
2018-08-18 20:08:49 GMT 51.738297 2.677231 15,000 113 318 64
2018-08-18 20:08:46 GMT 51.740112 2.670717 15,000 113 318 64
2018-08-18 20:08:39 GMT 51.744720 2.653732 15,000 113 320 0
2018-08-18 20:08:34 GMT 51.747093 2.644958 15,000 113 319 0
2018-08-18 20:08:30 GMT 51.749142 2.637405 15,000 113 320 0
2018-08-18 20:08:27 GMT 51.751282 2.629518 15,000 113 320 -64
2018-08-18 20:08:18 GMT 51.756775 2.609401 15,000 113 322 -64
2018-08-18 20:08:15 GMT 51.758057 2.604502 15,000 113 322 -64
2018-08-18 20:08:09 GMT 51.761993 2.589953 15,000 113 323 0
2018-08-18 20:08:03 GMT 51.765717 2.576218 15,000 113 333 -64
2018-08-18 20:07:59 GMT 51.767761 2.568871 15,000 113 325 64
2018-08-18 20:07:56 GMT 51.769859 2.561111 15,000 113 327 64
2018-08-18 20:07:53 GMT 51.771767 2.554092 15,000 113 333 -64
2018-08-18 20:07:49 GMT 51.774796 2.543030 15,000 113 331 -64
2018-08-18 20:07:46 GMT 51.775959 2.538757 15,000 113 334 -64
2018-08-18 20:07:42 GMT 51.778564 2.529157 15,000 113 334 -64
2018-08-18 20:07:39 GMT 51.780396 2.522402 15,000 113 334 -64
2018-08-18 20:07:35 GMT 51.782986 2.512741 15,000 113 335 0
2018-08-18 20:07:28 GMT 51.787037 2.497940 15,000 113 335 0
2018-08-18 20:07:25 GMT 51.789001 2.490705 15,000 113 334 64
2018-08-18 20:07:22 GMT 51.791290 2.482242 15,000 113 334 64
2018-08-18 20:07:17 GMT 51.793625 2.473557 15,000 113 332 0
2018-08-18 20:07:14 GMT 51.795742 2.465668 15,000 113 332 0
2018-08-18 20:07:06 GMT 51.801514 2.444382 15,000 113 332 0
2018-08-18 20:07:03 GMT 51.803005 2.438889 15,000 113 332 64
2018-08-18 20:06:57 GMT 51.807037 2.423822 15,000 113 333 0
2018-08-18 20:06:53 GMT 51.809151 2.416077 15,000 113 333 0
2018-08-18 20:06:50 GMT 51.810452 2.411346 15,000 113 333 0
2018-08-18 20:06:46 GMT 51.812920 2.402191 15,000 113 332 64
2018-08-18 20:06:42 GMT 51.815388 2.393265 15,000 113 332 0
2018-08-18 20:06:37 GMT 51.819298 2.378616 15,000 113 332 0
2018-08-18 20:06:34 GMT 51.820274 2.375107 15,000 113 332 0
2018-08-18 20:06:31 GMT 51.822464 2.366943 15,000 113 332 0
2018-08-18 20:06:28 GMT 51.824890 2.358126 15,000 113 332 -64
2018-08-18 20:06:22 GMT 51.827492 2.348404 15,000 113 332 -64
2018-08-18 20:06:18 GMT 51.830284 2.338104 15,000 113 332 -64
2018-08-18 20:06:15 GMT 51.832520 2.329865 15,000 113 332 -64
2018-08-18 20:06:11 GMT 51.834274 2.323311 15,000 113 331 0
2018-08-18 20:06:04 GMT 51.838524 2.307434 15,000 113 330 64
2018-08-18 20:06:01 GMT 51.840454 2.300374 15,000 113 330 64
2018-08-18 20:05:58 GMT 51.842293 2.293625 15,000 113 330 64
2018-08-18 20:05:55 GMT 51.844482 2.285453 15,000 113 331 64
2018-08-18 20:05:51 GMT 51.846863 2.276694 15,000 113 330 0
2018-08-18 20:05:46 GMT 51.850296 2.263926 15,000 113 331 -64
2018-08-18 20:05:41 GMT 51.852722 2.254870 15,000 113 331 -64
2018-08-18 20:05:38 GMT 51.854446 2.248383 15,000 113 331 64
2018-08-18 20:05:35 GMT 51.857285 2.238007 15,000 113 331 64
2018-08-18 20:05:32 GMT 51.858494 2.233429 15,000 113 331 64
2018-08-18 20:05:29 GMT 51.860001 2.227849 15,000 113 331 0
2018-08-18 20:05:25 GMT 51.862869 2.217178 15,000 113 331 0
2018-08-18 20:05:22 GMT 51.864407 2.211380 15,000 113 331 0
2018-08-18 20:05:15 GMT 51.868835 2.194964 15,000 113 330 -64
2018-08-18 20:05:11 GMT 51.871761 2.184067 15,000 113 331 -64
2018-08-18 20:05:07 GMT 51.873951 2.175827 15,000 113 331 -64
2018-08-18 20:05:02 GMT 51.876835 2.165146 15,000 113 330 -64
2018-08-18 20:04:58 GMT 51.879303 2.155991 15,000 113 330 0
2018-08-18 20:04:54 GMT 51.881680 2.147064 15,000 113 330 0
2018-08-18 20:04:50 GMT 51.884171 2.137732 15,000 101 332 0
2018-08-18 20:04:47 GMT 51.886475 2.129059 15,000 113 330 0
2018-08-18 20:04:43 GMT 51.888107 2.123034 15,000 113 330 0
2018-08-18 20:04:40 GMT 51.890533 2.113829 15,000 113 331 0
2018-08-18 20:04:33 GMT 51.894058 2.100449 15,000 101 332 0
2018-08-18 20:04:30 GMT 51.895782 2.093523 15,000 111 332 0
2018-08-18 20:04:26 GMT 51.897972 2.084263 15,000 108 331 0
2018-08-18 20:04:22 GMT 51.899925 2.074611 15,000 104 332 0
2018-08-18 20:04:19 GMT 51.901245 2.066345 15,000 101 332 0
2018-08-18 20:04:13 GMT 51.902939 2.053680 15,000 99 332 0
2018-08-18 20:04:09 GMT 51.904350 2.040083 15,000 99 333 0
2018-08-18 20:04:03 GMT 51.905701 2.026742 15,000 100 333 0
2018-08-18 20:04:00 GMT 51.906509 2.019577 15,000 101 333 0
2018-08-18 20:03:56 GMT 51.907745 2.009354 15,000 105 334 0
2018-08-18 20:03:52 GMT 51.909302 1.998520 15,000 104 334 0
2018-08-18 20:03:48 GMT 51.910812 1.989594 15,000 106 334 0
2018-08-18 20:03:44 GMT 51.912827 1.979065 15,000 108 334 64
2018-08-18 20:03:40 GMT 51.914749 1.969757 15,000 108 334 64
2018-08-18 20:03:36 GMT 51.916080 1.963257 15,000 108 334 0
2018-08-18 20:03:31 GMT 51.918457 1.951904 15,000 108 334 0
2018-08-18 20:03:28 GMT 51.920921 1.940107 15,000 108 334 0
2018-08-18 20:03:24 GMT 51.921993 1.934928 15,000 108 334 -64
2018-08-18 20:03:20 GMT 51.924133 1.924569 15,000 108 334 -64
2018-08-18 20:03:17 GMT 51.925949 1.915702 15,000 108 333 0
2018-08-18 20:03:11 GMT 51.928650 1.902440 15,000 108 333 0
2018-08-18 20:03:08 GMT 51.930176 1.894989 15,000 108 333 0
2018-08-18 20:03:04 GMT 51.931999 1.886196 15,000 108 333 64
2018-08-18 20:02:58 GMT 51.934795 1.872541 15,000 108 333 0
2018-08-18 20:02:55 GMT 51.936264 1.865158 15,000 119 345 64
2018-08-18 20:02:49 GMT 51.939011 1.851730 15,000 108 334 -128
2018-08-18 20:02:46 GMT 51.940887 1.842422 15,025 108 335 0
2018-08-18 20:02:43 GMT 51.942169 1.836243 15,025 108 338 128
2018-08-18 20:02:38 GMT 51.945053 1.821976 15,000 108 336 64
2018-08-18 20:02:32 GMT 51.947548 1.809684 15,000 108 339 128
2018-08-18 20:02:28 GMT 51.949272 1.801601 15,000 109 340 64
2018-08-18 20:02:25 GMT 51.951599 1.790771 15,000 109 341 64
2018-08-18 20:02:22 GMT 51.952671 1.786063 14,975 114 345 64
2018-08-18 20:02:17 GMT 51.955353 1.775208 15,000 116 345 64
2018-08-18 20:02:14 GMT 51.957466 1.767936 15,000 138 342 0
2018-08-18 20:02:08 GMT 51.962540 1.754517 15,000 128 344 0
2018-08-18 20:02:05 GMT 51.966496 1.746512 15,000 183 328 -64
2018-08-18 20:02:02 GMT 51.968170 1.743530 15,000 183 328 -64
2018-08-18 20:01:57 GMT 51.974167 1.734543 15,000 145 340 0
2018-08-18 20:01:53 GMT 51.980785 1.727051 15,000 151 339 0
2018-08-18 20:01:50 GMT 51.984371 1.723755 15,000 154 339 0
2018-08-18 20:01:47 GMT 51.988747 1.720381 15,000 171 332 -64
2018-08-18 20:01:44 GMT 51.994614 1.716849 15,000 162 335 0
2018-08-18 20:01:38 GMT 52.000942 1.714260 15,000 168 333 -64
2018-08-18 20:01:35 GMT 52.005981 1.713028 15,000 176 330 -64
2018-08-18 20:01:31 GMT 52.011337 1.712418 15,025 164 337 1024
2018-08-18 20:01:28 GMT 52.017654 1.712646 15,000 184 328 0
2018-08-18 20:01:24 GMT 52.022221 1.713161 15,025 184 328 0
2018-08-18 20:01:21 GMT 52.026489 1.713562 15,025 183 330 192
2018-08-18 20:01:17 GMT 52.033447 1.714325 15,000 183 329 192
2018-08-18 20:01:14 GMT 52.037209 1.714652 15,000 183 329 192
2018-08-18 20:01:11 GMT 52.041733 1.715012 15,000 181 332 320
2018-08-18 20:01:06 GMT 52.051437 1.715240 14,975 176 334 256
2018-08-18 20:01:01 GMT 52.057709 1.714401 14,925 170 336 576
2018-08-18 20:00:57 GMT 52.064072 1.712646 14,900 166 337 896
2018-08-18 20:00:54 GMT 52.069004 1.710650 14,850 161 338 1408
2018-08-18 20:00:51 GMT 52.073708 1.708296 14,800 161 338 1408
2018-08-18 20:00:48 GMT 52.077335 1.706255 14,675 160 336 2048
2018-08-18 20:00:44 GMT 52.083900 1.702567 14,575 160 335 2112
2018-08-18 20:00:41 GMT 52.088058 1.700134 14,375 160 334 2240
2018-08-18 20:00:37 GMT 52.093826 1.696854 14,425 160 334 2240
2018-08-18 20:00:34 GMT 52.099823 1.693420 14,250 160 333 2112
2018-08-18 20:00:30 GMT 52.104057 1.691031 13,925 160 329 2176
2018-08-18 20:00:26 GMT 52.110718 1.687241 14,000 160 329 2176
2018-08-18 20:00:23 GMT 52.114334 1.685181 13,875 160 329 2240
2018-08-18 20:00:20 GMT 52.118534 1.682792 13,825 160 327 2368
2018-08-18 20:00:16 GMT 52.125000 1.679153 13,650 160 327 2496
2018-08-18 20:00:13 GMT 52.129894 1.676435 13,500 161 326 2560
2018-08-18 20:00:10 GMT 52.132687 1.674866 13,425 161 326 2560
2018-08-18 20:00:07 GMT 52.137222 1.672287 13,300 161 325 2688
2018-08-18 20:00:04 GMT 52.141022 1.670157 13,175 161 325 3136
2018-08-18 20:00:01 GMT 52.146748 1.666940 12,975 161 325 3328
2018-08-18 19:59:57 GMT 52.151001 1.664581 11,825 161 329 2688
2018-08-18 19:59:53 GMT 52.156815 1.661301 12,425 161 328 3136
2018-08-18 19:59:50 GMT 52.162674 1.658020 12,125 161 328 2944
2018-08-18 19:59:47 GMT 52.165237 1.656570 12,300 161 329 2688
2018-08-18 19:59:43 GMT 52.170822 1.653442 12,050 161 329 2752
2018-08-18 19:59:40 GMT 52.176865 1.650085 11,875 160 327 2240
2018-08-18 19:59:37 GMT 52.181381 1.647557 11,825 161 327 1984
2018-08-18 19:59:34 GMT 52.184784 1.645584 11,625 161 327 1536
2018-08-18 19:59:30 GMT 52.190086 1.642691 11,625 161 327 1408
2018-08-18 19:59:27 GMT 52.193619 1.640701 11,475 161 328 1216
2018-08-18 19:59:24 GMT 52.198513 1.637983 11,475 161 329 960
2018-08-18 19:59:21 GMT 52.204472 1.634687 11,425 161 329 960
2018-08-18 19:59:18 GMT 52.208862 1.632309 11,400 161 329 960
2018-08-18 19:59:14 GMT 52.212990 1.629979 11,350 161 329 1024
2018-08-18 19:59:11 GMT 52.219391 1.626434 11,275 161 328 1088
2018-08-18 19:59:08 GMT 52.221786 1.625113 11,225 161 326 960
2018-08-18 19:59:04 GMT 52.227375 1.622053 11,200 161 326 960
2018-08-18 19:59:01 GMT 52.232025 1.619415 11,075 161 325 896
2018-08-18 19:58:58 GMT 52.236267 1.617031 11,100 160 324 768
2018-08-18 19:58:55 GMT 52.239944 1.614990 11,000 160 323 320
2018-08-18 19:58:51 GMT 52.245712 1.611786 11,025 160 323 320
2018-08-18 19:58:48 GMT 52.250092 1.609262 11,000 160 322 192
2018-08-18 19:58:45 GMT 52.254730 1.606674 11,000 160 321 -128
2018-08-18 19:58:42 GMT 52.259857 1.603775 11,000 160 319 -128
2018-08-18 19:58:39 GMT 52.263454 1.601728 11,000 160 319 -192
2018-08-18 19:58:35 GMT 52.268097 1.599045 11,025 160 316 -192
2018-08-18 19:58:31 GMT 52.273544 1.595917 11,025 160 305 128
2018-08-18 19:58:28 GMT 52.278809 1.592941 11,025 160 311 64
2018-08-18 19:58:25 GMT 52.282471 1.590805 11,025 160 306 128
2018-08-18 19:58:22 GMT 52.285751 1.588858 11,025 160 302 0
2018-08-18 19:58:18 GMT 52.290871 1.585955 11,000 160 300 896
2018-08-18 19:58:15 GMT 52.295654 1.583099 11,000 160 301 0
2018-08-18 19:58:11 GMT 52.302231 1.579285 11,000 160 302 0
2018-08-18 19:58:08 GMT 52.304092 1.578186 11,000 160 302 0
2018-08-18 19:58:05 GMT 52.308609 1.575546 11,000 160 301 64
2018-08-18 19:58:02 GMT 52.313141 1.572952 11,000 160 301 64
2018-08-18 19:57:59 GMT 52.315933 1.571274 11,000 160 301 128
2018-08-18 19:57:56 GMT 52.320015 1.568848 11,000 160 301 192
2018-08-18 19:57:52 GMT 52.326111 1.565316 10,975 160 300 832
2018-08-18 19:57:47 GMT 52.332596 1.561508 10,925 160 300 896
2018-08-18 19:57:44 GMT 52.336494 1.559195 10,900 160 300 832
2018-08-18 19:57:40 GMT 52.341240 1.556370 10,775 160 300 832
2018-08-18 19:57:35 GMT 52.347382 1.552734 10,775 160 301 832
2018-08-18 19:57:32 GMT 52.352276 1.549857 10,725 160 300 896
2018-08-18 19:57:28 GMT 52.358917 1.545944 10,650 160 299 1024
2018-08-18 19:57:23 GMT 52.364330 1.542873 10,550 161 289 1216
2018-08-18 19:57:20 GMT 52.366940 1.541382 10,550 161 289 1216
2018-08-18 19:57:17 GMT 52.371872 1.538635 10,475 164 282 1344
2018-08-18 19:57:14 GMT 52.375595 1.536752 10,275 166 278 1344
2018-08-18 19:57:10 GMT 52.379601 1.534790 10,350 168 276 1344
2018-08-18 19:57:07 GMT 52.384487 1.532907 10,275 171 274 1280
2018-08-18 19:57:01 GMT 52.391937 1.531730 10,175 182 266 1152
2018-08-18 19:56:57 GMT 52.398102 1.532516 10,000 202 260 320
2018-08-18 19:56:54 GMT 52.400269 1.533299 10,025 202 260 320
2018-08-18 19:56:50 GMT 52.404785 1.535575 10,000 210 258 0
2018-08-18 19:56:47 GMT 52.408218 1.538010 10,000 218 257 64
2018-08-18 19:56:44 GMT 52.411396 1.540989 10,000 223 256 0
2018-08-18 19:56:41 GMT 52.415314 1.545792 10,000 221 256 0
2018-08-18 19:56:37 GMT 52.420101 1.554095 10,000 231 255 0
2018-08-18 19:56:33 GMT 52.420486 1.554871 10,000 241 254 0
2018-08-18 19:56:30 GMT 52.422523 1.559745 10,000 241 254 0
2018-08-18 19:56:25 GMT 52.425247 1.568909 10,000 252 254 0
2018-08-18 19:56:22 GMT 52.426437 1.575089 10,000 258 254 0
2018-08-18 19:56:19 GMT 52.427032 1.579590 10,000 264 254 0
2018-08-18 19:56:16 GMT 52.427410 1.584856 10,000 270 255 0
2018-08-18 19:56:13 GMT 52.427490 1.591263 10,000 276 256 64
2018-08-18 19:56:10 GMT 52.427177 1.597020 10,000 281 256 64
2018-08-18 19:56:02 GMT 52.424805 1.611302 10,000 345 271 0
2018-08-18 19:55:59 GMT 52.423325 1.616440 10,000 301 261 -64
2018-08-18 19:55:53 GMT 52.419296 1.626282 10,000 308 263 -64
2018-08-18 19:55:50 GMT 52.415359 1.633072 10,000 321 266 0
2018-08-18 19:55:45 GMT 52.412064 1.637497 10,000 330 268 0
2018-08-18 19:55:42 GMT 52.408417 1.641357 10,000 335 268 64
2018-08-18 19:55:37 GMT 52.401432 1.646615 10,000 342 270 0
2018-08-18 19:55:34 GMT 52.398968 1.647871 10,000 358 275 0
2018-08-18 19:55:31 GMT 52.394173 1.649597 10,000 356 274 0
2018-08-18 19:55:28 GMT 52.391796 1.650068 10,000 356 274 0
2018-08-18 19:55:22 GMT 52.383884 1.650068 10,000 5 278 -64
2018-08-18 19:55:18 GMT 52.377548 1.648331 10,000 14 280 0
2018-08-18 19:55:14 GMT 52.373566 1.646347 10,000 21 281 -64
2018-08-18 19:55:08 GMT 52.366562 1.641083 10,000 33 284 0
2018-08-18 19:55:05 GMT 52.362122 1.636276 10,000 40 285 0
2018-08-18 19:55:02 GMT 52.359970 1.633453 10,000 47 285 0
2018-08-18 19:54:59 GMT 52.357117 1.629116 10,000 49 286 0
2018-08-18 19:54:55 GMT 52.353790 1.622849 10,000 49 286 0
2018-08-18 19:54:51 GMT 52.350998 1.616287 10,000 57 287 0
2018-08-18 19:54:47 GMT 52.347290 1.604004 10,000 71 289 0
2018-08-18 19:54:42 GMT 52.346268 1.599295 10,000 74 289 0
2018-08-18 19:54:38 GMT 52.344917 1.589565 10,000 158 273 64
2018-08-18 19:54:35 GMT 52.344406 1.582642 10,000 90 290 64
2018-08-18 19:54:32 GMT 52.344315 1.577087 10,000 98 289 0
2018-08-18 19:54:29 GMT 52.344543 1.570129 10,000 99 288 -64
2018-08-18 19:54:26 GMT 52.345154 1.563354 10,000 105 287 -64
2018-08-18 19:54:22 GMT 52.346317 1.555664 10,000 110 287 0
2018-08-18 19:54:18 GMT 52.348938 1.545029 10,000 117 286 64
2018-08-18 19:54:13 GMT 52.351856 1.536752 10,000 127 282 64
2018-08-18 19:54:10 GMT 52.354202 1.531525 10,000 134 280 64
2018-08-18 19:54:06 GMT 52.357254 1.526001 10,000 134 280 64
2018-08-18 19:54:03 GMT 52.360062 1.521759 10,000 141 278 64
2018-08-18 19:53:59 GMT 52.365921 1.515045 10,000 151 275 64
2018-08-18 19:53:56 GMT 52.368164 1.513138 10,000 158 273 64
2018-08-18 19:53:53 GMT 52.371689 1.510542 10,000 162 272 0
2018-08-18 19:53:50 GMT 52.375076 1.508713 9,975 166 270 0
2018-08-18 19:53:47 GMT 52.378716 1.507324 10,000 174 268 -128
2018-08-18 19:53:44 GMT 52.382538 1.506424 10,000 177 267 -128
2018-08-18 19:53:40 GMT 52.387665 1.506042 10,000 179 266 -64
2018-08-18 19:53:37 GMT 52.391144 1.506069 10,000 181 266 0
2018-08-18 19:53:33 GMT 52.395538 1.506119 10,000 181 264 64
2018-08-18 19:53:27 GMT 52.405609 1.506195 10,000 181 264 64
2018-08-18 19:53:24 GMT 52.406937 1.506195 10,000 181 264 0
2018-08-18 19:53:18 GMT 52.413864 1.506226 10,000 181 264 -64
2018-08-18 19:53:15 GMT 52.418983 1.506304 10,000 181 262 0
2018-08-18 19:53:09 GMT 52.425064 1.506348 10,000 181 263 0
2018-08-18 19:53:06 GMT 52.429047 1.506424 10,000 181 263 64
2018-08-18 19:53:02 GMT 52.433743 1.506539 10,000 181 261 0
2018-08-18 19:52:59 GMT 52.438488 1.506539 10,000 181 261 0
2018-08-18 19:52:55 GMT 52.443005 1.506618 10,000 181 261 0
2018-08-18 19:52:52 GMT 52.444866 1.506696 10,000 181 261 0
2018-08-18 19:52:48 GMT 52.450592 1.506775 10,000 181 260 0
2018-08-18 19:52:45 GMT 52.454781 1.506775 10,000 181 260 0
2018-08-18 19:52:42 GMT 52.457947 1.506853 10,000 181 260 64
2018-08-18 19:52:38 GMT 52.462650 1.506932 10,000 181 261 128
2018-08-18 19:52:35 GMT 52.465897 1.506958 10,000 181 261 128
2018-08-18 19:52:32 GMT 52.472195 1.507089 9,950 181 262 192
2018-08-18 19:52:28 GMT 52.474567 1.507089 9,975 181 263 256
2018-08-18 19:52:25 GMT 52.478439 1.507187 9,950 181 264 896
2018-08-18 19:52:22 GMT 52.482285 1.507187 9,925 181 264 896
2018-08-18 19:52:15 GMT 52.491093 1.507324 9,675 181 267 1600
2018-08-18 19:52:11 GMT 52.495102 1.507339 9,675 181 275 1344
2018-08-18 19:52:07 GMT 52.500137 1.507339 9,625 180 271 1472
2018-08-18 19:52:04 GMT 52.505081 1.507416 9,525 181 274 1344
2018-08-18 19:52:01 GMT 52.508366 1.507403 9,225 181 286 1408
2018-08-18 19:51:58 GMT 52.511578 1.507403 9,250 181 288 1600
2018-08-18 19:51:54 GMT 52.516834 1.507481 9,325 181 288 1600
2018-08-18 19:51:50 GMT 52.522236 1.507481 9,175 181 288 1600
2018-08-18 19:51:44 GMT 52.530289 1.507560 9,075 181 288 1664
2018-08-18 19:51:40 GMT 52.535458 1.507638 8,675 181 287 1408
2018-08-18 19:51:36 GMT 52.542068 1.507645 8,875 181 286 1408
2018-08-18 19:51:31 GMT 52.549095 1.507717 8,725 181 287 1408
2018-08-18 19:51:28 GMT 52.551331 1.507717 8,600 181 287 1408
2018-08-18 19:51:24 GMT 52.557632 1.507797 8,600 181 286 1600
2018-08-18 19:51:21 GMT 52.560242 1.507797 8,550 181 285 1792
2018-08-18 19:51:15 GMT 52.568344 1.507797 8,375 180 281 1984
2018-08-18 19:51:11 GMT 52.574375 1.507874 8,175 180 276 1472
2018-08-18 19:51:06 GMT 52.581024 1.507874 8,125 180 270 1280
2018-08-18 19:51:01 GMT 52.586060 1.507874 8,025 180 262 1344
2018-08-18 19:50:55 GMT 52.593613 1.507874 7,925 180 257 1216
2018-08-18 19:50:52 GMT 52.597000 1.507952 7,850 180 256 1152
2018-08-18 19:50:49 GMT 52.602768 1.507950 7,800 181 233 1152
2018-08-18 19:50:45 GMT 52.605194 1.507950 7,775 181 240 448
2018-08-18 19:50:41 GMT 52.609543 1.508026 7,750 181 233 1152
2018-08-18 19:50:38 GMT 52.613754 1.508026 7,675 181 228 960
2018-08-18 19:50:35 GMT 52.617157 1.508109 7,625 181 224 960
2018-08-18 19:50:27 GMT 52.624886 1.508266 7,525 181 215 896
2018-08-18 19:50:23 GMT 52.628983 1.508344 7,475 181 211 896
2018-08-18 19:50:20 GMT 52.630844 1.508344 7,450 181 206 896
2018-08-18 19:50:13 GMT 52.637878 1.508484 7,350 181 199 768
2018-08-18 19:50:10 GMT 52.640339 1.508580 7,300 179 185 640
2018-08-18 19:50:04 GMT 52.646297 1.508501 7,250 179 185 640
2018-08-18 19:50:00 GMT 52.649418 1.508423 7,100 178 180 1600
2018-08-18 19:49:56 GMT 52.652397 1.508266 7,100 178 180 1600
2018-08-18 19:49:53 GMT 52.655655 1.508030 6,850 178 180 1792
2018-08-18 19:49:49 GMT 52.659752 1.507874 6,850 178 180 1792
2018-08-18 19:49:45 GMT 52.662231 1.507874 6,750 184 178 1920
2018-08-18 19:49:39 GMT 52.666443 1.508636 6,600 193 177 1792
2018-08-18 19:49:34 GMT 52.670597 1.511012 6,450 219 174 1792
2018-08-18 19:49:31 GMT 52.672989 1.513367 6,350 219 174 1792
2018-08-18 19:49:28 GMT 52.674835 1.515878 6,125 236 172 1728
2018-08-18 19:49:23 GMT 52.677536 1.521214 6,125 244 171 1664
2018-08-18 19:49:19 GMT 52.678848 1.525726 6,000 247 171 1664
2018-08-18 19:49:11 GMT 52.680141 1.536203 5,800 268 168 1856
2018-08-18 19:49:07 GMT 52.680222 1.540146 5,700 269 168 1920
2018-08-18 19:49:02 GMT 52.680359 1.548004 5,500 269 167 1920
2018-08-18 19:48:59 GMT 52.680420 1.552054 5,400 269 167 1984
2018-08-18 19:48:48 GMT 52.680653 1.564453 5,100 269 166 1984
2018-08-18 19:48:42 GMT 52.680748 1.572536 4,900 269 166 1856
2018-08-18 19:48:33 GMT 52.680908 1.583862 4,675 269 160 1024
2018-08-18 19:48:30 GMT 52.680981 1.587446 4,625 269 160 1024
2018-08-18 19:48:24 GMT 52.681091 1.596146 4,475 270 153 2176
2018-08-18 19:48:20 GMT 52.681137 1.600571 4,375 270 153 2176
2018-08-18 19:48:11 GMT 52.681229 1.609802 4,075 270 154 3136
2018-08-18 19:48:01 GMT 52.681320 1.621933 3,700 270 156 64
2018-08-18 19:47:47 GMT 52.681458 1.637726 3,475 259 136 1920
2018-08-18 19:47:39 GMT 52.681686 1.646576 3,475 259 136 1920
2018-08-18 19:47:27 GMT 52.682465 1.658554 3,075 260 136 1984
2018-08-18 19:46:43 GMT 52.691071 1.702118 1,850 249 139 0
2018-08-18 19:46:16 GMT 52.701462 1.725540 1,850 200 144 0
2018-08-18 19:46:08 GMT 52.706303 1.726109 1,850 170 150 0
2018-08-18 19:45:57 GMT 52.713684 1.720581 1,850 140 161 0
2018-08-18 19:45:47 GMT 52.717850 1.710892 1,850 109 168 64
2018-08-18 19:45:00 GMT 52.718811 1.647034 2,300 90 181 -768
2018-08-18 19:44:53 GMT 52.718826 1.636414 2,500 90 181 -768
2018-08-18 19:44:46 GMT 52.718826 1.628331 2,475 90 182 -768
2018-08-18 19:44:37 GMT 52.718857 1.616211 2,600 90 183 -768
2018-08-18 19:44:25 GMT 52.718948 1.599350 2,750 90 187 -832
2018-08-18 19:44:10 GMT 52.719151 1.574655 2,975 90 189 -832
2018-08-18 19:44:03 GMT 52.719177 1.567841 3,050 90 188 -832
2018-08-18 19:43:52 GMT 52.719337 1.552525 3,175 90 189 -832
2018-08-18 19:43:44 GMT 52.719452 1.539764 3,325 91 180 -896
2018-08-18 19:43:33 GMT 52.719635 1.525192 3,350 91 180 -896
2018-08-18 19:43:30 GMT 52.719711 1.520351 3,525 91 180 -896
2018-08-18 19:43:23 GMT 52.719818 1.511307 3,625 90 180 -1088
2018-08-18 19:43:13 GMT 52.719955 1.497650 3,800 90 181 -1280
2018-08-18 19:43:02 GMT 52.720036 1.482683 4,050 90 182 -1408
2018-08-18 19:42:54 GMT 52.720001 1.470108 4,850 89 181 -1280
2018-08-18 19:42:50 GMT 52.719910 1.464844 4,325 78 172 -1280
2018-08-18 19:42:43 GMT 52.719589 1.455994 4,425 83 175 -1216
2018-08-18 19:42:35 GMT 52.718269 1.445173 4,600 68 168 -1152
2018-08-18 19:42:30 GMT 52.716824 1.439915 4,675 59 167 -1408
2018-08-18 19:42:25 GMT 52.714508 1.434479 4,750 45 172 -576
2018-08-18 19:42:22 GMT 52.713146 1.431989 4,775 42 174 -576
2018-08-18 19:42:17 GMT 52.709702 1.427460 4,850 31 179 -1024
2018-08-18 19:42:13 GMT 52.706303 1.424534 4,925 17 180 -960
2018-08-18 19:42:10 GMT 52.704674 1.423593 5,000 6 183 -896
2018-08-18 19:42:06 GMT 52.701557 1.422337 5,000 6 183 -896
2018-08-18 19:42:00 GMT 52.695557 1.422195 5,100 351 187 -960
2018-08-18 19:41:55 GMT 52.690018 1.424866 5,400 327 188 -1728
2018-08-18 19:41:51 GMT 52.688828 1.425858 5,300 329 187 -1728
2018-08-18 19:41:48 GMT 52.686172 1.428757 5,400 314 188 -1600
2018-08-18 19:41:44 GMT 52.683910 1.432303 5,475 299 189 -1472
2018-08-18 19:41:39 GMT 52.681458 1.437683 5,850 289 191 -1344
2018-08-18 19:41:29 GMT 52.678574 1.452103 5,800 271 196 -64
2018-08-18 19:41:26 GMT 52.678326 1.455845 5,825 269 199 64
2018-08-18 19:41:19 GMT 52.678299 1.467056 5,850 270 199 0
2018-08-18 19:41:14 GMT 52.678371 1.473816 5,850 269 199 64
2018-08-18 19:41:05 GMT 52.678574 1.487656 5,850 270 198 0
2018-08-18 19:40:59 GMT 52.678711 1.496506 5,850 270 199 0
2018-08-18 19:40:53 GMT 52.678757 1.505508 5,850 270 198 0
2018-08-18 19:40:48 GMT 52.678791 1.513524 5,850 271 198 0
2018-08-18 19:40:40 GMT 52.678699 1.526236 5,850 272 198 0
2018-08-18 19:40:37 GMT 52.678654 1.530945 5,850 272 198 0
2018-08-18 19:40:34 GMT 52.678604 1.534790 5,850 271 199 0
2018-08-18 19:40:30 GMT 52.678513 1.541382 5,850 245 200 0
2018-08-18 19:40:27 GMT 52.678528 1.545792 5,850 270 199 64
2018-08-18 19:40:20 GMT 52.679169 1.556625 5,850 258 199 0
2018-08-18 19:40:13 GMT 52.681046 1.565552 5,850 215 203 0
2018-08-18 19:40:07 GMT 52.684250 1.573639 5,850 228 202 0
2018-08-18 19:39:55 GMT 52.693970 1.585563 5,850 204 205 0
2018-08-18 19:39:47 GMT 52.700546 1.588440 5,850 159 215 0
2018-08-18 19:39:41 GMT 52.707653 1.588152 5,850 161 215 0
2018-08-18 19:39:37 GMT 52.710617 1.586914 5,850 159 215 0
2018-08-18 19:39:28 GMT 52.718174 1.580226 5,850 133 220 0
2018-08-18 19:39:24 GMT 52.721386 1.574890 5,850 128 220 0
2018-08-18 19:39:21 GMT 52.723022 1.571121 5,850 110 220 0
2018-08-18 19:39:17 GMT 52.725540 1.562653 5,850 106 219 0
2018-08-18 19:39:09 GMT 52.727097 1.551971 5,850 95 220 -64
2018-08-18 19:39:06 GMT 52.727390 1.547110 5,850 89 220 -64
2018-08-18 19:39:00 GMT 52.727440 1.536987 5,850 89 220 -64
2018-08-18 19:38:57 GMT 52.727417 1.531906 5,850 89 220 0
2018-08-18 19:38:48 GMT 52.727280 1.515427 5,850 89 221 0
2018-08-18 19:38:36 GMT 52.727253 1.497672 5,850 91 221 0
2018-08-18 19:38:31 GMT 52.727299 1.487156 5,850 90 221 0
2018-08-18 19:38:26 GMT 52.727417 1.479340 5,850 91 220 0
2018-08-18 19:38:22 GMT 52.727531 1.473659 5,850 91 220 0
2018-08-18 19:38:19 GMT 52.727600 1.468048 5,850 32 216 0
2018-08-18 19:38:16 GMT 52.727673 1.463693 5,850 88 221 64
2018-08-18 19:38:06 GMT 52.726879 1.446429 5,850 61 220 0
2018-08-18 19:38:00 GMT 52.724579 1.436462 5,850 56 219 0
2018-08-18 19:37:56 GMT 52.722595 1.431440 5,850 49 219 0
2018-08-18 19:37:49 GMT 52.717667 1.423416 5,850 269 199 0
2018-08-18 19:37:45 GMT 52.713776 1.419449 5,850 20 213 0
2018-08-18 19:37:40 GMT 52.709564 1.416844 5,850 11 212 0
2018-08-18 19:37:37 GMT 52.706818 1.415863 5,850 2 211 -64
2018-08-18 19:37:34 GMT 52.703510 1.415431 5,850 352 208 0
2018-08-18 19:37:26 GMT 52.695236 1.417389 5,850 341 204 64
2018-08-18 19:37:22 GMT 52.692387 1.419277 5,850 337 204 64
2018-08-18 19:37:17 GMT 52.688599 1.422958 5,850 321 202 0
2018-08-18 19:37:14 GMT 52.686378 1.425947 5,850 309 200 0
2018-08-18 19:37:05 GMT 52.681503 1.436462 5,850 284 198 0
2018-08-18 19:36:59 GMT 52.678986 1.447830 5,850 269 199 0
2018-08-18 19:36:54 GMT 52.678467 1.453020 5,850 271 199 0
2018-08-18 19:36:49 GMT 52.678280 1.462202 5,850 270 199 0
2018-08-18 19:36:45 GMT 52.678326 1.467538 5,850 270 199 0
2018-08-18 19:36:37 GMT 52.678436 1.478653 5,850 269 199 0
2018-08-18 19:36:34 GMT 52.678467 1.482683 5,850 269 199 0
2018-08-18 19:36:31 GMT 52.678574 1.487503 5,850 269 199 0
2018-08-18 19:36:27 GMT 52.678711 1.497269 5,850 270 199 0
2018-08-18 19:36:24 GMT 52.678745 1.498849 5,850 270 199 0
2018-08-18 19:36:16 GMT 52.678791 1.510463 5,850 270 199 0
2018-08-18 19:36:12 GMT 52.678791 1.516820 5,850 271 199 0
2018-08-18 19:36:04 GMT 52.678665 1.530762 5,850 271 199 0
2018-08-18 19:36:01 GMT 52.678619 1.533737 5,850 271 199 0
2018-08-18 19:35:49 GMT 52.678802 1.553650 5,850 236 202 0
2018-08-18 19:35:43 GMT 52.679909 1.561157 5,850 249 200 0
2018-08-18 19:35:38 GMT 52.681770 1.567827 5,850 166 213 0
2018-08-18 19:35:29 GMT 52.686722 1.577988 5,850 219 205 0
2018-08-18 19:35:22 GMT 52.692200 1.584229 5,850 201 208 0
2018-08-18 19:35:19 GMT 52.694870 1.586151 5,850 201 208 0
2018-08-18 19:35:12 GMT 52.701881 1.588623 5,850 183 210 0
2018-08-18 19:35:08 GMT 52.705791 1.588545 5,850 166 213 0
2018-08-18 19:35:02 GMT 52.711517 1.586504 5,850 156 215 0
2018-08-18 19:34:59 GMT 52.714233 1.584549 5,850 106 220 0
2018-08-18 19:34:54 GMT 52.719131 1.578903 5,850 116 221 -64
2018-08-18 19:34:50 GMT 52.722748 1.572113 5,850 112 221 -64
2018-08-18 19:34:44 GMT 52.724365 1.567514 5,850 112 221 -64
2018-08-18 19:34:40 GMT 52.726089 1.560372 5,850 106 220 0
2018-08-18 19:34:34 GMT 52.727299 1.550720 5,850 97 219 0
2018-08-18 19:34:29 GMT 52.727554 1.542435 5,850 91 219 -64
2018-08-18 19:34:23 GMT 52.727486 1.530945 5,850 89 220 0
2018-08-18 19:34:20 GMT 52.727486 1.527335 5,850 89 220 -64
2018-08-18 19:34:10 GMT 52.727345 1.510856 5,850 89 220 0
2018-08-18 19:34:00 GMT 52.727299 1.493434 5,850 90 221 0
2018-08-18 19:33:54 GMT 52.727390 1.483939 5,850 91 221 0
2018-08-18 19:33:50 GMT 52.727486 1.476955 5,850 91 221 -64
2018-08-18 19:33:46 GMT 52.727577 1.470912 5,850 90 221 0
2018-08-18 19:33:41 GMT 52.727692 1.462021 5,850 90 221 0
2018-08-18 19:33:38 GMT 52.727673 1.457493 5,850 89 221 64
2018-08-18 19:33:34 GMT 52.727299 1.449960 5,850 79 221 0
2018-08-18 19:33:31 GMT 52.726276 1.442897 5,850 72 220 0
2018-08-18 19:33:27 GMT 52.724785 1.437169 5,850 61 220 0
2018-08-18 19:33:19 GMT 52.720642 1.427612 5,850 40 217 0
2018-08-18 19:33:12 GMT 52.713146 1.418884 5,850 23 214 0
2018-08-18 19:33:09 GMT 52.712128 1.418152 5,850 334 204 64
2018-08-18 19:33:06 GMT 52.708603 1.416321 5,850 12 212 0
2018-08-18 19:32:59 GMT 52.702698 1.415253 5,850 337 204 64
2018-08-18 19:32:53 GMT 52.697113 1.416397 5,850 334 204 64
2018-08-18 19:32:47 GMT 52.691803 1.419601 5,850 330 203 0
2018-08-18 19:32:42 GMT 52.687824 1.423828 5,850 312 200 0
2018-08-18 19:32:39 GMT 52.685078 1.428066 5,850 312 200 0
2018-08-18 19:32:36 GMT 52.682751 1.433010 5,850 303 200 0
2018-08-18 19:32:29 GMT 52.680588 1.439743 5,850 270 198 0
2018-08-18 19:32:19 GMT 52.678436 1.454239 5,850 271 200 0
2018-08-18 19:32:14 GMT 52.678234 1.461417 5,850 270 198 0
2018-08-18 19:32:10 GMT 52.678280 1.468244 5,850 269 199 0
2018-08-18 19:32:07 GMT 52.678299 1.472855 5,850 270 200 0
2018-08-18 19:31:59 GMT 52.678482 1.485138 5,850 269 199 0
2018-08-18 19:31:54 GMT 52.678604 1.491473 5,850 270 198 0
2018-08-18 19:31:50 GMT 52.678711 1.500168 5,850 270 198 0
2018-08-18 19:31:47 GMT 52.678757 1.503220 5,850 258 200 0
2018-08-18 19:31:39 GMT 52.678802 1.514053 5,850 271 199 0
2018-08-18 19:31:36 GMT 52.678791 1.519880 5,850 272 199 0
2018-08-18 19:31:27 GMT 52.678604 1.533770 5,850 271 199 0
2018-08-18 19:31:24 GMT 52.678528 1.539612 5,850 271 199 0
2018-08-18 19:31:21 GMT 52.678513 1.543187 5,850 269 199 64
2018-08-18 19:31:10 GMT 52.679489 1.558881 5,850 258 200 0
2018-08-18 19:30:59 GMT 52.683975 1.573486 5,850 232 203 0
2018-08-18 19:30:55 GMT 52.686447 1.577835 5,850 154 216 64
2018-08-18 19:30:52 GMT 52.689125 1.581403 5,850 221 205 0
2018-08-18 19:30:43 GMT 52.697739 1.587760 5,850 197 208 0
2018-08-18 19:30:34 GMT 52.705467 1.588780 5,850 171 213 64
2018-08-18 19:30:24 GMT 52.714916 1.584072 5,850 108 221 0
2018-08-18 19:30:14 GMT 52.722366 1.573164 5,850 108 221 0
2018-08-18 19:30:05 GMT 52.726601 1.557704 5,850 89 220 -64
2018-08-18 19:29:55 GMT 52.727600 1.543198 5,850 89 220 -64
2018-08-18 19:29:51 GMT 52.727554 1.535492 5,850 89 220 -64
2018-08-18 19:29:43 GMT 52.727463 1.523132 5,850 91 220 64
2018-08-18 19:29:34 GMT 52.727371 1.506042 5,850 91 220 64
2018-08-18 19:29:23 GMT 52.727417 1.489334 5,850 70 220 0
2018-08-18 19:29:20 GMT 52.727486 1.484096 5,850 70 220 0
2018-08-18 19:29:12 GMT 52.727718 1.471148 5,850 70 220 0
2018-08-18 19:29:01 GMT 52.727577 1.451215 5,850 70 220 0
2018-08-18 19:28:52 GMT 52.724350 1.435776 5,850 42 217 0
2018-08-18 19:28:48 GMT 52.722832 1.431911 5,850 42 217 0
2018-08-18 19:28:44 GMT 52.719315 1.425629 5,850 13 212 0
2018-08-18 19:28:41 GMT 52.718216 1.424026 5,850 29 215 0
2018-08-18 19:28:37 GMT 52.713753 1.419434 5,850 17 212 0
2018-08-18 19:28:31 GMT 52.709106 1.416626 5,850 5 211 0
2018-08-18 19:28:28 GMT 52.703339 1.415329 5,850 0 210 0
2018-08-18 19:28:25 GMT 52.702812 1.415353 5,850 340 205 0
2018-08-18 19:28:21 GMT 52.698994 1.415824 5,850 344 206 0
2018-08-18 19:28:16 GMT 52.692989 1.418884 5,850 324 202 64
2018-08-18 19:28:11 GMT 52.690430 1.421051 5,850 310 200 0
2018-08-18 19:28:05 GMT 52.686081 1.426468 5,850 320 201 64
2018-08-18 19:28:00 GMT 52.683029 1.432460 5,850 299 200 0
2018-08-18 19:27:55 GMT 52.680771 1.439056 5,850 286 199 0
2018-08-18 19:27:50 GMT 52.679302 1.445801 5,850 284 200 0
2018-08-18 19:27:46 GMT 52.678558 1.451922 5,850 269 199 0
2018-08-18 19:27:38 GMT 52.678234 1.464399 5,850 269 199 0
2018-08-18 19:27:34 GMT 52.678299 1.472321 5,850 269 199 0
2018-08-18 19:27:29 GMT 52.678467 1.483154 5,850 270 199 0
2018-08-18 19:27:23 GMT 52.678574 1.487808 5,850 269 199 0
2018-08-18 19:27:17 GMT 52.678699 1.497437 5,850 270 199 0
2018-08-18 19:27:10 GMT 52.678802 1.507568 5,850 270 199 0
2018-08-18 19:27:04 GMT 52.678791 1.516270 5,850 214 204 0
2018-08-18 19:27:00 GMT 52.678757 1.524124 5,850 272 199 0
2018-08-18 19:26:57 GMT 52.678711 1.526337 5,850 268 199 64
2018-08-18 19:26:49 GMT 52.678513 1.539734 5,850 269 199 64
2018-08-18 19:26:45 GMT 52.678482 1.545258 5,850 268 199 64
2018-08-18 19:26:42 GMT 52.678604 1.549935 5,850 268 199 64
2018-08-18 19:26:38 GMT 52.678886 1.554801 5,850 237 200 0
2018-08-18 19:26:34 GMT 52.679955 1.561471 5,850 252 200 0
2018-08-18 19:26:26 GMT 52.683121 1.571594 5,850 237 200 0
2018-08-18 19:26:16 GMT 52.690197 1.582659 5,850 209 205 0
2018-08-18 19:26:07 GMT 52.698166 1.588135 5,850 182 212 64
2018-08-18 19:26:03 GMT 52.702057 1.589050 5,850 147 219 0
2018-08-18 19:25:57 GMT 52.707825 1.588440 5,850 152 219 0
2018-08-18 19:25:54 GMT 52.710728 1.587211 5,850 142 219 0
2018-08-18 19:25:47 GMT 52.717072 1.581802 5,850 142 219 0
2018-08-18 19:25:42 GMT 52.720551 1.576617 5,850 131 220 0
2018-08-18 19:25:35 GMT 52.724579 1.566544 5,850 109 221 0
2018-08-18 19:25:31 GMT 52.726044 1.560440 5,850 105 220 0
2018-08-18 19:25:26 GMT 52.727112 1.552133 5,850 98 221 -64
2018-08-18 19:25:22 GMT 52.727486 1.545462 5,850 91 220 -64
2018-08-18 19:25:18 GMT 52.727486 1.537694 5,850 89 220 0
2018-08-18 19:25:15 GMT 52.727463 1.533279 5,850 89 220 0
2018-08-18 19:25:07 GMT 52.727345 1.518389 5,850 90 220 0
2018-08-18 19:25:02 GMT 52.727325 1.510620 5,850 89 220 0
2018-08-18 19:24:57 GMT 52.727325 1.502609 5,850 90 220 0
2018-08-18 19:24:53 GMT 52.727325 1.496506 5,850 90 220 0
2018-08-18 19:24:46 GMT 52.727417 1.483536 5,850 91 220 0
2018-08-18 19:24:35 GMT 52.727692 1.466446 5,850 89 221 64
2018-08-18 19:24:29 GMT 52.727646 1.455612 5,850 80 221 0
2018-08-18 19:24:25 GMT 52.727188 1.448975 5,850 76 221 0
2018-08-18 19:24:19 GMT 52.725204 1.438738 5,850 62 219 0
2018-08-18 19:24:15 GMT 52.723202 1.433010 5,850 52 217 0
2018-08-18 19:24:09 GMT 52.719818 1.426544 5,850 45 217 0
2018-08-18 19:24:06 GMT 52.716824 1.422573 5,850 31 214 0
2018-08-18 19:24:03 GMT 52.713364 1.419296 5,850 22 213 0
2018-08-18 19:23:54 GMT 52.706257 1.415824 5,850 269 200 0
2018-08-18 19:23:49 GMT 52.701599 1.415482 5,850 334 203 64
2018-08-18 19:23:44 GMT 52.696762 1.416687 5,850 345 205 0
2018-08-18 19:23:37 GMT 52.690704 1.420670 5,850 329 203 64
2018-08-18 19:23:31 GMT 52.686310 1.425934 5,850 269 200 0
2018-08-18 19:23:28 GMT 52.684380 1.429243 5,850 270 200 0
2018-08-18 19:23:18 GMT 52.679817 1.442505 5,850 270 200 0
2018-08-18 19:23:08 GMT 52.678234 1.458592 5,850 275 199 -64
2018-08-18 19:23:03 GMT 52.678253 1.465988 5,850 269 200 0
2018-08-18 19:22:57 GMT 52.678345 1.474380 5,850 269 200 0
2018-08-18 19:22:50 GMT 52.678513 1.485116 5,850 269 200 0
2018-08-18 19:22:45 GMT 52.678711 1.496658 5,850 270 199 0
2018-08-18 19:22:42 GMT 52.678699 1.498143 5,850 270 199 0
2018-08-18 19:22:37 GMT 52.678791 1.506775 5,850 271 199 0
2018-08-18 19:22:32 GMT 52.678757 1.514359 5,850 271 199 0
2018-08-18 19:22:27 GMT 52.678711 1.520691 5,850 271 199 0
2018-08-18 19:22:22 GMT 52.678619 1.528778 5,850 272 199 -64
2018-08-18 19:22:13 GMT 52.678436 1.542206 5,850 271 199 0
2018-08-18 19:22:10 GMT 52.678528 1.548309 5,850 138 216 0
2018-08-18 19:22:00 GMT 52.680374 1.561550 5,850 247 198 0
2018-08-18 19:21:51 GMT 52.684841 1.573242 5,850 226 202 0
2018-08-18 19:21:48 GMT 52.686798 1.576381 5,850 221 203 0
2018-08-18 19:21:40 GMT 52.693542 1.583328 5,850 187 210 0
2018-08-18 19:21:35 GMT 52.697830 1.585563 5,850 182 212 0
2018-08-18 19:21:29 GMT 52.703064 1.586304 5,850 166 214 0
2018-08-18 19:21:20 GMT 52.712448 1.582565 5,850 154 216 0
2018-08-18 19:21:09 GMT 52.720783 1.571202 5,850 126 216 0
2018-08-18 19:21:04 GMT 52.723202 1.564453 5,850 116 217 0
2018-08-18 19:21:00 GMT 52.724808 1.557465 5,850 102 217 64
2018-08-18 19:20:53 GMT 52.725994 1.546090 5,850 98 217 0
2018-08-18 19:20:48 GMT 52.726089 1.539420 5,850 89 217 -64
2018-08-18 19:20:43 GMT 52.725998 1.530380 5,850 88 217 0
2018-08-18 19:20:39 GMT 52.725906 1.523895 5,850 89 217 0
2018-08-18 19:20:33 GMT 52.725815 1.513748 5,850 72 217 0
2018-08-18 19:20:29 GMT 52.725761 1.506775 5,850 89 217 -64
2018-08-18 19:20:24 GMT 52.725716 1.499241 5,850 91 216 0
2018-08-18 19:20:18 GMT 52.725761 1.489982 5,850 91 216 0
2018-08-18 19:20:13 GMT 52.725903 1.480329 5,850 91 216 0
2018-08-18 19:20:04 GMT 52.726181 1.457367 5,850 81 217 0
2018-08-18 19:19:53 GMT 52.725632 1.448288 5,850 76 217 0
2018-08-18 19:19:47 GMT 52.723755 1.438980 5,850 62 216 0
2018-08-18 19:19:41 GMT 52.719803 1.429400 5,850 54 216 0
2018-08-18 19:19:38 GMT 52.717255 1.425552 5,850 38 212 0
2018-08-18 19:19:33 GMT 52.714096 1.421967 5,850 26 210 0
2018-08-18 19:19:24 GMT 52.705673 1.417084 5,850 358 205 0
2018-08-18 19:19:20 GMT 52.701828 1.416626 5,850 337 201 0
2018-08-18 19:19:17 GMT 52.699043 1.416922 5,850 353 204 64
2018-08-18 19:19:12 GMT 52.694851 1.418413 5,850 335 201 0
2018-08-18 19:19:09 GMT 52.690243 1.421709 5,850 330 201 0
2018-08-18 19:19:06 GMT 52.689823 1.422180 5,850 326 201 0
2018-08-18 19:18:59 GMT 52.684753 1.428986 5,850 309 199 0
2018-08-18 19:18:55 GMT 52.682648 1.433334 5,850 298 197 0
2018-08-18 19:18:47 GMT 52.679489 1.444397 5,850 280 196 0
2018-08-18 19:18:43 GMT 52.678665 1.449966 5,850 280 196 0
2018-08-18 19:18:40 GMT 52.678234 1.455218 5,850 273 196 -64
2018-08-18 19:18:35 GMT 52.678162 1.462784 5,850 270 197 0
2018-08-18 19:18:25 GMT 52.678345 1.477737 5,850 269 196 0
2018-08-18 19:18:22 GMT 52.678436 1.482620 5,850 269 196 0
2018-08-18 19:18:13 GMT 52.678619 1.495209 5,850 270 196 0
2018-08-18 19:18:05 GMT 52.678665 1.507874 5,850 264 190 0
2018-08-18 19:17:54 GMT 52.678513 1.523411 5,850 272 194 -64
2018-08-18 19:17:45 GMT 52.678528 1.537323 5,850 267 190 64
2018-08-18 19:17:40 GMT 52.678837 1.543736 5,850 264 190 0
2018-08-18 19:17:33 GMT 52.680862 1.554108 5,850 188 199 0
2018-08-18 19:17:26 GMT 52.684238 1.562256 5,850 188 199 0
2018-08-18 19:17:23 GMT 52.686081 1.565399 5,850 221 192 0
2018-08-18 19:17:13 GMT 52.693542 1.572571 5,850 188 199 0
2018-08-18 19:17:04 GMT 52.703323 1.574262 5,850 166 203 0
2018-08-18 19:17:01 GMT 52.704758 1.573868 5,850 166 203 0
2018-08-18 19:16:55 GMT 52.710251 1.570435 5,850 118 208 0
2018-08-18 19:16:50 GMT 52.714371 1.565552 5,850 118 208 0
2018-08-18 19:16:46 GMT 52.716591 1.561393 5,850 118 208 0
2018-08-18 19:16:41 GMT 52.718948 1.555023 5,850 113 208 0
2018-08-18 19:16:38 GMT 52.720322 1.549377 5,850 104 209 0
2018-08-18 19:16:35 GMT 52.721062 1.544835 5,850 104 209 0
2018-08-18 19:16:32 GMT 52.721386 1.541460 5,850 95 208 0
2018-08-18 19:16:29 GMT 52.721603 1.536484 5,850 90 209 0
2018-08-18 19:16:26 GMT 52.721664 1.531808 5,850 89 209 0
2018-08-18 19:16:23 GMT 52.721558 1.524124 5,850 89 209 0
2018-08-18 19:16:15 GMT 52.721466 1.514282 5,850 89 209 128
2018-08-18 19:16:12 GMT 52.721386 1.508344 5,850 89 209 192
2018-08-18 19:16:09 GMT 52.721375 1.503601 5,825 89 209 192
2018-08-18 19:16:02 GMT 52.721329 1.492157 5,800 90 209 512
2018-08-18 19:15:57 GMT 52.721375 1.484604 5,325 83 207 1088
2018-08-18 19:15:50 GMT 52.721527 1.473894 5,625 91 207 1088
2018-08-18 19:15:40 GMT 52.721760 1.457729 5,450 88 207 1152
2018-08-18 19:15:30 GMT 52.719990 1.442426 5,275 66 206 1024
2018-08-18 19:15:20 GMT 52.714870 1.430028 5,125 39 203 1024
2018-08-18 19:15:10 GMT 52.706535 1.421945 4,875 4 196 1024
2018-08-18 19:15:05 GMT 52.701694 1.420297 4,850 351 192 1024
2018-08-18 19:15:02 GMT 52.698898 1.420288 4,800 351 192 1024
2018-08-18 19:14:59 GMT 52.696609 1.420670 4,775 347 191 1024
2018-08-18 19:14:50 GMT 52.689125 1.424927 4,525 287 185 1024
2018-08-18 19:14:39 GMT 52.682098 1.435756 4,350 270 181 896
2018-08-18 19:14:30 GMT 52.679211 1.446193 4,300 283 185 1024
2018-08-18 19:14:13 GMT 52.678162 1.470184 3,825 270 179 896
2018-08-18 19:14:08 GMT 52.678185 1.477426 3,825 270 183 960
2018-08-18 19:13:58 GMT 52.678280 1.490923 3,775 270 178 896
2018-08-18 19:13:48 GMT 52.678345 1.511917 3,575 270 171 960
2018-08-18 19:13:34 GMT 52.678371 1.522784 3,450 270 168 960
2018-08-18 19:13:30 GMT 52.678417 1.527649 3,375 269 165 1024
2018-08-18 19:13:23 GMT 52.678894 1.536942 3,325 211 173 256
2018-08-18 19:13:16 GMT 52.680470 1.545541 3,075 133 205 64
2018-08-18 19:13:05 GMT 52.685680 1.557783 2,925 211 173 256
2018-08-18 19:13:02 GMT 52.686939 1.559588 2,850 211 173 256
2018-08-18 19:12:57 GMT 52.690292 1.563339 2,850 183 185 0
2018-08-18 19:12:45 GMT 52.699924 1.567906 2,850 183 185 0
2018-08-18 19:12:32 GMT 52.712677 1.562958 2,850 133 205 64
2018-08-18 19:12:27 GMT 52.715057 1.560216 2,850 133 205 64
2018-08-18 19:12:20 GMT 52.719543 1.552277 2,850 110 211 0
2018-08-18 19:12:10 GMT 52.722977 1.537170 2,850 112 211 0
2018-08-18 19:12:06 GMT 52.723160 1.530838 2,850 84 213 0
2018-08-18 19:11:59 GMT 52.721512 1.518097 2,825 60 210 0
2018-08-18 19:11:55 GMT 52.720367 1.513977 2,850 61 210 0
2018-08-18 19:11:52 GMT 52.717800 1.507246 2,850 46 206 0
2018-08-18 19:11:45 GMT 52.714508 1.501160 2,850 41 204 -64
2018-08-18 19:11:38 GMT 52.708351 1.492807 2,850 38 203 0
2018-08-18 19:11:35 GMT 52.706490 1.490452 2,850 37 203 0
2018-08-18 19:11:25 GMT 52.699905 1.482162 2,850 36 203 0
2018-08-18 19:11:15 GMT 52.691917 1.472953 2,850 32 202 0
2018-08-18 19:11:05 GMT 52.683353 1.464399 2,850 28 200 -64
2018-08-18 19:10:54 GMT 52.675442 1.456630 2,850 40 206 0
2018-08-18 19:10:42 GMT 52.668316 1.442269 2,850 67 212 64
2018-08-18 19:10:33 GMT 52.666168 1.428146 2,850 86 213 0
2018-08-18 19:10:27 GMT 52.666409 1.413470 2,850 97 211 64
2018-08-18 19:10:23 GMT 52.666641 1.410252 2,850 97 211 64
2018-08-18 19:10:20 GMT 52.667152 1.404524 2,850 98 212 0
2018-08-18 19:10:11 GMT 52.668274 1.392593 2,850 98 213 -64
2018-08-18 19:10:03 GMT 52.669510 1.379471 2,850 98 212 64
2018-08-18 19:10:00 GMT 52.670105 1.373367 2,850 98 212 64
2018-08-18 19:09:54 GMT 52.671112 1.362776 2,850 98 212 0
2018-08-18 19:09:51 GMT 52.671577 1.357989 2,850 98 212 0
2018-08-18 19:09:41 GMT 52.672897 1.343842 2,850 98 212 0
2018-08-18 19:09:32 GMT 52.674229 1.329660 2,850 98 212 0
2018-08-18 19:09:28 GMT 52.674744 1.323931 2,850 98 212 0
2018-08-18 19:09:22 GMT 52.675720 1.313808 2,850 98 213 0
2018-08-18 19:09:19 GMT 52.676102 1.309662 2,850 98 213 0
2018-08-18 19:09:10 GMT 52.677536 1.294425 2,850 98 213 0
2018-08-18 19:09:00 GMT 52.679489 1.275199 2,850 99 213 0
2018-08-18 19:08:51 GMT 52.680679 1.264114 2,850 99 212 0
2018-08-18 19:08:47 GMT 52.681595 1.255264 2,850 99 212 0
2018-08-18 19:08:39 GMT 52.682693 1.244965 2,850 99 212 0
2018-08-18 19:08:36 GMT 52.683540 1.236668 2,850 99 211 0
2018-08-18 19:08:30 GMT 52.684296 1.229553 2,850 99 211 0
2018-08-18 19:08:23 GMT 52.685577 1.217041 2,850 99 211 0
2018-08-18 19:08:18 GMT 52.686054 1.212106 2,850 99 211 0
2018-08-18 19:08:08 GMT 52.687637 1.196490 2,850 99 211 0
2018-08-18 19:08:04 GMT 52.688427 1.188799 2,850 99 210 0
2018-08-18 19:07:58 GMT 52.689312 1.180010 2,850 99 210 0
2018-08-18 19:07:48 GMT 52.691269 1.160941 2,850 99 211 0
2018-08-18 19:07:45 GMT 52.691547 1.158351 2,850 99 211 0
2018-08-18 19:07:37 GMT 52.693550 1.138890 2,850 99 211 0
2018-08-18 19:07:27 GMT 52.694366 1.130676 2,850 99 211 0
2018-08-18 19:07:21 GMT 52.695549 1.119036 2,850 99 210 0
2018-08-18 19:07:18 GMT 52.695877 1.115897 2,850 99 210 0
2018-08-18 19:07:15 GMT 52.696335 1.111603 2,850 99 210 0
2018-08-18 19:07:10 GMT 52.697414 1.100987 2,850 99 210 0
2018-08-18 19:07:07 GMT 52.697617 1.098709 2,850 99 209 0
2018-08-18 19:06:59 GMT 52.699135 1.083958 2,850 99 208 0
2018-08-18 19:06:56 GMT 52.699276 1.082153 2,850 99 208 -64
2018-08-18 19:06:49 GMT 52.700577 1.069598 2,850 99 208 -192
2018-08-18 19:06:45 GMT 52.701050 1.064911 2,900 99 210 -1088
2018-08-18 19:06:38 GMT 52.702255 1.053196 2,875 99 208 -384
2018-08-18 19:06:35 GMT 52.702744 1.048279 2,900 99 210 -1088
2018-08-18 19:06:28 GMT 52.703884 1.037266 3,025 99 208 -1024
2018-08-18 19:06:25 GMT 52.704391 1.032410 3,025 99 208 -1024
2018-08-18 19:06:20 GMT 52.705719 1.019669 3,175 99 209 -1088
2018-08-18 19:06:16 GMT 52.705887 1.018276 3,350 99 210 -1088
2018-08-18 19:06:10 GMT 52.707142 1.006191 3,325 99 210 -1024
2018-08-18 19:06:05 GMT 52.707687 1.000443 3,375 99 211 -1024
2018-08-18 19:06:01 GMT 52.708328 0.994034 3,450 98 211 -1024
2018-08-18 19:05:58 GMT 52.708832 0.988312 3,525 98 209 -1088
2018-08-18 19:05:54 GMT 52.709236 0.983904 3,575 98 208 -1088
2018-08-18 19:05:45 GMT 52.710678 0.968131 3,750 98 206 -1024
2018-08-18 19:05:37 GMT 52.711796 0.956438 3,875 98 207 -1024
2018-08-18 19:05:34 GMT 52.712124 0.952593 3,900 98 207 -1024
2018-08-18 19:05:27 GMT 52.713333 0.940587 4,050 99 208 -1024
2018-08-18 19:05:23 GMT 52.713821 0.935898 4,200 100 208 -1024
2018-08-18 19:05:16 GMT 52.715240 0.923462 4,200 101 208 -1024
2018-08-18 19:05:12 GMT 52.715939 0.917672 4,300 101 209 -960
2018-08-18 19:05:09 GMT 52.716431 0.913849 4,300 101 209 -960
2018-08-18 19:05:04 GMT 52.717621 0.904617 4,450 100 209 -896
2018-08-18 19:05:01 GMT 52.718079 0.900803 4,425 100 210 -832
2018-08-18 19:04:53 GMT 52.719086 0.887985 4,550 84 211 -960
2018-08-18 19:04:50 GMT 52.718903 0.882492 4,600 79 210 -1024
2018-08-18 19:04:43 GMT 52.717117 0.872345 4,700 59 210 -1024
2018-08-18 19:04:35 GMT 52.712494 0.861250 4,875 32 203 0
2018-08-18 19:04:32 GMT 52.710819 0.858660 4,875 38 205 -256
2018-08-18 19:04:29 GMT 52.708164 0.855129 4,875 34 204 0
2018-08-18 19:04:25 GMT 52.705673 0.852661 4,875 23 201 64
2018-08-18 19:04:22 GMT 52.703136 0.850734 4,875 16 199 64
2018-08-18 19:04:17 GMT 52.697227 0.848301 4,875 347 190 0
2018-08-18 19:04:13 GMT 52.694458 0.848160 4,875 358 193 0
2018-08-18 19:04:10 GMT 52.691689 0.848537 4,875 324 183 0
2018-08-18 19:04:06 GMT 52.688427 0.849792 4,875 338 187 0
2018-08-18 19:04:03 GMT 52.685169 0.851990 4,875 324 183 0
2018-08-18 19:03:59 GMT 52.683289 0.853653 4,875 315 183 0
2018-08-18 19:03:55 GMT 52.679909 0.857954 4,875 315 183 0
2018-08-18 19:03:52 GMT 52.678326 0.860622 4,875 306 181 0
2018-08-18 19:03:43 GMT 52.674500 0.871048 4,875 286 180 0
2018-08-18 19:03:39 GMT 52.673439 0.876552 4,875 282 180 0
2018-08-18 19:03:32 GMT 52.672691 0.885106 4,875 270 180 0
2018-08-18 19:03:29 GMT 52.672668 0.889282 4,875 270 180 0
2018-08-18 19:03:26 GMT 52.672691 0.893502 4,875 270 180 0
2018-08-18 19:03:23 GMT 52.672760 0.898132 4,875 270 180 0
2018-08-18 19:03:19 GMT 52.672806 0.902634 4,875 270 180 0
2018-08-18 19:03:16 GMT 52.672832 0.907000 4,875 270 180 0
2018-08-18 19:03:10 GMT 52.672974 0.915397 4,875 270 180 0
2018-08-18 19:03:05 GMT 52.673035 0.921936 4,875 270 180 0
2018-08-18 19:03:00 GMT 52.673111 0.929679 4,875 270 180 0
2018-08-18 19:02:56 GMT 52.673111 0.934937 4,875 270 180 0
2018-08-18 19:02:50 GMT 52.673126 0.943756 4,875 271 180 0
2018-08-18 19:02:46 GMT 52.673111 0.951338 4,875 271 180 0
2018-08-18 19:02:42 GMT 52.673065 0.954084 4,875 271 180 -64
2018-08-18 19:02:38 GMT 52.673019 0.959577 4,875 271 180 -64
2018-08-18 19:02:35 GMT 52.673035 0.963058 4,875 264 181 0
2018-08-18 19:02:32 GMT 52.673080 0.968399 4,875 267 180 64
2018-08-18 19:02:29 GMT 52.673355 0.973969 4,875 264 181 0
2018-08-18 19:02:25 GMT 52.673721 0.977249 4,875 226 185 0
2018-08-18 19:02:20 GMT 52.675232 0.984497 4,875 237 184 0
2018-08-18 19:02:14 GMT 52.677673 0.991124 4,875 237 184 0
2018-08-18 19:02:11 GMT 52.680981 0.997009 4,875 221 187 0
2018-08-18 19:02:08 GMT 52.681305 0.997402 4,875 221 187 0
2018-08-18 19:02:04 GMT 52.683865 1.000462 4,875 208 190 0
2018-08-18 19:01:59 GMT 52.689835 1.004791 4,875 190 195 0
2018-08-18 19:01:50 GMT 52.696201 1.006112 4,875 177 200 64
2018-08-18 19:01:47 GMT 52.701462 1.004778 4,875 161 204 0
2018-08-18 19:01:43 GMT 52.702858 1.004072 4,875 156 205 0
2018-08-18 19:01:40 GMT 52.705048 1.002345 4,875 150 206 0
2018-08-18 19:01:35 GMT 52.708832 0.998230 4,875 139 208 0
2018-08-18 19:01:32 GMT 52.711330 0.993949 4,875 131 209 0
2018-08-18 19:01:28 GMT 52.713520 0.988691 4,875 114 211 0
2018-08-18 19:01:23 GMT 52.715286 0.982361 4,875 107 210 0
2018-08-18 19:01:20 GMT 52.716267 0.976685 4,875 100 211 0
2018-08-18 19:01:17 GMT 52.716660 0.972748 4,875 92 211 -64
2018-08-18 19:01:12 GMT 52.717010 0.964600 4,875 90 211 0
2018-08-18 19:01:08 GMT 52.717010 0.955654 4,875 89 211 0
2018-08-18 19:01:00 GMT 52.716965 0.944746 4,875 89 211 0
2018-08-18 19:00:57 GMT 52.716934 0.940323 4,875 90 211 0
2018-08-18 19:00:50 GMT 52.716934 0.927811 4,875 90 211 0
2018-08-18 19:00:47 GMT 52.716965 0.923479 4,875 91 212 0
2018-08-18 19:00:44 GMT 52.717056 0.916181 4,875 91 212 0
2018-08-18 19:00:39 GMT 52.717163 0.910721 4,875 91 211 0
2018-08-18 19:00:34 GMT 52.717339 0.900408 4,875 90 212 0
2018-08-18 19:00:27 GMT 52.717430 0.891148 4,875 88 212 128
2018-08-18 19:00:24 GMT 52.717384 0.887224 4,875 88 212 128
2018-08-18 19:00:19 GMT 52.716843 0.878448 4,875 75 212 0
2018-08-18 19:00:16 GMT 52.716080 0.873727 4,875 43 207 0
2018-08-18 19:00:09 GMT 52.712589 0.862976 4,850 50 208 0
2018-08-18 19:00:04 GMT 52.710121 0.858503 4,875 0 194 -128
2018-08-18 18:59:58 GMT 52.705326 0.852931 4,875 13 198 -128
2018-08-18 18:59:54 GMT 52.702255 0.850734 4,875 18 200 -128
2018-08-18 18:59:51 GMT 52.699127 0.849380 4,900 2 194 -128
2018-08-18 18:59:48 GMT 52.696156 0.848772 4,900 2 194 -128
2018-08-18 18:59:38 GMT 52.687271 0.850906 4,875 339 187 64
2018-08-18 18:59:32 GMT 52.682842 0.854579 4,875 331 186 0
2018-08-18 18:59:29 GMT 52.681183 0.856476 4,875 300 183 0
2018-08-18 18:59:26 GMT 52.679024 0.859837 4,875 313 184 0
2018-08-18 18:59:23 GMT 52.677521 0.862656 4,875 306 183 0
2018-08-18 18:59:17 GMT 52.674866 0.870209 4,875 291 182 64
2018-08-18 18:59:13 GMT 52.673813 0.874710 4,875 284 181 64
2018-08-18 18:59:08 GMT 52.672928 0.881810 4,875 270 182 0
2018-08-18 18:59:05 GMT 52.672714 0.885620 4,875 271 182 0
2018-08-18 18:59:01 GMT 52.672646 0.892482 4,875 270 182 0
2018-08-18 18:58:57 GMT 52.672691 0.898054 4,875 270 182 0
2018-08-18 18:58:54 GMT 52.672714 0.902405 4,875 270 182 0
2018-08-18 18:58:47 GMT 52.672832 0.911944 4,875 270 182 0
2018-08-18 18:58:44 GMT 52.672832 0.915397 4,875 270 182 0
2018-08-18 18:58:41 GMT 52.672897 0.919800 4,875 270 182 0
2018-08-18 18:58:36 GMT 52.672928 0.926932 4,875 270 182 0
2018-08-18 18:58:31 GMT 52.673035 0.933685 4,875 270 182 0
2018-08-18 18:58:26 GMT 52.673126 0.940857 4,875 270 183 0
2018-08-18 18:58:21 GMT 52.673206 0.948512 4,875 270 184 -64
2018-08-18 18:58:15 GMT 52.673309 0.955429 4,875 270 185 -128
2018-08-18 18:58:12 GMT 52.673344 0.960362 4,875 270 187 -256
2018-08-18 18:58:09 GMT 52.673355 0.966797 4,900 270 188 -256
2018-08-18 18:58:05 GMT 52.673401 0.969543 4,900 270 188 -192
2018-08-18 18:58:01 GMT 52.673401 0.975494 4,925 270 187 0
2018-08-18 18:57:55 GMT 52.673355 0.984344 4,900 271 194 320
2018-08-18 18:57:51 GMT 52.673298 0.990888 4,875 270 199 128
2018-08-18 18:57:47 GMT 52.673344 0.997872 4,875 267 203 0
2018-08-18 18:57:44 GMT 52.673439 1.000384 4,875 218 234 -64
2018-08-18 18:57:40 GMT 52.673904 1.007054 4,875 260 207 -64
2018-08-18 18:57:35 GMT 52.675346 1.016471 4,875 251 212 0
2018-08-18 18:57:30 GMT 52.677814 1.025574 4,875 241 217 64
2018-08-18 18:57:24 GMT 52.680000 1.031538 4,875 235 222 64
2018-08-18 18:57:19 GMT 52.683151 1.037903 4,875 228 227 0
2018-08-18 18:57:14 GMT 52.687218 1.044015 4,875 217 236 -64
2018-08-18 18:57:10 GMT 52.690758 1.048096 4,875 210 240 0
2018-08-18 18:57:02 GMT 52.701092 1.055394 4,875 194 248 64
2018-08-18 18:56:58 GMT 52.702625 1.056022 4,875 181 256 -64
2018-08-18 18:56:54 GMT 52.708786 1.057281 4,875 181 256 -64
2018-08-18 18:56:48 GMT 52.715424 1.056747 4,875 169 261 64
2018-08-18 18:56:43 GMT 52.720963 1.054688 4,875 161 263 64
2018-08-18 18:56:37 GMT 52.728649 1.048959 4,875 147 266 64
2018-08-18 18:56:33 GMT 52.731857 1.045303 4,875 111 272 0
2018-08-18 18:56:28 GMT 52.736565 1.038051 4,875 128 270 0
2018-08-18 18:56:22 GMT 52.740520 1.029184 4,875 118 271 0
2018-08-18 18:56:18 GMT 52.743080 1.020473 4,875 107 272 64
2018-08-18 18:56:11 GMT 52.745407 1.007614 4,875 101 272 0
2018-08-18 18:56:06 GMT 52.746201 0.997402 4,875 90 272 -64
2018-08-18 18:56:00 GMT 52.746277 0.979004 4,875 89 272 0
2018-08-18 18:55:56 GMT 52.746292 0.976842 4,875 89 272 0
2018-08-18 18:55:53 GMT 52.746246 0.968131 4,875 89 272 0
2018-08-18 18:55:49 GMT 52.746185 0.961838 4,875 89 272 0
2018-08-18 18:55:46 GMT 52.746155 0.954633 4,875 90 272 0
2018-08-18 18:55:42 GMT 52.746094 0.946121 4,875 89 272 0
2018-08-18 18:55:37 GMT 52.746048 0.936584 4,875 90 273 -64
2018-08-18 18:55:34 GMT 52.746059 0.930464 4,875 90 273 -64
2018-08-18 18:55:31 GMT 52.746048 0.924606 4,875 90 273 -64
2018-08-18 18:55:27 GMT 52.746094 0.916138 4,875 90 273 -64
2018-08-18 18:55:24 GMT 52.746140 0.908661 4,875 90 273 -64
2018-08-18 18:55:20 GMT 52.746201 0.901271 4,875 90 273 -64
2018-08-18 18:55:14 GMT 52.746201 0.888480 4,875 71 272 0
2018-08-18 18:55:11 GMT 52.746002 0.882339 4,875 84 273 64
2018-08-18 18:55:04 GMT 52.744289 0.867920 4,875 67 272 0
2018-08-18 18:55:01 GMT 52.742756 0.861328 4,875 63 271 0
2018-08-18 18:54:57 GMT 52.740784 0.855179 4,875 57 271 0
2018-08-18 18:54:54 GMT 52.738846 0.850420 4,875 51 270 0
2018-08-18 18:54:50 GMT 52.735725 0.844299 4,875 351 254 0
2018-08-18 18:54:47 GMT 52.732361 0.839233 4,875 36 266 0
2018-08-18 18:54:43 GMT 52.727673 0.833941 4,875 32 266 0
2018-08-18 18:54:40 GMT 52.725483 0.832057 4,875 24 264 0
2018-08-18 18:54:35 GMT 52.720184 0.828552 4,875 13 260 0
2018-08-18 18:54:30 GMT 52.713799 0.826407 4,875 351 254 0
2018-08-18 18:54:25 GMT 52.707733 0.826035 4,875 355 255 0
2018-08-18 18:54:22 GMT 52.703838 0.826721 4,875 353 254 0
2018-08-18 18:54:18 GMT 52.699322 0.828369 4,875 340 250 64
2018-08-18 18:54:15 GMT 52.696152 0.830154 4,875 338 250 0
2018-08-18 18:54:12 GMT 52.693455 0.832057 4,875 333 249 0
2018-08-18 18:54:09 GMT 52.690384 0.834885 4,875 327 248 0
2018-08-18 18:54:04 GMT 52.685356 0.841082 4,875 318 246 0
2018-08-18 18:54:00 GMT 52.681732 0.847244 4,875 309 245 0
2018-08-18 18:53:54 GMT 52.678513 0.854579 4,875 286 242 0
2018-08-18 18:53:49 GMT 52.675781 0.863495 4,850 286 242 0
2018-08-18 18:53:44 GMT 52.673904 0.872707 4,850 283 242 0
2018-08-18 18:53:38 GMT 52.672832 0.882202 4,850 276 242 -64
2018-08-18 18:53:35 GMT 52.672462 0.891070 4,875 272 242 0
2018-08-18 18:53:30 GMT 52.672413 0.897583 4,875 271 242 0
2018-08-18 18:53:27 GMT 52.672394 0.903473 4,875 271 242 0
2018-08-18 18:53:23 GMT 52.672348 0.910339 4,875 271 242 0
2018-08-18 18:53:18 GMT 52.672321 0.919713 4,875 271 242 0
2018-08-18 18:53:12 GMT 52.672211 0.935745 4,875 271 242 0
2018-08-18 18:53:08 GMT 52.672180 0.938625 4,875 271 243 0
2018-08-18 18:53:01 GMT 52.672089 0.952122 4,875 271 243 -64
2018-08-18 18:52:58 GMT 52.672089 0.957145 4,875 271 243 0
2018-08-18 18:52:53 GMT 52.672028 0.966187 4,875 271 243 -64
2018-08-18 18:52:48 GMT 52.671936 0.976181 4,875 271 243 -64
2018-08-18 18:52:45 GMT 52.671936 0.980225 4,875 271 242 -64
2018-08-18 18:52:42 GMT 52.671902 0.985631 4,900 271 242 0
2018-08-18 18:52:38 GMT 52.671810 0.993243 4,875 271 241 64
2018-08-18 18:52:35 GMT 52.671753 0.999832 4,875 271 240 128
2018-08-18 18:52:31 GMT 52.671707 1.006317 4,875 271 241 256
2018-08-18 18:52:27 GMT 52.671661 1.013947 4,875 271 241 256
2018-08-18 18:52:24 GMT 52.671570 1.023865 4,850 271 243 512
2018-08-18 18:52:21 GMT 52.671570 1.024780 4,825 271 244 640
2018-08-18 18:52:16 GMT 52.671482 1.034363 4,775 271 245 832
2018-08-18 18:52:12 GMT 52.671391 1.045977 4,675 271 248 1216
2018-08-18 18:52:09 GMT 52.671387 1.046906 4,675 271 249 1344
2018-08-18 18:52:06 GMT 52.671391 1.052333 4,625 270 250 1408
2018-08-18 18:52:02 GMT 52.671345 1.060181 4,525 267 244 2304
2018-08-18 18:51:59 GMT 52.671478 1.069565 4,375 268 246 2176
2018-08-18 18:51:54 GMT 52.671669 1.076189 4,250 267 241 2624
2018-08-18 18:51:46 GMT 52.672276 1.090707 3,900 267 240 2624
2018-08-18 18:51:42 GMT 52.672554 1.098083 3,725 267 238 2880
2018-08-18 18:51:35 GMT 52.672989 1.110153 3,425 268 238 3072
2018-08-18 18:51:26 GMT 52.673538 1.128311 2,975 268 236 2368
2018-08-18 18:51:23 GMT 52.673767 1.135635 2,825 268 232 1984
2018-08-18 18:51:15 GMT 52.674042 1.146088 2,650 268 226 1536
2018-08-18 18:51:10 GMT 52.674316 1.156464 2,500 268 221 1536
2018-08-18 18:51:04 GMT 52.674461 1.164001 2,375 269 215 1152
2018-08-18 18:50:59 GMT 52.674648 1.173889 2,300 269 203 832
2018-08-18 18:50:54 GMT 52.674774 1.181259 2,225 269 196 1280

Making use of Plane Finder data

You are free to use the raw flight data, aircraft information and images provided in this report for your own purposes provided the data is correctly attributed to Plane Finder. We ask that you please credit Plane Finder and link to planefinder.net in close proximity to the content.

Optionally one of the following logos (no smaller then 150x24px) can be used and must link to planefinder.net

Embedding the Plane Finder map

You are welcome to embed the Plane Finder playback map on your website to offer visitors a more interactive experience. We suggest using the following HTML code:

<iframe src="//planefinder.net/data/report/FH638-TC-FBV-7700-squawk-2018-08-18/map" width="800" height="600" seamless="seamless"></iframe>

Where our data comes from

Plane Finder has a global network of data feeds and antenna radars that receive data broadcast directly from aircraft. The primary technologies used are ADS-B and MLAT. We also show feeds from the FAA and a FLARM glider feed.

Click here to find out more about the Plane Finder network.

How we collect our data